GFSCGP_850_dewp_000.txt.gz
Dewpoint
-5 -7 -4 -4 -5 -6 -6 -6 -6 -7 -4 -1 -1 -5 -6 -5 -5 -4 -5 -6 -4 -1 1 3 4 -2 -2 1 6 7 5 -4 -3 -0 -1 -1 -0 -0 0 0 -2 -1 -1 -1
-7 -4 -5 -4 -4 -5 -5 -5 -5 -4 -3 -1 -3 -4 -6 -5 -4 -3 -4 -4 -4 -3 -2 -1 -1 -1 3 5 5 4 -0 -3 -3 -2 -3 -2 -2 0 -1 -0 -1 -1 -2 -4
-5 -5 -6 -4 -2 -2 -3 -4 -1 -1 -2 -2 -2 -2 -4 -5 -4 -4 -4 -3 -3 -3 -2 -1 0 -0 -0 -0 -0 -1 -2 -3 -3 -1 -0 -0 -0 -0 -0 -1 -2 -4 -6 -9
-4 -4 -2 -2 -1 -1 -2 -2 -0 -0 -0 -1 -1 -1 -1 -5 -4 -4 -4 -3 -3 -3 -2 -2 -1 0 -2 -3 -3 -3 -2 -1 -1 -2 -2 -2 -0 -1 -3 -2 -1 -5 -8 -15
-3 -2 -1 -1 -1 -0 1 0 0 0 0 1 -0 -2 0 -3 -3 -3 -3 -2 -2 -2 -1 0 0 1 1 -0 -1 -1 1 -0 -2 -2 -2 -1 -2 -1 -0 -1 -2 -4 -6 -9
-2 -2 -1 -1 -2 -1 -0 0 1 1 2 4 2 0 1 -0 -1 -3 -2 -1 0 0 -1 1 1 1 1 2 -0 -0 0 -0 -2 -2 -2 -4 -2 0 -0 -3 -4 -5 -5 -5
-1 -0 -1 -0 -1 -0 -1 -0 2 6 5 4 0 0 2 -1 -2 -1 -0 0 1 2 1 1 1 1 2 1 -1 -0 -0 0 1 1 -0 -1 -3 -2 -2 -3 -4 -4 -5 -4
1 2 1 0 1 1 1 2 5 5 4 2 -0 0 1 -1 -1 -1 -1 -0 0 1 1 1 1 1 2 1 -1 -1 -0 1 1 -1 -3 -6 -3 -1 -2 -2 -4 -5 -4 -4
2 2 -0 -0 -0 0 1 3 1 5 5 7 1 1 -0 -2 -2 -2 -1 -0 0 0 0 0 0 1 2 2 2 1 -0 0 0 -1 -0 -3 -0 -1 -4 -8 -6 -3 -4 -2
2 3 0 -0 0 0 1 1 3 2 7 1 -3 -2 -2 1 -0 -1 -1 -0 0 0 0 0 0 1 1 1 1 0 1 2 1 1 -1 -1 -3 -4 -6 -4 -3 -3 -2 -1
-0 1 0 1 2 2 2 3 2 1 3 3 3 -1 -0 -1 -2 -1 -1 -1 -0 1 1 1 1 1 1 2 2 2 3 2 1 -1 -2 -2 -2 -3 -3 -3 -2 -2 -2 -3
1 2 -0 -1 1 1 1 2 1 1 2 3 5 2 -2 -2 -2 -1 -1 -1 0 1 1 1 1 1 2 2 2 2 2 -1 -4 -4 -2 -2 -3 -3 -3 -2 -2 -1 -1 -2
2 3 -1 0 2 1 2 1 1 2 3 5 6 3 -3 -2 -3 -2 -0 -0 1 1 0 0 1 1 2 1 1 -1 -3 -4 -2 -4 -3 -3 -2 -2 -2 -2 -2 -2 -3 -3
2 2 1 -3 -3 -1 -1 -2 -0 1 5 3 3 1 -1 -3 -2 -2 -0 1 1 1 1 1 2 2 1 1 -0 -3 -2 -1 -5 -6 -3 -3 -2 -2 -4 -5 -4 -4 -4 -4
3 2 2 1 -0 -1 0 0 -1 1 2 4 2 0 -1 -1 -1 -0 1 1 1 1 2 2 1 1 -0 -0 -0 0 -0 -5 -7 -3 -3 -4 -4 -5 -5 -6 -7 -7 -8 -10
2 3 4 3 1 -0 2 0 -0 1 1 1 1 1 -2 -1 0 1 1 1 1 2 1 1 1 -2 -2 -2 -0 1 -2 -3 -4 -3 -4 -6 -6 -7 -8 -8 -10 -11 -12 -12
4 5 5 7 2 3 6 2 -0 -1 0 0 2 -1 -1 0 1 2 2 2 2 3 1 -1 -1 -3 -3 -2 1 -2 -3 -3 -2 -4 -6 -6 -6 -9 -10 -11 -13 -12 -12 -11
5 6 5 8 6 7 1 -2 -2 -0 -1 -2 -2 -0 1 1 1 1 2 3 2 2 -0 -2 -3 -4 -3 -1 -1 -3 -3 -3 -4 -5 -6 -5 -7 -9 -11 -12 -12 -12 -12 -11
3 6 6 6 4 2 0 -1 -0 -0 0 -1 1 1 2 2 1 1 2 2 2 0 -2 -3 -4 -4 -3 -2 -2 -3 -4 -4 -5 -5 -5 -5 -8 -9 -12 -12 -12 -11 -11 -11
2 3 6 6 6 6 1 -2 -1 -0 3 2 3 4 3 2 4 3 2 1 -1 -2 -4 -5 -7 -6 -3 -1 -3 -2 -3 -4 -5 -5 -4 -7 -7 -9 -11 -11 -11 -10 -11 -11
5 4 5 5 6 4 -0 -1 -0 5 6 3 3 3 3 3 3 2 1 -1 -4 -5 -6 -7 -8 -8 -5 -4 -3 -3 -4 -6 -7 -7 -7 -7 -8 -10 -10 -11 -10 -10 -10 -9
3 6 6 5 6 6 -1 -0 5 3 3 3 3 3 2 2 2 -1 -4 -6 -7 -6 -7 -8 -8 -8 -7 -5 -4 -4 -7 -8 -7 -7 -7 -7 -8 -10 -10 -10 -10 -10 -9 -9
3 2 2 3 4 -0 0 1 2 2 3 4 3 2 1 -0 -3 -6 -7 -7 -7 -7 -8 -9 -8 -7 -7 -6 -4 -5 -8 -7 -6 -7 -7 -8 -9 -9 -9 -10 -9 -9 -9 -9
1 1 3 3 2 1 3 2 3 4 3 3 1 -0 -2 -4 -7 -7 -7 -8 -7 -9 -9 -8 -8 -8 -7 -6 -3 -4 -5 -5 -6 -8 -8 -8 -9 -9 -8 -9 -9 -10 -9 -10
2 1 2 3 3 3 2 4 4 3 3 1 -0 -2 -5 -7 -7 -8 -8 -9 -10 -9 -8 -8 -8 -8 -8 -7 -3 -4 -5 -7 -9 -9 -9 -8 -7 -7 -8 -9 -10 -9 -10 -12
2 1 5 5 3 3 3 3 2 3 2 -1 -4 -6 -7 -8 -7 -8 -10 -10 -10 -9 -8 -8 -7 -7 -7 -7 -6 -5 -7 -7 -12 -12 -8 -7 -8 -7 -7 -9 -9 -10 -11 -13

GFSCGP_850_dewp_006.txt.gz
Dewpoint
-8 -6 -3 -4 -6 -8 -9 -10 -10 -7 -7 -7 -8 -7 -6 -6 -6 -6 -6 -6 -6 -5 1 4 4 3 3 5 5 5 7 5 5 4 3 2 1 1 2 2 2 2 1 1
-10 -4 -6 -7 -8 -7 -8 -7 -7 -7 -7 -8 -6 -7 -6 -5 -5 -5 -5 -4 -1 1 2 2 3 4 5 6 7 6 6 3 2 1 2 1 1 1 1 2 1 1 1 1
-2 -4 -7 -7 -5 -4 -5 -5 -1 -2 -4 -6 -6 -4 -4 -5 -5 -4 -3 -3 -1 -0 1 2 4 5 5 5 4 3 3 3 2 1 1 1 1 1 1 0 1 2 2 2
-4 -6 -4 -4 -2 -3 -2 -2 -2 -3 -3 -2 -6 -2 -3 -4 -3 -3 -2 -2 -2 -2 -1 1 3 4 4 3 3 2 2 1 -0 -1 -1 0 1 2 2 2 2 1 0 -2
-2 -3 -2 -1 -2 -3 -0 -2 -2 -2 -2 -2 -4 -1 -0 -4 -2 -2 -2 -2 -1 0 0 1 2 3 4 4 3 3 2 2 2 1 2 3 3 3 0 -0 -0 -1 -1 -2
-3 -4 -2 -1 -3 -3 -2 -1 -1 -1 -0 6 -2 -1 3 -1 -1 -1 -1 -0 -0 -0 1 1 2 3 4 4 3 2 1 1 1 2 3 2 -0 -1 -0 0 -0 -1 -1 -3
-2 -1 -2 -3 -0 -1 -3 0 7 10 9 8 0 -1 2 -1 -1 -1 -1 -0 1 1 1 1 1 2 3 3 3 3 3 3 2 1 1 1 1 1 0 -0 -1 -1 -4 -2
0 4 -1 -3 -1 -1 -0 -0 9 7 9 6 -3 -3 1 -1 -2 -2 -1 -1 0 1 1 1 1 2 2 2 2 3 3 3 2 2 2 2 1 0 -0 -0 -1 -3 -2 -3
1 2 -2 -3 -3 -3 1 2 -2 4 6 7 -1 1 -1 -2 -2 -2 -2 -1 -1 0 1 0 1 1 2 2 1 2 2 3 2 2 2 1 0 -0 0 -1 -3 -3 -2 -2
-3 3 -3 -4 -2 -1 -1 -3 3 6 8 3 -2 -1 4 0 -1 -2 -3 -3 -2 -0 0 1 0 1 1 1 2 2 2 3 3 2 1 0 0 -1 -2 -2 -3 -3 -2 -3
-2 -0 -0 -2 -0 -0 0 1 -0 -2 3 5 5 1 -3 -1 -2 -2 -2 -2 -2 -1 -0 0 1 1 1 2 2 2 2 3 2 1 1 -1 -2 -2 -2 -3 -3 -2 -3 -7
-2 -0 5 -2 -2 -2 -2 -1 -2 7 3 6 6 2 -2 -1 -0 -1 -1 -0 -0 1 1 1 2 2 1 1 1 2 2 2 2 1 0 -1 -3 -3 -3 -3 -3 -4 -4 -4
1 3 6 2 2 -1 -2 -2 -2 2 4 4 8 4 -1 1 -0 -1 -2 0 1 1 1 1 2 2 1 0 1 0 0 1 0 0 -1 -2 -3 -4 -4 -5 -6 -5 -6 -7
2 -0 0 3 -2 -4 -3 -4 -4 -3 7 5 4 1 -1 2 0 -2 -1 0 1 1 2 2 2 1 0 -1 -2 -2 -2 -2 -1 -1 -2 -2 -2 -4 -6 -6 -7 -7 -8 -10
1 3 1 -0 -3 -4 -4 -3 -4 -3 -2 2 1 -1 -2 -1 -1 1 1 1 2 2 2 2 1 0 -1 -2 -3 -4 -4 -4 -1 -1 -1 -4 -4 -5 -6 -6 -7 -8 -10 -12
1 6 4 3 -2 -2 -1 -3 -3 -4 -4 -3 -1 -1 -2 0 1 1 2 2 2 2 1 -0 -0 -2 -3 -4 -6 -7 -7 -6 -3 -2 -3 -3 -2 -5 -5 -5 -7 -8 -11 -11
4 6 6 7 3 4 7 4 -2 -3 -3 -2 2 -0 -0 1 1 1 2 2 2 0 -0 -1 -2 -4 -6 -8 -9 -10 -9 -9 -7 -6 -5 -4 -2 -3 -4 -5 -6 -8 -10 -12
6 6 7 8 7 8 1 -3 -3 -2 -3 -3 -3 -1 1 1 1 1 2 2 -0 -0 -1 -3 -6 -7 -8 -8 -10 -11 -11 -10 -10 -9 -7 -3 -3 -5 -4 -5 -5 -6 -10 -12
2 6 6 9 5 2 0 -1 -0 1 1 -2 1 2 2 1 1 0 0 -0 -1 -2 -5 -8 -9 -8 -10 -11 -11 -10 -10 -10 -10 -10 -6 -4 -5 -5 -7 -5 -5 -8 -11 -11
3 6 8 6 6 6 2 -1 -1 -1 4 2 3 3 2 1 3 1 0 -1 -4 -7 -8 -9 -10 -11 -12 -11 -11 -11 -11 -11 -11 -6 -5 -4 -5 -5 -5 -5 -7 -10 -11 -10
5 5 7 7 6 5 -1 -1 -0 4 5 3 4 3 3 2 2 2 -2 -4 -7 -8 -9 -10 -12 -12 -12 -11 -11 -11 -11 -11 -7 -4 -4 -4 -4 -6 -6 -7 -11 -11 -11 -11
5 7 6 5 6 5 -1 -1 3 4 3 3 3 3 3 3 3 -2 -4 -7 -8 -9 -10 -12 -12 -12 -12 -11 -11 -10 -10 -9 -6 -6 -4 -5 -6 -7 -7 -10 -11 -11 -11 -10
4 5 6 5 5 1 0 1 3 3 4 3 3 2 2 2 -0 -4 -6 -8 -8 -9 -11 -11 -11 -11 -11 -10 -10 -9 -8 -8 -6 -7 -6 -6 -7 -8 -9 -10 -11 -11 -10 -10
-1 -3 6 5 1 -1 0 -0 3 4 3 2 2 2 2 -1 -4 -6 -7 -8 -9 -10 -10 -11 -10 -11 -10 -10 -9 -8 -7 -7 -6 -6 -6 -7 -8 -9 -9 -9 -10 -10 -10 -10
3 0 2 3 1 0 1 4 4 4 2 3 2 1 -3 -4 -6 -6 -8 -9 -10 -10 -10 -10 -10 -11 -9 -9 -8 -6 -6 -7 -5 -6 -7 -9 -8 -8 -8 -8 -9 -9 -9 -9
1 1 4 5 2 3 4 4 3 3 3 1 0 -3 -4 -5 -7 -9 -9 -10 -10 -10 -11 -11 -10 -9 -8 -7 -6 -6 -6 -6 -7 -7 -10 -9 -8 -8 -9 -8 -8 -9 -10 -9

GFSCGP_850_dewp_009.txt.gz
Dewpoint
-6 -2 -2 -5 -6 -7 -7 -6 -4 -5 -7 -8 -8 -5 -4 -3 -4 -4 0 3 4 4 4 4 4 5 5 6 9 8 6 6 6 6 5 4 3 1 2 2 2 2 2 1
-5 -2 -6 -6 -4 -4 -6 -2 -0 -5 -6 -8 -8 -5 -4 -3 -3 -2 0 2 2 3 5 5 6 6 6 7 7 7 6 4 3 2 2 2 1 1 0 -0 1 1 1 2
-1 -5 -7 -6 -1 -1 -1 -0 -1 -2 -4 -6 -5 -3 -2 -3 -3 -2 -1 1 1 2 4 5 5 5 4 4 3 3 3 2 2 1 1 0 -1 0 1 1 1 1 -1 -2
-4 -6 -3 -2 -1 -2 2 -0 -1 -2 -1 -1 -6 1 -2 -1 -0 -1 -0 0 1 3 4 4 3 3 3 3 2 2 1 1 -0 -1 0 1 2 3 2 3 0 -0 -1 -1
-2 -1 0 0 -1 -2 1 -2 -1 -1 -0 -0 -1 1 -1 -1 1 -0 -1 -0 0 1 2 3 3 2 2 2 2 1 2 1 2 1 2 3 3 0 -1 0 0 -0 -1 -1
-3 -3 -2 -2 -2 -3 -3 0 1 0 1 5 2 3 4 3 1 1 0 0 0 1 1 2 2 2 2 2 2 2 3 3 2 2 3 2 1 1 1 0 0 -0 -0 -1
-1 -0 -2 -3 0 -1 -1 3 7 7 7 7 4 4 4 1 -0 0 1 1 1 1 1 2 3 3 2 2 3 3 3 3 2 2 2 2 2 1 1 0 -0 -1 -3 -4
3 4 -1 -2 -1 -1 1 2 5 8 8 6 -3 4 3 -1 -1 -1 -0 -0 1 1 1 1 1 1 2 2 2 2 2 2 3 2 2 2 1 1 -0 0 0 -3 -3 -3
4 2 -2 -3 -3 -1 2 2 -2 5 5 5 3 2 -0 -1 -1 -1 -2 -1 1 1 1 1 2 2 2 1 2 2 2 2 3 3 2 1 1 0 1 0 -2 -3 -3 -2
-1 2 -3 -4 -2 -1 -1 -3 4 4 5 4 1 4 6 2 2 -1 -2 -1 -0 1 1 1 2 2 2 2 1 1 1 2 2 2 2 1 0 -1 -1 -2 -3 -3 -3 -3
1 3 -0 -2 -0 1 1 2 1 1 3 5 5 3 1 2 1 1 -0 1 1 1 1 1 1 1 1 1 1 0 0 0 0 0 -1 -1 -1 -2 -3 -3 -3 -4 -6 -9
-1 2 3 1 -2 -3 -2 0 1 4 4 4 4 2 1 1 0 1 1 1 1 1 1 2 2 2 1 0 -0 -1 -2 -1 -2 -2 -3 -0 -1 -2 -4 -5 -4 -8 -7 -7
2 2 5 4 3 -0 -2 -2 2 4 2 2 2 3 1 2 2 1 1 1 1 1 1 2 2 -1 -0 -0 -1 -2 -3 -4 -4 -4 -2 -1 -1 -1 -2 -3 -6 -7 -7 -7
2 1 2 4 0 -2 -2 -3 -2 3 4 4 4 2 -0 3 3 2 1 2 2 2 2 1 -1 -0 -1 -2 -3 -5 -6 -8 -7 -7 -3 -4 -4 -2 -2 -4 -4 -5 -6 -8
2 5 3 1 -1 -2 -3 -2 -2 -2 -1 2 1 2 3 3 2 2 2 2 2 1 1 -0 -2 -3 -3 -5 -7 -8 -9 -9 -10 -10 -8 -7 -4 -2 -2 -1 -4 -3 -6 -10
3 5 2 2 1 1 1 -0 -1 -2 -2 -2 -1 1 1 1 1 1 2 2 0 -0 -1 -2 -3 -3 -6 -7 -8 -9 -10 -10 -11 -11 -11 -9 -5 -3 -3 -1 -2 -5 -7 -9
5 3 3 5 4 4 3 2 0 -1 -1 -2 1 1 2 2 1 2 2 0 -1 -1 -3 -5 -5 -8 -8 -9 -10 -10 -10 -11 -12 -11 -10 -6 -5 -6 -5 -5 -3 -5 -5 -8
3 4 3 2 1 1 3 -1 -2 0 -0 -1 2 2 2 1 2 2 1 -0 -2 -3 -5 -7 -8 -9 -10 -11 -11 -11 -11 -12 -12 -11 -9 -8 -6 -7 -6 -4 -3 -5 -8 -10
4 3 2 4 4 1 1 -0 1 1 1 3 4 3 2 1 1 1 0 -2 -3 -6 -7 -9 -10 -12 -12 -12 -12 -12 -12 -12 -11 -9 -8 -8 -6 -6 -4 -4 -4 -8 -10 -10
4 2 2 3 1 1 1 0 -1 -0 3 4 3 3 2 1 1 1 -0 -2 -5 -7 -8 -9 -11 -12 -12 -12 -12 -12 -11 -10 -10 -9 -8 -7 -6 -5 -6 -7 -7 -10 -10 -11
2 1 2 4 0 2 2 -0 -1 3 2 4 4 3 3 2 2 2 -1 -5 -6 -8 -9 -10 -11 -11 -11 -11 -12 -11 -10 -9 -8 -8 -7 -8 -7 -6 -7 -7 -9 -10 -11 -11
2 2 4 3 2 3 -1 -0 1 2 4 4 3 3 3 2 2 0 -4 -5 -7 -8 -10 -11 -11 -11 -11 -11 -10 -10 -8 -8 -7 -7 -7 -6 -7 -6 -7 -7 -9 -10 -10 -10
3 3 3 3 2 -1 -0 -1 0 1 3 3 3 2 1 1 1 -3 -5 -7 -9 -9 -10 -10 -10 -10 -10 -10 -9 -8 -7 -7 -6 -7 -7 -6 -7 -8 -9 -9 -9 -9 -10 -9
1 1 2 3 2 1 1 2 2 3 3 3 2 1 -0 1 -3 -5 -6 -9 -9 -10 -10 -10 -11 -10 -10 -9 -8 -7 -6 -6 -7 -8 -8 -8 -8 -9 -8 -8 -9 -9 -9 -9
1 1 2 2 2 1 3 3 4 4 3 3 3 1 1 -4 -5 -8 -9 -10 -10 -11 -11 -11 -10 -9 -9 -7 -7 -7 -6 -6 -6 -6 -7 -9 -11 -10 -10 -9 -8 -8 -9 -10
2 2 2 2 2 3 4 4 4 3 2 2 2 -2 -4 -5 -9 -10 -10 -10 -11 -10 -10 -11 -12 -12 -9 -6 -7 -7 -5 -5 -5 -5 -8 -10 -11 -10 -8 -7 -7 -8 -9 -10

GFSCGP_850_dewp_012.txt.gz
Dewpoint
-4 -3 -4 -6 -6 -7 -6 -4 -4 -6 -7 -8 -4 -2 -2 -1 2 4 5 6 6 7 7 6 6 7 10 10 9 8 8 8 7 6 6 6 4 2 2 2 2 1 1 1
-4 -4 -6 -5 -3 -2 -2 -2 -2 -3 -5 -8 -4 -2 -2 -1 0 3 5 6 5 5 6 7 8 9 10 10 8 7 7 7 7 7 5 4 1 1 1 1 1 1 1 0
-2 -5 -6 -2 -2 -0 1 -0 -1 -2 -4 -6 -3 -2 -1 -1 0 2 4 5 5 5 5 4 5 6 6 7 5 4 3 3 3 1 1 0 -0 0 0 1 0 -0 -2 -2
-4 -2 -2 -1 -1 -1 2 -1 -1 -2 -2 -3 -5 1 -1 1 1 2 4 4 4 4 4 3 3 3 3 2 2 1 1 0 0 0 -0 0 1 1 1 0 -0 -1 -0 -0
-1 -1 -0 -1 -2 -2 0 -2 -1 -2 -0 0 -1 1 -0 0 2 2 2 4 3 2 2 2 2 2 2 2 1 1 1 2 2 2 1 1 1 1 1 0 0 0 -0 -0
-2 -2 -3 -2 -2 -3 -3 -0 2 1 2 4 3 3 3 2 1 1 1 3 2 2 1 1 2 2 2 2 2 3 3 3 3 2 2 2 2 1 1 1 0 0 0 -0
-0 -1 -2 -2 -0 -1 -1 3 5 6 6 6 3 4 4 1 1 2 2 1 2 2 1 1 2 1 2 2 2 3 3 2 3 3 2 2 2 1 0 0 0 1 1 -0
3 3 -1 -3 -2 -1 0 2 5 7 6 4 1 5 3 1 1 1 1 1 1 1 2 2 3 3 2 2 2 2 2 2 2 3 2 1 0 1 0 -0 1 -1 -2 -3
3 1 -2 -4 -4 -1 1 1 -0 4 3 4 4 2 -0 -1 -0 -0 -0 0 1 1 2 2 2 2 3 2 1 1 1 1 1 2 2 0 -4 -3 -2 -3 -3 -4 -3 -3
-0 1 -3 -4 -1 -2 -3 -2 4 3 3 3 2 4 4 2 1 -0 1 1 2 2 2 2 1 1 1 1 0 -0 -2 -2 -2 -3 -3 -3 -4 -3 -3 -2 -2 -3 -4 -3
1 1 0 1 -0 0 1 1 1 1 2 4 4 3 1 2 1 2 2 1 1 2 2 2 1 1 0 -1 -2 -3 -2 -3 -4 -5 -6 -6 -4 -4 -2 -1 -2 -2 -3 -4
-0 1 2 1 -2 -3 -2 0 1 2 3 3 3 1 1 1 1 2 1 1 1 2 2 2 0 -1 -2 -2 -3 -4 -4 -5 -7 -7 -6 -3 -2 -1 -2 -1 -1 -3 -3 -6
-0 1 4 4 3 0 0 -1 3 2 1 -0 1 1 1 2 2 1 1 2 2 2 1 1 -2 -6 -6 -3 -3 -4 -6 -8 -9 -9 -10 -10 -11 -11 -6 -2 -2 -3 -4 -4
2 2 1 4 2 -1 -3 -3 2 2 3 3 2 0 3 3 2 2 2 2 2 2 1 -1 -6 -5 -3 -4 -6 -7 -8 -9 -9 -10 -11 -12 -14 -11 -2 -3 -4 -3 -4 -6
2 3 2 -0 0 -2 -2 -2 -2 -1 1 2 1 2 3 3 2 2 2 2 1 1 -2 -6 -6 -4 -6 -7 -8 -9 -9 -10 -11 -11 -13 -14 -15 -10 -9 -9 -8 -3 -6 -6
3 4 1 1 2 3 -0 -0 0 -1 -2 -1 -1 4 2 2 2 2 2 1 0 -1 -6 -7 -7 -5 -8 -10 -10 -10 -11 -11 -12 -13 -13 -12 -12 -9 -9 -8 -4 -3 -6 -8
3 2 1 2 3 3 1 1 1 -1 -1 -1 0 2 2 2 2 2 1 0 -1 -4 -6 -7 -7 -9 -11 -11 -11 -12 -12 -12 -12 -11 -11 -11 -10 -9 -9 -7 -4 -3 -3 -5
3 3 0 0 -2 -3 0 -1 -1 -0 1 3 3 2 1 2 2 1 0 -0 -3 -4 -7 -8 -9 -11 -12 -12 -12 -12 -12 -11 -11 -11 -10 -10 -9 -8 -9 -5 -6 -5 -6 -7
2 0 2 -2 2 -3 -1 0 0 -1 1 3 3 2 1 2 1 -0 -0 -2 -4 -6 -8 -9 -10 -11 -12 -12 -11 -11 -12 -10 -10 -10 -9 -8 -8 -8 -8 -7 -6 -6 -7 -9
3 -0 -0 3 -3 -4 -3 0 -1 -1 3 3 3 3 2 1 1 0 -0 -0 -6 -7 -8 -10 -11 -11 -11 -11 -11 -11 -11 -10 -9 -8 -8 -7 -7 -7 -6 -7 -7 -8 -9 -10
2 -0 1 -1 -1 0 -1 -0 -1 2 0 4 3 3 2 1 -0 1 -0 -5 -6 -7 -9 -11 -10 -10 -10 -10 -10 -10 -10 -9 -8 -7 -6 -7 -7 -6 -7 -7 -7 -7 -8 -10
2 2 2 0 -1 2 -1 0 1 -0 3 3 3 3 2 2 2 -0 -2 -6 -7 -9 -9 -10 -10 -10 -11 -10 -10 -9 -8 -7 -6 -6 -6 -8 -7 -7 -8 -8 -8 -9 -9 -9
1 0 2 2 2 -2 -1 -1 -2 -0 2 3 3 2 2 -0 1 -0 -5 -7 -9 -9 -10 -10 -11 -11 -11 -10 -11 -8 -7 -6 -7 -6 -6 -7 -8 -8 -8 -8 -7 -8 -9 -9
1 1 2 2 1 1 -1 0 0 2 2 3 3 2 1 -0 1 -5 -8 -9 -9 -10 -10 -11 -12 -14 -15 -14 -11 -8 -8 -9 -8 -5 -5 -6 -8 -10 -10 -9 -8 -8 -8 -8
-0 2 2 1 1 3 2 2 2 3 3 3 2 2 1 -1 -6 -8 -9 -10 -10 -10 -11 -13 -17 -16 -14 -13 -12 -11 -11 -7 -5 -5 -5 -5 -9 -10 -11 -9 -7 -7 -8 -9
1 1 2 2 -0 0 1 2 3 3 3 3 3 -1 -5 -5 -8 -9 -10 -10 -11 -11 -15 -18 -16 -14 -13 -12 -13 -11 -8 -6 -6 -5 -5 -5 -7 -9 -10 -9 -8 -8 -8 -10

GFSCGP_850_dewp_015.txt.gz
Dewpoint
-5 -4 -4 -6 -6 -7 -6 -4 -5 -6 -7 -3 -1 -0 0 4 5 6 6 7 8 7 8 7 6 6 8 9 8 9 9 8 8 8 7 5 5 3 3 2 1 3 3 2
-4 -4 -5 -2 -2 -2 -3 -3 -2 -4 -5 -3 -0 0 1 2 5 6 6 7 9 10 9 9 10 11 11 10 8 8 9 9 7 6 6 6 3 1 1 1 2 2 1 -0
-3 -5 -4 -3 -1 -0 0 -1 -2 -3 -4 -3 -1 1 1 1 4 5 5 6 7 7 7 9 8 7 7 6 6 4 4 4 4 4 2 0 0 0 0 -0 -1 0 0 -1
-1 -1 -2 -2 -2 -1 1 -1 -2 -2 -3 1 -3 3 2 2 4 5 5 4 5 5 5 4 4 4 3 2 2 2 0 -0 0 0 -0 0 -0 0 1 1 1 0 0 0
-1 -1 -1 -1 -2 -2 -0 -2 -2 -2 -1 -1 -1 2 2 1 4 4 4 5 4 3 2 2 2 2 1 1 1 2 2 3 2 2 2 2 2 2 1 0 1 1 -0 -1
-1 -2 -3 -2 -2 -2 -3 1 2 3 2 4 3 2 3 2 2 2 3 4 3 2 2 3 2 2 2 2 2 3 3 3 2 2 2 2 2 2 1 1 0 0 0 -1
-1 -1 -2 -2 -0 -2 -0 2 5 6 5 6 2 4 3 1 1 2 3 4 3 3 3 3 3 3 3 3 3 3 2 2 2 2 2 2 1 -0 -3 -3 -4 -5 -3 -4
2 2 -2 -4 -2 -1 0 1 5 6 5 4 2 5 3 1 1 2 2 2 3 4 3 3 3 3 3 2 2 2 1 1 0 1 1 -1 -4 -6 -7 -4 -3 -3 -3 -2
2 1 -2 -4 -4 -1 -0 1 0 4 3 4 4 2 0 -0 2 2 2 2 3 3 3 3 2 2 2 1 1 -1 -3 -4 -3 -4 -5 -6 -6 -6 -3 -2 -3 -3 -2 -2
0 0 -2 -3 -2 -2 -2 -1 3 2 2 3 3 4 4 2 1 1 2 2 2 2 2 2 2 1 1 -0 -2 -6 -7 -6 -6 -8 -8 -7 -4 -1 -1 -2 -3 -2 -2 -3
1 -1 -1 -1 -0 0 0 0 1 2 2 3 4 4 1 1 2 2 2 2 2 2 1 1 1 1 -1 -4 -6 -5 -5 -5 -6 -7 -9 -9 -9 -6 -11 -12 -5 -2 -3 -3
0 1 2 0 -1 -1 -1 -0 -1 2 3 3 2 1 1 1 2 2 2 2 2 2 1 1 0 -3 -4 -5 -4 -4 -5 -6 -7 -8 -9 -10 -11 -14 -17 -13 -3 -3 -4 -5
-0 1 4 4 2 -1 -0 -0 2 0 -0 2 1 -0 0 1 2 2 2 2 2 1 0 -0 -3 -6 -5 -4 -5 -6 -7 -8 -9 -10 -11 -11 -13 -16 -15 -13 -12 -12 -10 -5
1 2 1 3 1 -1 -2 -1 1 0 2 1 1 -1 3 3 2 2 2 2 2 1 0 -3 -5 -5 -4 -6 -7 -8 -9 -9 -10 -11 -12 -13 -14 -12 -11 -11 -10 -12 -5 -2
1 2 1 1 1 -1 -2 -3 1 2 1 1 0 1 -0 3 2 2 2 2 1 0 -2 -6 -7 -6 -6 -7 -8 -9 -10 -11 -12 -12 -12 -12 -12 -10 -10 -9 -10 -8 -3 -3
2 3 -1 2 2 2 -1 -2 -2 -1 -2 1 -0 1 2 2 2 2 2 1 0 -0 -4 -6 -7 -7 -7 -8 -10 -11 -12 -12 -12 -12 -12 -11 -10 -9 -9 -8 -10 -7 -5 -4
2 1 -2 -2 2 0 -3 -1 1 -1 -1 -1 1 1 2 2 2 2 1 1 1 -2 -5 -7 -7 -8 -10 -11 -12 -12 -12 -11 -11 -11 -10 -10 -9 -8 -7 -8 -8 -7 -7 -6
2 1 -1 -1 -2 -4 -4 -2 -1 -1 0 2 2 2 2 2 2 2 1 1 -0 -2 -6 -7 -8 -10 -11 -12 -12 -11 -11 -11 -11 -11 -9 -8 -8 -7 -7 -8 -7 -6 -6 -7
1 -0 2 -1 0 -4 -5 -0 0 0 -0 2 2 1 1 2 2 1 1 -0 -2 -5 -7 -8 -10 -11 -11 -11 -11 -10 -10 -10 -10 -9 -9 -8 -7 -7 -7 -7 -7 -7 -7 -8
1 -2 -2 1 -4 -6 -6 -0 -1 -2 2 2 2 2 2 1 1 1 0 -1 -2 -6 -8 -9 -10 -11 -11 -10 -10 -10 -10 -10 -10 -9 -7 -6 -6 -8 -7 -7 -7 -7 -7 -7
1 -1 -1 -3 -3 -1 -3 -0 -1 1 -2 3 2 2 2 1 1 -0 1 -0 -5 -7 -8 -10 -10 -10 -10 -11 -11 -11 -12 -12 -9 -7 -7 -6 -7 -7 -8 -8 -8 -8 -8 -8
3 3 1 1 -0 -0 -3 -0 1 -0 -2 1 2 2 2 1 1 1 0 -6 -7 -8 -9 -10 -10 -10 -12 -13 -15 -16 -15 -10 -8 -8 -9 -6 -6 -6 -8 -8 -8 -8 -8 -9
1 -1 1 1 1 -2 -1 -1 -1 -2 -2 2 2 3 3 2 2 1 -1 -6 -8 -9 -9 -10 -10 -13 -16 -18 -17 -15 -13 -12 -12 -10 -7 -5 -5 -5 -9 -9 -8 -8 -9 -8
1 -1 1 1 -1 -0 -2 -1 -0 -1 -1 0 2 3 2 1 0 1 -3 -8 -9 -9 -10 -11 -13 -18 -19 -17 -16 -12 -12 -12 -10 -8 -6 -6 -5 -6 -9 -10 -9 -8 -8 -8
1 1 1 1 1 1 1 -0 -1 -0 1 2 3 3 2 0 1 -1 -7 -9 -10 -11 -12 -14 -18 -18 -16 -15 -13 -12 -12 -10 -8 -7 -6 -6 -5 -6 -8 -11 -8 -8 -8 -8
1 1 1 1 -2 0 -0 -0 1 1 2 3 3 2 1 2 -2 -8 -9 -10 -12 -13 -16 -18 -17 -16 -15 -14 -13 -12 -10 -9 -7 -6 -6 -6 -6 -7 -7 -8 -8 -8 -9 -9

GFSCGP_850_dewp_021.txt.gz
Dewpoint
-5 -4 -4 -4 -9 -9 -8 -7 -6 -5 -3 3 5 6 5 5 6 7 7 7 7 7 7 7 7 7 7 8 8 10 10 8 8 8 7 5 5 6 2 1 1 1 1 0
-3 -2 -3 -2 -3 -3 -4 -3 -1 -1 -0 3 4 6 6 5 5 6 7 8 8 9 10 9 8 8 9 9 10 10 9 8 6 5 5 5 1 0 0 1 1 0 1 1
-2 -3 -3 -2 -2 -1 -1 -1 -1 0 1 1 2 4 6 6 6 7 8 9 9 10 10 10 10 8 8 9 9 9 7 5 5 5 1 0 1 1 1 1 2 2 1 1
-0 -2 -3 -2 -0 -1 1 -2 -1 1 1 2 -1 -0 5 7 7 7 8 9 9 10 8 7 5 4 3 3 3 3 1 2 2 1 2 2 2 2 2 2 1 1 0 -2
-0 -1 -2 0 -1 -2 1 -2 -1 -2 -1 -0 0 2 4 6 8 8 7 7 8 9 6 4 3 2 2 1 1 1 1 2 2 2 2 2 2 2 2 1 -2 -5 -8 -9
-1 -3 -2 -2 -1 -2 0 1 2 2 1 2 2 1 3 7 7 6 5 6 6 6 3 2 2 1 1 1 1 2 2 3 2 2 2 1 1 -1 -5 -9 -8 -8 -9 -9
-1 -1 -3 -3 -0 -1 0 2 5 6 6 4 2 3 1 2 4 5 5 5 5 4 2 2 1 1 1 1 2 3 3 2 1 -1 -4 -10 -14 -14 -15 -14 -11 -8 -6 -8
0 1 -3 -3 -1 -0 1 2 7 5 7 5 1 5 2 1 1 5 4 4 3 3 2 2 2 2 2 2 3 3 2 -1 -5 -8 -11 -11 -11 -10 -8 -7 -6 -11 -15 -15
2 -0 -3 -3 -2 -1 1 1 1 4 3 5 3 2 1 2 1 4 4 4 4 3 2 2 3 3 3 3 2 -0 -3 -4 -7 -7 -10 -9 -9 -10 -11 -12 -14 -17 -17 -17
1 2 -2 -2 -2 -1 -0 -1 2 2 3 2 1 3 2 4 3 3 3 4 4 3 3 3 3 3 2 1 -2 1 2 1 -1 -9 -8 -9 -10 -11 -12 -14 -17 -15 -15 -16
-2 1 0 -2 0 1 1 1 1 1 1 1 2 -1 1 2 2 3 3 3 4 4 4 4 3 2 0 -2 0 1 -3 -4 -9 -8 -9 -10 -11 -12 -14 -17 -15 -12 -11 -13
-0 2 3 -1 -1 -0 -1 -0 0 2 1 2 2 -0 -3 1 2 2 3 3 3 3 4 3 2 0 -2 -2 -1 -5 -4 -7 -7 -8 -10 -11 -12 -13 -16 -13 -10 -9 -9 -11
1 2 4 2 -1 -1 0 0 -1 -0 1 3 7 -1 -3 2 1 1 2 2 2 3 3 2 1 -1 -2 -2 -4 -4 -5 -7 -8 -10 -11 -12 -12 -13 -12 -10 -9 -9 -10 -11
-1 1 1 2 -1 -0 1 2 -1 -0 3 1 2 -1 -3 2 2 2 2 1 2 2 2 1 0 -2 -4 -5 -4 -3 -7 -8 -10 -11 -12 -11 -11 -11 -10 -9 -9 -9 -9 -10
0 2 1 1 1 -0 -3 -0 0 -1 -1 2 -1 -1 -3 -1 1 1 2 2 2 2 1 1 -0 -3 -5 -5 -1 -6 -7 -9 -11 -12 -10 -11 -11 -10 -9 -8 -9 -9 -9 -8
1 3 -0 2 1 1 1 -1 -1 1 0 -1 -1 -0 -3 -3 1 2 2 2 2 1 1 0 -2 -4 -6 -1 -5 -6 -9 -11 -12 -11 -10 -11 -10 -11 -9 -9 -9 -9 -9 -8
1 2 1 1 0 -2 0 -1 -1 -1 -1 -0 1 -1 1 1 1 1 2 2 2 1 1 0 -3 -5 -4 -2 -7 -9 -11 -12 -11 -10 -12 -12 -14 -11 -9 -9 -10 -9 -8 -8
1 -1 -2 1 -1 -0 -4 -2 -2 -1 -2 -2 -2 -2 -0 1 1 1 1 2 2 2 1 -0 -4 -5 -2 -8 -10 -11 -11 -11 -10 -14 -15 -17 -13 -10 -10 -10 -9 -8 -9 -9
-1 -0 1 3 0 -3 -7 -5 -1 1 -2 -2 -2 -1 1 2 2 2 2 1 2 2 1 -1 -4 -6 -8 -10 -11 -11 -10 -11 -15 -18 -17 -14 -11 -12 -12 -8 -7 -7 -9 -8
-1 -2 2 0 -0 -0 -4 -7 -2 -2 3 -2 -1 1 2 2 4 2 0 2 2 1 0 -2 -6 -7 -9 -11 -11 -10 -12 -18 -20 -18 -15 -14 -13 -14 -12 -6 -6 -7 -9 -8
4 3 3 -1 3 -0 -4 -4 -2 1 1 -4 -0 -0 1 2 1 -2 -1 1 2 1 -2 -5 -7 -10 -11 -10 -10 -13 -19 -20 -18 -15 -15 -14 -15 -14 -11 -7 -6 -7 -10 -9
3 4 4 0 1 2 -5 -0 2 -0 -3 -5 -1 -1 -1 -3 -2 0 0 1 1 -1 -2 -6 -7 -10 -10 -10 -14 -20 -20 -17 -16 -15 -14 -15 -14 -12 -9 -6 -7 -7 -9 -9
2 2 3 1 2 -4 -4 -1 -3 -2 -2 -4 -2 -2 -1 -1 -1 0 0 0 -0 -2 -7 -4 -6 -10 -11 -16 -20 -19 -17 -16 -16 -15 -15 -15 -12 -11 -7 -6 -6 -6 -9 -8
1 -1 2 0 -2 -2 -3 -4 -4 -4 -3 -3 -2 -1 -0 0 1 1 1 -0 -4 -4 -2 -4 -9 -12 -17 -19 -18 -17 -16 -15 -15 -15 -14 -11 -9 -8 -6 -7 -6 -7 -10 -10
1 0 1 1 -0 -2 -4 -4 -4 -3 -2 -2 -1 -0 -0 1 2 1 0 -6 -2 0 -4 -10 -12 -17 -19 -19 -18 -16 -15 -15 -14 -14 -11 -9 -9 -7 -7 -7 -7 -7 -9 -9
0 1 3 3 -4 -3 -3 -3 -1 -0 -0 0 1 1 2 3 3 2 -4 -0 0 -7 -10 -14 -16 -19 -18 -17 -16 -15 -14 -14 -13 -11 -9 -9 -8 -8 -8 -7 -7 -8 -9 -9

GFSCGP_850_dewp_027.txt.gz
Dewpoint
-3 -4 -3 -6 -6 -7 -9 -7 -12 -8 -5 -9 -11 -6 -4 -1 -1 1 2 4 5 6 8 9 9 9 9 11 11 12 12 9 9 9 9 9 8 7 6 6 5 3 3 2
-4 -2 -4 -5 -8 -7 -9 -9 -7 -7 -7 -4 -7 -6 -2 0 0 1 1 3 4 6 9 9 10 10 10 11 11 11 11 10 10 10 9 8 7 6 5 4 3 3 2 2
3 -2 -4 -5 -8 -8 -8 -8 -6 -6 -5 -6 -4 -2 1 1 2 3 3 3 4 6 8 9 10 11 11 11 11 11 10 10 10 8 7 7 6 5 4 4 4 3 2 2
1 -3 -4 -6 -6 -6 -4 -4 -5 -4 -2 -3 -4 -4 -1 2 2 3 5 5 6 7 8 9 10 11 11 11 10 10 10 9 7 6 5 5 4 4 4 4 3 2 2 1
1 -3 -3 -4 -3 -3 1 -4 -3 -3 -3 -0 -2 -4 5 2 2 3 3 4 7 7 8 9 9 10 11 10 10 9 7 6 6 5 5 5 4 4 3 1 0 -2 -1 -2
1 -3 -3 -2 -2 -3 -3 -2 -2 -2 -4 -0 -6 -4 -3 2 1 2 4 6 7 8 7 7 7 8 9 10 7 7 5 5 5 5 5 4 2 -1 -3 -2 -3 -4 -4 -4
-3 -3 -3 -3 -2 -2 -3 -2 2 2 1 1 -2 -2 -5 -9 -1 1 5 6 7 6 4 4 5 6 7 7 6 5 4 4 4 3 1 -0 -4 -2 1 -2 -4 -5 -7 -7
-2 1 -2 -3 -2 -3 -2 -3 1 1 -0 -3 -1 -3 -5 -3 -2 0 5 6 7 5 3 3 3 3 4 5 5 4 4 4 3 0 -1 -1 -2 -2 -4 -5 -6 -6 -7 -8
-2 -1 -3 -3 -3 -4 -2 -1 -2 1 5 3 -5 -9 -2 -1 -1 1 4 5 5 4 3 3 2 3 4 4 4 4 4 2 -0 -0 1 -6 -8 -8 -7 -6 -5 -7 -7 -8
-3 -0 -3 -2 -2 -2 -1 -3 -0 -1 2 1 -6 -6 -5 0 -1 1 3 4 4 3 3 2 2 3 4 4 4 4 3 -0 1 -2 -4 -8 -9 -5 -6 -5 -6 -7 -7 -6
-4 -3 0 -1 -1 -4 0 -1 -2 -2 1 2 -3 -6 -7 -6 -2 -0 2 3 3 3 3 3 3 4 4 4 4 3 2 1 -0 -2 -2 -4 -4 -6 -6 -5 -6 -7 -6 -5
-3 -3 1 0 -1 -2 -2 -2 -1 1 -1 0 3 -2 -6 -5 -5 -2 -0 2 2 3 2 3 4 4 4 4 4 3 2 -0 -2 0 -2 -3 -5 -7 -6 -6 -7 -6 -5 -5
-0 -2 1 1 0 -1 -2 -4 -3 -3 -0 -0 6 -3 -6 -5 -5 -5 -3 -0 2 2 2 3 4 4 4 4 2 2 1 -1 1 0 -2 -6 -7 -6 -6 -6 -7 -6 -5 -5
-1 -1 -0 2 -1 -2 0 -2 -3 -2 1 -1 -4 -7 -7 -6 -5 -6 -4 -3 -0 1 2 3 3 4 3 3 2 1 -1 -0 1 -2 -5 -8 -8 -6 -6 -7 -7 -6 -5 -5
1 2 -0 -2 -2 -2 -3 -4 -3 -3 -4 -1 -3 -8 -13 -12 -11 -9 -7 -4 -3 0 2 3 4 4 3 2 2 -0 -1 1 1 -3 -6 -8 -7 -6 -6 -7 -6 -5 -5 -6
1 1 2 3 -0 -1 -1 -3 -5 -5 -6 -7 -7 -7 -9 -7 -9 -7 -6 -4 -3 -2 1 3 3 3 3 2 1 -2 -1 -1 -1 -4 -6 -7 -7 -6 -8 -8 -6 -5 -7 -7
3 2 2 0 -1 -1 5 1 -2 -5 -6 -4 -2 -5 -9 -7 -5 -5 -6 -4 -2 -1 0 1 2 3 2 2 1 -2 -2 -0 -3 -6 -7 -7 -7 -7 -8 -8 -8 -8 -7 -6
4 3 4 4 4 8 -7 -7 -7 -5 -6 -8 -8 -8 -9 -9 -5 -3 -3 -3 -3 -1 -1 0 2 2 2 1 -1 -2 -1 -4 -5 -7 -7 -7 -8 -9 -8 -8 -8 -8 -7 -6
-0 2 5 9 1 -4 -7 -10 -6 -5 -6 -8 -7 -8 -8 -5 -2 -3 -3 -3 -3 -3 -1 0 1 2 1 -0 -1 -2 -4 -7 -7 -7 -8 -9 -10 -8 -8 -8 -9 -8 -7 -7
-1 0 2 3 9 9 -1 -5 -4 -4 -2 -7 -6 -6 -6 -4 -2 -5 -2 -2 -2 -1 0 1 1 1 0 -1 -3 -5 -6 -6 -6 -8 -9 -10 -9 -9 -9 -8 -8 -7 -6 -7
6 7 8 5 8 3 -4 -5 -3 -0 1 -3 -4 -4 -3 -3 -5 1 -0 -2 -0 -0 1 1 2 0 -1 -4 -5 -6 -5 -4 -7 -9 -19 -19 -10 -9 -8 -8 -7 -6 -6 -6
5 7 8 7 8 7 -5 -3 -0 0 -4 -4 -2 -2 -1 0 -0 -0 1 0 0 1 1 0 -1 -3 -6 -7 -3 -2 -4 -7 -10 -19 -16 -9 -8 -7 -7 -7 -6 -6 -6 -5
3 2 3 2 2 -2 -4 -5 -4 -2 -2 -2 -2 -1 -1 -1 -1 -0 -0 1 1 1 -1 -3 -5 -6 -4 -3 -3 -3 -8 -12 -14 -15 -8 -7 -7 -6 -6 -6 -7 -7 -6 -5
0 -1 1 1 -5 -5 -5 -4 -3 -2 -2 -1 -1 0 0 1 1 1 1 1 -0 -3 -6 -5 -3 -2 -1 -2 -5 -8 -14 -10 -15 -7 -7 -7 -6 -6 -6 -6 -7 -7 -6 -6
1 -0 -0 0 -2 -4 -3 -2 -1 1 1 2 2 2 3 3 3 2 2 -1 -4 -4 -3 -2 -1 -2 -4 -5 -8 -9 -11 -17 -12 -8 -7 -7 -7 -6 -6 -7 -7 -6 -6 -6
-0 -0 3 3 1 2 1 2 3 3 3 2 2 2 2 2 2 1 -2 -4 -3 -2 -1 -3 -4 -4 -6 -6 -9 -16 -15 -14 -14 -13 -12 -9 -6 -6 -6 -6 -6 -6 -6 -7

GFSCGP_850_dewp_030.txt.gz
Dewpoint
-2 -2 -2 2 -2 -5 -5 -6 -6 -9 -10 -8 -4 -6 -7 -5 -3 2 3 4 5 5 6 6 5 4 5 10 11 11 11 9 8 8 8 8 6 6 7 6 5 4 2 2
-1 -0 -3 -0 -4 -4 -5 -5 -6 -9 -8 -7 -10 -8 -7 -5 -3 -0 2 3 5 6 7 9 8 8 10 11 11 11 11 11 9 10 9 8 8 6 6 5 3 3 3 3
3 1 -1 -2 -5 -5 -6 -6 -3 -6 -10 -13 -8 -9 -4 -4 -3 -3 -1 1 3 5 9 9 9 10 10 11 11 10 11 10 10 10 8 8 7 6 5 3 3 3 3 2
2 -2 -2 -5 -5 -7 -2 -3 -4 -4 -4 -3 -3 -1 4 2 -1 -0 -0 0 2 4 8 9 9 11 12 12 10 10 10 10 9 8 7 7 6 4 4 4 4 3 1 -2
2 0 -1 -2 -2 -3 -1 -1 -2 -6 -5 4 2 3 2 4 3 2 2 3 3 4 7 8 10 10 10 10 10 11 10 8 8 6 6 5 5 4 4 3 2 -2 -2 -2
-1 -3 -0 4 -0 -3 -2 -1 -3 -4 -3 7 1 5 2 2 2 4 1 3 4 7 7 8 10 10 10 9 10 9 8 7 7 6 5 5 5 3 1 -1 -1 -2 -3 -3
-3 -3 -4 -1 -3 -5 -5 -3 4 9 9 7 -3 -2 -0 1 3 8 6 3 6 6 7 8 9 10 9 9 9 8 6 6 5 5 5 5 4 1 -3 1 -2 -3 -4 -6
-0 0 -4 -4 -4 3 -2 -4 6 9 10 5 -3 -2 -2 -3 -3 1 4 5 7 7 7 7 7 8 9 8 7 6 5 5 5 4 2 1 -1 -1 -1 -2 -3 -5 -6 -6
3 4 -1 -4 -5 -5 -3 -1 -3 -1 6 9 -2 -8 -3 -3 -3 0 4 5 6 5 4 5 5 6 7 7 6 5 4 4 4 1 -0 -1 -0 -3 -5 -4 -1 -7 -6 -8
7 8 3 -3 -4 -4 -3 -5 1 -1 3 3 -4 -5 1 0 -2 -1 4 5 6 5 3 3 3 4 5 5 5 4 4 4 2 -0 1 -1 -3 -4 -2 -6 -5 -5 -6 -6
-1 5 0 -2 -2 -6 -1 -1 -3 -5 2 7 7 -1 -6 -5 -4 -1 1 4 5 5 4 3 3 3 4 5 5 4 4 3 1 1 0 -2 -1 -2 -4 -4 -5 -5 -6 -6
-4 -2 2 -1 -4 -4 -3 -1 -2 8 2 4 8 3 -6 -6 -5 -3 -2 1 3 4 4 3 3 3 4 5 5 5 5 2 1 0 -0 -1 -2 -2 -5 -6 -5 -6 -7 -6
-1 -0 3 -1 -1 -2 -2 -4 -5 -2 3 4 10 3 -6 -7 -8 -7 -5 -2 1 3 3 3 3 3 4 4 4 5 3 2 1 -1 -1 -1 -2 -5 -6 -6 -6 -6 -7 -6
1 -1 -2 4 -1 -2 1 -2 -5 -3 8 3 2 -4 -7 -6 -6 -7 -6 -5 -3 1 2 2 3 3 4 4 4 4 3 2 0 -1 -0 -3 -3 -4 -6 -6 -5 -7 -6 -6
0 0 -2 -4 -3 -2 -1 -3 -4 -4 -2 2 1 -5 -7 -9 -6 -8 -8 -6 -5 -4 -0 1 2 3 4 4 4 4 3 2 -0 -1 -1 -4 -4 -7 -4 -5 -6 -7 -6 -5
1 3 2 3 0 -1 -0 -2 -3 -5 -6 -5 -6 -6 -9 -9 -6 -6 -7 -7 -6 -4 -4 -1 1 3 4 4 4 3 2 0 0 -0 -2 -5 -2 -5 -6 -6 -7 -8 -6 -6
3 5 6 6 0 -0 4 1 -2 -4 -5 -5 -2 -3 -6 -7 -8 -5 -5 -5 -5 -3 -3 -3 -0 1 3 3 4 2 2 -1 -0 -1 -3 -3 -5 -6 -6 -7 -8 -8 -8 -8
4 5 8 9 4 6 -4 -7 -8 -6 -7 -8 -9 -7 -8 -4 -5 -6 -6 -5 -3 -4 -3 -2 -2 -0 1 3 3 2 0 -1 -1 -1 -4 -4 -6 -7 -8 -8 -10 -9 -8 -8
1 5 8 10 5 -1 -4 -7 -6 -5 -5 -7 -6 -7 -7 -6 -5 -5 -3 -3 -3 -3 -3 -4 -2 -0 1 2 2 1 -1 -1 -2 -3 -4 -4 -5 -8 -8 -9 -8 -8 -7 -7
-2 3 8 7 9 9 0 -5 -6 -6 0 -5 -5 -4 -5 -5 3 -0 -0 -1 -2 -2 -2 -1 -1 0 2 2 0 -1 -1 -4 -4 -4 -4 -6 -4 -11 -12 -9 -8 -6 -6 -6
7 8 8 7 9 6 -3 -5 -4 2 5 -3 -3 -3 -3 -0 -1 -0 -0 0 -0 -1 -0 1 1 1 1 -0 -2 -4 -6 -5 -2 -3 -4 -7 -6 -12 -8 -6 -6 -6 -6 -6
7 9 8 9 9 8 -5 -4 -0 2 -2 -3 -2 -2 -1 -1 -1 -1 -1 -1 1 0 1 0 -1 -2 -4 -5 -5 -3 -3 -2 -3 -6 -5 -7 -12 -10 -5 -5 -6 -6 -7 -6
5 4 8 6 7 -0 -6 -4 -5 -3 -2 -2 -1 -1 -0 0 1 1 1 1 1 0 -2 -4 -4 -4 -4 -4 -3 -3 -3 -4 -5 -6 -11 -13 -11 -6 -6 -6 -6 -7 -7 -6
-0 -0 4 3 -4 -4 -4 -4 -3 -1 1 1 1 2 2 3 3 3 2 1 -1 -4 -5 -4 -3 -4 -3 -2 -2 -3 -5 -4 -7 -11 -13 -8 -6 -6 -6 -9 -7 -6 -7 -6
2 0 0 0 -1 -1 -1 2 3 3 3 3 3 3 2 2 3 2 -2 -3 -4 -2 -3 -3 -3 -2 -3 -3 -3 -3 -5 -8 -12 -11 -12 -11 -11 -12 -11 -6 -6 -6 -6 -6
1 1 7 6 3 3 3 2 2 2 2 1 1 0 -0 -1 -1 -2 -2 -2 -3 -3 -3 -2 -2 -2 -2 -3 -5 -6 -7 -10 -12 -14 -14 -13 -12 -10 -8 -6 -6 -7 -7 -7

GFSCGP_850_dewp_033.txt.gz
Dewpoint
1 1 1 1 1 -1 -1 -3 -3 -5 -9 -1 -1 -3 -4 -3 3 4 4 4 4 3 3 4 5 7 8 9 9 7 7 9 8 6 4 5 7 6 6 6 6 4 3 2
3 4 -0 -1 0 1 -0 -2 -2 -5 -8 -5 -4 -4 -5 -5 -0 3 4 6 5 4 4 4 4 6 8 9 10 9 8 9 10 6 6 8 8 6 6 6 5 3 2 1
3 3 0 -1 -0 0 0 2 -2 -5 -9 -9 -10 -6 -2 -4 -3 3 4 4 5 5 6 5 7 7 10 10 11 10 10 8 9 8 9 9 7 6 6 5 2 2 2 2
2 1 1 -0 0 -1 -1 -0 0 -2 -4 -3 -2 3 4 2 1 -1 2 4 5 5 7 7 8 10 11 11 11 11 10 9 9 9 10 8 7 6 5 3 4 3 3 -2
2 2 2 3 1 -1 1 -1 -1 -0 0 2 1 2 1 3 -1 1 1 1 5 6 7 9 9 10 11 11 11 11 10 10 9 8 8 8 7 6 4 4 4 3 -1 -1
-1 -1 1 2 0 0 -1 -2 0 2 3 5 1 2 4 5 2 2 0 2 3 8 9 9 9 10 10 11 10 10 10 9 8 9 8 7 6 6 4 4 3 -1 -2 -2
0 -0 -0 1 1 0 -1 0 5 6 8 7 2 4 2 2 1 3 3 1 4 7 9 9 9 10 10 10 9 10 10 9 8 6 6 6 5 5 4 3 -1 -1 -2 -3
2 4 2 -1 1 1 -1 0 6 9 9 7 4 5 2 -1 -1 1 2 0 4 6 7 8 9 10 9 9 9 9 9 8 7 6 5 5 4 3 2 -1 -1 -0 -1 -3
4 4 2 1 1 -1 1 2 1 7 7 7 3 -4 -1 -2 2 5 4 3 6 6 8 9 9 9 9 8 9 9 8 6 6 6 5 5 5 3 -1 -1 -1 1 -1 -6
5 5 3 2 1 -3 -3 -3 2 3 3 3 1 0 3 1 5 4 5 7 7 7 7 7 8 9 9 9 8 7 6 5 5 5 5 4 2 -0 -2 -4 -4 -4 -8 -8
4 6 6 4 2 -1 -0 -0 -1 -0 4 5 6 2 -5 -1 -1 4 5 6 6 6 5 6 6 6 7 8 7 6 5 4 4 4 3 1 0 -2 -6 -4 -4 -5 -4 -5
4 6 8 6 -0 -3 -3 -0 3 4 1 4 5 3 -6 -6 -2 -2 2 5 6 6 4 4 4 4 4 5 5 5 4 4 4 3 1 0 1 -3 -2 -3 -4 -2 -5 -6
2 2 3 1 0 0 -1 -2 -3 1 4 3 3 2 -6 -7 -8 -4 -2 -1 5 5 5 3 3 3 3 4 4 5 5 4 4 2 1 1 -0 -1 -3 -3 -2 -4 -6 -6
1 1 1 3 1 0 1 -1 -2 -1 4 2 2 1 -3 -5 -6 -6 -6 -5 1 4 4 4 3 3 3 3 4 5 5 5 4 1 1 0 -0 -2 -2 -1 -4 -4 -4 -6
1 2 -1 -1 0 -0 -0 0 -0 -2 1 2 1 0 -2 -6 -6 -6 -5 -5 -5 -4 1 4 3 3 3 4 4 5 5 5 4 2 1 0 -2 -2 -0 -3 -3 -2 -5 -7
1 4 1 3 2 0 0 -0 -1 -1 -2 -3 -2 -1 -5 -6 -6 -6 -6 -6 -5 -4 -4 -3 1 3 3 4 4 5 5 4 4 3 0 -0 -2 0 -2 -3 -1 -5 -10 -10
3 4 4 4 1 -1 0 -2 -2 -1 -2 -3 -2 -3 -3 -4 -4 -5 -5 -5 -3 -3 -2 -2 -2 -0 4 4 4 5 5 4 3 1 0 -2 -2 -0 -3 -2 -3 -6 -10 -9
5 5 4 4 2 -1 -1 -6 -7 -6 -5 -5 -5 -5 -4 -5 -2 -3 -3 -3 -3 -4 -4 -4 -3 -2 -1 1 5 5 4 3 1 0 -2 -2 -3 -3 -4 -3 -7 -9 -10 -10
5 4 5 3 4 1 -1 -4 -3 -4 -2 -4 -3 -3 -4 -5 -3 0 -1 -2 -2 -2 -2 -2 -2 -0 1 2 4 4 2 -0 -1 -2 -3 -3 -4 -4 -3 -5 -8 -9 -9 -7
3 4 2 4 4 1 2 -5 -5 -6 1 -2 -2 -1 -2 -2 1 2 0 -0 -1 -1 -0 -0 -0 1 2 2 2 0 -1 -1 -3 -3 -3 -3 -2 -4 -5 -5 -8 -9 -6 -8
4 3 3 3 3 4 2 -4 -5 -1 1 -2 -2 -1 -1 0 0 -1 -1 -0 0 1 1 1 1 1 -0 -0 -0 -1 -3 -4 -3 -2 -2 -2 -2 -4 -9 -10 -7 -5 -6 -7
4 6 4 5 6 5 -2 -3 -2 2 -2 -2 -2 -0 0 0 1 1 1 1 1 1 0 0 0 -1 -3 -3 -3 -4 -5 -3 -2 -2 -1 -2 -6 -8 -10 -10 -8 -6 -6 -6
5 6 5 5 5 2 -4 -4 -3 -3 0 1 2 2 2 3 3 3 2 0 -1 -1 -1 -2 -1 -2 -3 -3 -3 -3 -3 -1 -0 -1 -5 -7 -9 -11 -13 -8 -6 -6 -6 -7
1 1 3 2 -0 -1 -2 2 2 1 2 3 3 3 3 3 3 1 -0 -2 -3 -4 -4 -4 -4 -4 -4 -3 -1 -1 -2 -2 -4 -7 -9 -11 -14 -12 -8 -7 -8 -9 -7 -6
3 1 1 1 1 4 3 3 3 3 2 2 2 2 1 1 -1 -1 -2 -3 -3 -3 -4 -4 -3 -2 -2 -3 -2 -4 -5 -8 -10 -12 -15 -15 -14 -14 -13 -12 -10 -8 -6 -6
1 2 2 3 4 3 2 2 2 2 1 1 1 0 -1 -1 -1 -2 -2 -3 -3 -3 -2 -2 -2 -2 -3 -6 -7 -8 -10 -13 -14 -14 -14 -14 -13 -12 -10 -9 -9 -7 -7 -9

GFSCGP_850_dewp_036.txt.gz
Dewpoint
1 1 1 1 -0 -0 -0 1 1 -4 -6 1 1 -2 -2 5 7 9 7 5 7 9 9 9 9 9 10 10 7 2 3 5 7 7 7 8 5 3 6 6 6 6 5 4
1 2 1 -0 -1 -0 0 1 0 -3 -5 -0 -0 -2 -4 2 5 7 5 4 6 8 9 9 10 10 9 9 6 4 1 4 7 8 6 5 3 5 6 6 6 5 2 -0
2 1 0 1 -1 0 0 1 -0 0 -4 -9 -5 -2 -1 -4 2 4 4 3 3 5 7 7 8 9 9 8 8 8 7 7 8 9 7 4 5 8 7 6 6 4 2 1
1 -0 1 1 1 -0 1 -1 -2 0 -3 -5 -4 2 1 1 -1 3 4 5 4 3 4 5 6 8 8 8 9 9 9 9 9 9 7 6 7 8 7 6 5 2 2 2
-1 1 1 1 1 -0 1 -1 -0 -1 0 1 0 -0 -1 2 -1 1 2 5 6 5 4 4 4 5 7 8 8 9 10 10 9 9 9 7 9 8 6 6 4 3 3 2
-2 -1 0 1 0 0 0 -0 1 3 3 3 3 1 1 3 -0 -2 -2 2 5 6 7 6 6 8 8 9 9 10 11 10 10 10 9 9 8 7 6 5 4 4 2 -0
0 1 -0 1 1 0 0 1 4 4 6 5 4 3 1 -1 0 0 -1 2 3 5 8 8 8 9 10 10 10 11 10 10 10 9 9 8 8 7 6 5 5 3 1 -1
2 3 0 1 1 2 2 0 5 5 6 4 4 5 3 -1 -2 -0 0 1 4 6 8 8 8 9 10 10 11 10 10 10 9 8 8 8 8 7 6 5 4 0 -1 -1
4 4 2 1 2 1 1 2 1 6 6 6 4 -1 -1 0 1 3 4 3 7 8 9 9 9 9 10 11 10 10 10 10 9 9 8 7 7 5 4 2 0 -1 -3 -3
3 4 2 2 0 -0 -0 -2 2 3 5 6 1 1 2 2 3 5 4 4 5 7 8 8 9 10 10 9 8 9 9 10 9 8 6 6 4 3 2 -0 -1 -2 -2 -3
3 1 3 3 3 2 -1 -1 -1 1 3 4 5 1 -5 1 4 4 4 2 5 7 7 8 8 9 9 8 8 7 8 8 8 7 6 6 5 4 2 -1 -2 -4 -5 -4
3 5 6 3 1 0 -2 0 1 3 0 4 4 2 -3 -3 -0 4 5 4 6 6 7 6 7 7 7 7 7 8 8 8 7 6 5 5 4 3 1 -2 -5 -1 -2 -1
3 4 4 2 -1 1 0 -2 -1 2 2 2 3 2 -4 -6 -6 -0 5 5 6 7 7 7 7 7 7 6 5 6 7 6 6 5 5 4 3 2 -0 -2 -1 1 -0 -4
-0 1 2 3 -1 -0 1 0 -0 -0 3 2 3 1 -2 -4 -5 -7 -3 -0 5 6 6 6 6 6 6 5 4 6 6 5 5 4 4 4 3 1 -0 -1 -1 1 -5 -3
0 1 -1 -1 -1 1 0 0 1 -1 -0 1 -1 0 -2 -5 -5 -6 -6 -5 -1 5 6 5 4 4 4 5 5 6 5 5 5 4 3 2 1 -1 -2 -1 -0 -4 -2 -4
1 1 1 1 1 -1 -0 -1 -2 -1 -1 0 -1 -1 -4 -5 -4 -4 -4 -4 -3 -2 -2 -2 -0 3 3 3 4 4 5 5 5 4 2 1 -1 -2 -1 -1 -1 -1 -3 -1
2 4 3 3 -0 -1 1 -1 -2 -2 -1 -2 -2 -3 -4 -4 -5 -5 -3 -3 -3 -3 -3 -2 -2 -0 2 3 3 4 4 5 5 3 1 0 -2 -2 -1 0 -2 -2 -2 -3
4 4 2 3 0 1 0 -3 -3 -2 -3 -4 -3 -4 -2 -1 -1 -2 -2 -2 -2 -2 -3 -3 -3 -3 -1 2 4 5 5 5 3 1 0 -1 -2 -1 -2 -2 -2 -2 -2 -4
4 3 4 2 3 1 -1 -4 -5 -3 -2 -3 -3 -3 -3 0 0 0 -0 -1 -1 -1 -1 -2 -2 -2 -2 -1 3 5 5 4 1 0 -1 -2 -2 -3 -2 -2 -2 -1 -7 -9
3 3 3 4 2 1 -0 -4 -5 -3 1 -2 -1 -1 -1 -2 2 1 1 0 -0 -0 -0 -1 -0 0 1 1 3 4 3 2 0 -2 -3 -3 -3 -2 -0 -1 -5 -9 -8 -8
3 3 2 1 1 1 -1 -3 -4 -3 -2 -1 -2 -1 -1 0 0 1 0 0 0 0 0 0 1 1 1 1 2 2 -0 -1 -3 -3 -3 -2 -0 -0 -4 -8 -9 -9 -9 -8
3 4 2 4 3 2 -0 -3 -2 -1 -1 -1 -0 0 1 2 2 1 1 0 0 0 -0 -0 -0 -1 -1 -1 -1 -1 -0 -1 -2 -2 -0 -0 -3 -7 -8 -9 -11 -14 -11 -8
3 2 3 3 3 0 -3 -2 -1 -2 0 2 1 2 2 2 1 0 -0 -1 -1 -1 -2 -2 -2 -3 -3 -3 -3 -3 -3 -1 0 -0 -2 -6 -8 -9 -11 -14 -13 -13 -12 -9
1 3 4 3 3 4 3 1 1 1 1 2 2 3 3 2 0 -1 -2 -2 -3 -3 -4 -4 -4 -3 -3 -2 -2 -2 -2 -3 -6 -8 -10 -11 -14 -16 -16 -15 -14 -13 -13 -11
2 1 2 4 4 3 3 2 2 2 2 2 2 2 1 1 -1 -1 -2 -3 -3 -3 -3 -2 -2 -3 -3 -3 -6 -8 -9 -11 -14 -16 -16 -16 -15 -15 -14 -14 -13 -12 -12 -10
1 2 2 2 3 3 3 2 2 2 1 1 1 -0 -1 -1 -2 -2 -3 -3 -3 -2 -2 -3 -4 -6 -7 -9 -10 -11 -11 -13 -14 -14 -13 -13 -13 -12 -11 -10 -10 -9 -9 -9

GFSCGP_850_dewp_039.txt.gz
Dewpoint
1 1 1 0 -1 -1 -0 1 1 -2 -5 1 1 -2 4 6 9 10 10 10 10 9 8 8 5 4 4 7 8 9 9 8 7 7 8 9 11 10 8 4 6 6 6 7
0 1 0 -0 -0 -0 -0 0 0 -2 -3 -0 -0 -0 -3 5 8 9 10 10 10 9 9 9 6 6 6 8 8 9 8 8 7 7 8 10 10 8 5 6 6 6 6 6
1 -0 0 -0 -1 -0 -0 0 0 -0 -2 -6 -2 -1 -3 -1 5 8 8 9 8 9 9 9 8 7 8 8 8 7 3 5 6 6 9 9 8 6 6 6 6 6 5 3
1 -1 0 1 0 -1 0 -1 -0 0 -1 -5 -4 -0 1 -1 3 5 6 7 5 7 9 8 8 8 9 8 8 8 5 3 4 7 9 8 8 5 4 6 7 6 4 2
-1 2 2 1 -0 -1 0 -0 1 -0 -0 0 -0 -1 -2 1 1 3 4 5 5 6 8 8 8 7 7 9 9 8 6 5 4 6 9 9 8 6 7 8 7 6 4 3
-2 -1 -1 -1 -1 -0 -1 -1 1 2 3 3 2 0 0 1 0 -1 1 4 5 5 6 7 8 9 9 9 9 8 8 7 7 9 10 10 8 7 7 8 6 5 3 3
0 0 -0 1 -0 0 -0 1 4 4 5 4 2 3 1 -2 -2 -1 -0 3 5 5 5 6 7 8 8 8 8 8 8 9 10 10 10 10 9 8 8 7 6 5 4 4
2 1 0 0 0 1 1 1 3 4 5 3 4 6 2 -1 -1 -1 -1 -2 1 5 5 5 5 5 6 7 7 8 9 9 10 10 10 10 10 9 8 7 6 6 4 3
3 2 2 1 1 -0 1 2 0 5 5 6 3 2 -3 -1 2 4 2 2 4 4 6 6 6 7 7 7 8 9 10 10 10 10 10 9 9 9 7 8 7 5 4 1
1 -0 1 2 1 0 -0 -1 2 3 4 6 2 1 1 0 0 4 4 5 4 6 7 7 7 8 8 9 9 10 10 10 10 10 9 9 8 8 7 8 6 5 0 -1
2 -1 0 2 2 1 -0 -0 -1 1 2 3 5 3 -4 -1 -0 3 2 2 5 6 7 7 8 8 8 9 10 10 9 8 9 9 8 8 8 7 7 6 4 3 1 2
1 1 2 2 1 -1 -2 -0 -0 3 1 3 4 2 -4 -4 -2 2 2 2 2 4 3 4 6 7 7 9 10 9 8 7 7 7 8 8 7 6 5 4 3 1 1 -3
3 3 3 2 -0 -0 1 -0 1 2 1 3 3 2 -4 -5 -6 -3 2 2 3 4 5 6 7 6 6 8 9 8 8 8 7 6 6 7 6 6 4 2 -2 -3 -4 -4
-0 2 1 3 1 -0 1 0 -0 1 4 2 2 -0 -2 -4 -4 -5 -6 0 3 5 6 6 7 7 7 8 8 8 7 8 6 6 7 6 5 4 2 -0 -1 -3 -2 -0
0 1 -0 -1 -2 -0 -0 0 1 0 -0 1 -0 1 -1 -4 -5 -6 -6 -4 -1 1 6 6 7 7 8 8 9 8 7 6 6 6 6 6 5 3 0 -1 -3 -2 -1 -1
0 1 -1 1 -0 -1 0 -0 -1 -0 -1 -0 -1 -1 -4 -5 -4 -3 -3 -2 -2 -1 1 2 3 5 5 5 7 7 6 5 7 7 6 5 2 0 -0 -3 -2 -0 -1 -2
1 3 2 1 0 -1 2 -0 -0 -1 -1 -1 -1 -3 -5 -4 -4 -2 -3 -3 -3 -2 -2 -2 -2 -2 1 3 4 4 5 6 7 6 5 4 1 0 -2 -1 -1 -0 -2 -2
3 2 2 3 0 2 -1 -2 -3 -2 -3 -4 -3 -4 -2 -2 -2 -2 -2 -2 -2 -2 -2 -2 -2 -2 -2 -2 -1 3 5 5 5 5 3 2 1 -0 -1 -1 -1 -1 0 -1
3 2 3 3 3 1 -1 -3 -3 -3 -3 -3 -2 -1 -0 0 -0 0 -1 -2 -2 -1 -1 -1 -1 -1 -1 -0 1 4 5 5 4 3 1 0 -1 -1 -2 -2 -0 -1 -1 -4
1 2 3 2 2 3 1 -2 -5 -4 0 -3 -2 -1 -0 -1 -0 1 1 -0 -0 -0 -0 -0 -0 0 1 1 2 3 4 3 2 0 -0 -2 -2 -2 -1 -0 -0 -4 -7 -8
3 3 4 1 1 1 -2 -3 -5 -2 -1 -2 -2 -2 -1 -1 -2 0 1 0 -0 0 0 0 1 1 1 2 2 3 2 1 -1 -3 -2 -0 -0 -1 -0 -3 -7 -8 -9 -9
4 4 2 2 0 2 -2 -2 -4 -3 -1 -2 -2 -2 -0 1 1 1 0 -0 -0 -0 -0 -0 -0 -0 -0 0 1 -0 -1 -1 -1 -0 -1 -1 -0 -2 -5 -7 -9 -11 -13 -13
2 2 3 3 2 -1 -1 -3 -3 -2 -2 -1 -1 1 0 2 0 -0 -0 -1 -1 -1 -1 -2 -2 -2 -3 -3 -3 -2 -2 -2 -1 -1 -3 -5 -7 -8 -10 -12 -14 -14 -14 -14
2 2 2 2 3 3 2 -0 -2 -2 -1 0 1 2 1 1 -0 -1 -1 -2 -2 -2 -3 -3 -3 -3 -3 -2 -2 -3 -4 -6 -9 -11 -12 -13 -14 -15 -15 -15 -14 -14 -14 -13
2 2 3 4 4 3 2 1 1 1 2 2 3 2 1 1 -1 -1 -2 -3 -3 -3 -3 -3 -3 -3 -5 -7 -8 -9 -11 -12 -13 -14 -13 -13 -12 -12 -13 -12 -11 -10 -10 -9
2 2 3 3 3 1 2 2 1 1 2 2 2 1 0 0 -1 -2 -3 -3 -3 -3 -3 -4 -5 -6 -7 -9 -10 -10 -11 -11 -12 -12 -12 -12 -11 -11 -10 -9 -10 -9 -7 -6

GFSCGP_850_dewp_042.txt.gz
Dewpoint
1 1 1 -1 -1 -2 -1 0 1 -1 -4 3 3 1 6 7 9 10 10 10 9 8 8 8 7 6 4 5 5 6 8 8 4 1 7 10 10 9 10 9 7 5 5 6
0 2 -1 -1 -0 1 -0 -0 -0 -2 -3 -1 -1 0 3 7 7 9 10 10 9 8 9 8 7 8 6 5 4 4 5 7 4 5 7 8 8 9 9 9 8 5 6 7
1 -1 -0 1 -1 -0 -1 -1 -0 0 -1 -5 -2 -1 -2 2 7 9 9 8 9 9 9 8 8 6 5 3 5 5 5 8 7 6 7 7 10 10 10 9 6 5 6 6
1 -1 0 0 0 -1 -0 -1 -0 0 -0 -1 -4 -1 -1 -1 6 6 8 9 9 9 9 9 8 8 6 5 6 7 7 7 8 7 7 7 8 9 10 8 6 6 6 5
0 1 2 2 0 -1 -1 -1 0 0 0 0 -0 -1 -3 0 1 6 6 8 8 9 9 8 8 7 7 7 7 8 8 9 7 7 7 7 9 9 9 7 6 6 6 5
-1 -1 -0 -0 -1 -1 -1 -1 0 1 2 3 1 0 0 1 0 -1 3 6 7 7 8 6 7 8 7 7 7 8 8 8 8 7 7 7 9 9 9 7 6 7 6 5
0 0 -1 0 -0 -0 -1 1 4 4 5 4 2 3 2 -2 -3 -1 -0 2 4 7 7 6 6 7 7 7 7 8 8 9 9 7 6 6 7 9 9 8 8 7 6 5
1 1 0 0 -0 1 1 1 4 4 5 2 2 4 1 -1 -0 1 -0 -2 -2 3 4 6 5 6 7 6 7 8 9 9 8 8 7 7 8 10 9 8 9 8 6 5
2 1 1 1 1 -0 1 2 -0 5 5 5 3 1 -4 -1 3 3 2 1 0 2 4 4 5 4 5 6 6 7 8 7 8 8 8 9 9 10 9 9 8 8 6 6
-0 -1 1 1 1 0 -1 0 2 3 4 4 2 1 -0 -2 -1 3 3 3 4 3 4 4 5 5 4 4 5 6 6 6 7 8 9 9 10 9 7 7 8 8 7 6
-0 -2 -2 2 1 1 1 0 0 1 2 3 4 1 -3 -4 -2 -0 2 2 3 3 4 4 4 5 5 6 6 6 7 8 9 9 10 10 9 8 7 7 5 5 7 6
0 -1 -1 -1 0 -1 -2 0 0 3 1 3 3 2 -4 -5 -4 -3 -1 2 2 3 4 6 6 6 6 6 7 7 8 8 6 7 9 8 7 7 6 5 8 7 6 5
1 1 0 -1 -1 -0 1 0 0 1 1 3 3 2 -4 -4 -6 -6 -3 -0 2 2 4 6 7 7 7 7 8 8 7 6 6 6 6 6 6 6 7 7 7 5 3 -1
-1 2 -1 0 -1 -1 2 0 1 1 3 2 2 -0 -3 -3 -4 -5 -5 -6 -3 3 3 4 6 6 8 9 9 7 7 6 6 6 7 7 6 7 6 6 4 2 -0 -1
-1 1 1 -1 -2 -1 -1 -0 1 0 0 2 0 0 -1 -3 -5 -6 -6 -4 -2 -0 4 5 6 6 7 8 8 7 7 7 7 7 6 7 7 5 4 4 1 -3 -3 -2
0 1 -2 1 -0 -0 1 0 0 -0 -1 -0 -1 -1 -3 -4 -3 -3 -2 0 1 2 2 2 2 2 2 3 4 5 6 7 8 8 8 7 5 3 3 1 -2 -2 -1 -1
1 2 1 2 -0 -1 2 -0 0 -1 -1 -1 1 -1 -4 -4 -2 -2 -2 -2 -2 -1 -2 -2 -3 -3 -3 -2 -1 2 3 5 7 8 7 6 4 2 -0 -2 -2 -1 -1 -0
2 1 1 2 0 2 -1 -2 -2 -0 -1 -3 -3 -4 -4 -3 -2 -2 -2 -2 -2 -2 -2 -2 -2 -2 -2 -1 -1 -1 2 5 6 6 5 4 3 1 -1 -1 -1 -1 -0 -0
2 1 3 3 3 0 -1 -3 -2 -2 -3 -3 -3 -2 -1 -1 -0 1 -1 -1 -1 -1 -1 -1 -1 -0 -0 -0 0 1 3 4 4 4 3 2 1 -1 -1 -1 -1 -0 0 -2
1 1 2 1 2 3 1 -2 -5 -5 -1 -3 -1 0 1 -0 -0 1 -0 -0 -0 -0 -0 -0 0 1 1 1 2 3 4 3 3 2 1 0 -1 -1 -1 0 -0 -0 -2 -6
3 2 2 0 2 2 -0 -4 -5 -2 -1 -3 -1 -0 0 -1 -3 0 0 -0 -0 -0 0 0 1 1 1 2 2 2 2 1 0 -1 -1 -1 0 -0 -0 -0 -2 -4 -7 -9
5 4 2 1 1 5 -3 -3 -2 -2 -5 -3 -2 -1 -1 -2 -0 0 -0 -0 -0 -0 -0 -0 0 0 0 0 1 -0 -1 -2 -1 -1 -0 -0 -0 -2 -4 -6 -8 -10 -12 -13
4 3 4 3 4 0 -2 -4 -5 -5 -3 -3 -3 -2 -2 -1 -0 -0 -0 -0 -1 -1 -1 -1 -1 -2 -2 -2 -1 -1 -1 -1 -1 -2 -5 -7 -9 -11 -12 -13 -14 -14 -14 -13
1 0 2 2 1 2 1 -1 -2 -4 -3 -3 -3 -2 -2 -1 0 -0 -1 -1 -2 -2 -2 -3 -3 -3 -3 -3 -3 -3 -5 -8 -11 -13 -15 -15 -15 -15 -14 -14 -13 -13 -12 -10
2 1 3 2 3 3 2 1 -1 -2 -2 -2 -1 -0 -0 -0 -0 -0 -1 -2 -2 -3 -3 -3 -3 -3 -4 -6 -8 -10 -11 -13 -14 -14 -14 -13 -12 -12 -12 -12 -10 -10 -9 -7
2 2 3 2 1 0 0 -0 -0 -0 0 1 0 1 0 -0 -0 -1 -2 -3 -3 -3 -3 -3 -4 -6 -7 -9 -11 -11 -12 -13 -13 -12 -12 -11 -10 -9 -10 -11 -16 -20 -24 -27

GFSCGP_850_dewp_045.txt.gz
Dewpoint
1 1 2 -0 -1 -2 -1 0 0 -1 -3 3 4 3 3 9 10 9 9 10 9 6 6 5 5 4 3 5 6 7 7 7 7 4 -0 1 4 5 8 9 8 7 5 4
1 3 0 -1 -0 1 0 0 0 -1 -3 -1 -1 -1 -0 7 9 9 9 9 8 7 7 7 7 5 4 2 4 6 7 8 8 5 -0 1 5 8 10 9 8 8 6 5
2 -1 0 1 -0 1 0 0 0 0 -1 -4 -2 -2 -1 4 7 8 9 9 9 9 7 7 8 7 6 3 2 4 6 6 8 6 3 3 7 9 9 8 9 9 7 6
1 -0 -0 1 1 -0 1 -2 -0 0 0 0 -3 -1 -2 -0 6 7 7 9 9 8 7 7 7 8 7 6 5 4 5 6 6 8 5 4 6 7 7 8 9 8 6 6
1 1 1 2 1 -1 0 -0 0 1 1 1 -0 -0 -2 -0 0 5 6 8 8 6 7 7 7 7 7 6 4 4 5 5 6 7 8 6 7 7 8 8 9 9 6 6
-1 -1 0 1 -1 -1 -1 -0 0 1 2 4 1 0 0 -1 -0 -1 1 6 7 6 5 6 7 8 7 7 6 5 5 7 8 8 9 9 9 8 8 10 10 7 6 6
0 1 -1 -0 0 0 -0 1 3 5 6 5 2 3 1 -1 -2 -2 -1 -1 4 7 6 6 7 7 8 8 8 7 6 7 8 9 9 8 8 8 9 10 9 8 7 6
0 -0 0 1 0 1 1 1 6 4 5 3 2 3 -2 -1 -2 2 1 0 -1 2 4 6 6 6 7 6 7 7 7 7 8 7 8 9 8 8 8 9 9 8 8 7
2 1 -0 0 0 -0 1 2 0 5 5 6 2 1 -3 -1 0 1 2 1 0 -1 -0 1 5 7 7 6 5 6 7 7 7 7 7 8 9 9 7 7 9 9 8 8
1 0 1 1 1 1 0 -0 3 3 5 6 2 1 -2 -2 -2 0 2 2 1 1 2 3 3 4 5 6 6 7 7 7 7 8 8 8 8 9 8 8 9 8 8 8
0 -0 -1 2 2 1 2 2 1 1 2 3 3 1 -1 -2 -3 -1 1 1 2 2 2 2 3 4 5 5 5 5 6 6 6 6 7 8 8 9 9 9 8 7 8 8
0 2 2 0 -0 -1 -0 2 1 5 3 3 3 2 -3 -2 -4 -3 -3 1 1 2 2 3 3 4 5 5 6 6 6 6 6 8 7 7 6 6 6 7 6 6 7 8
2 1 1 -1 -1 -0 1 0 0 1 2 3 8 2 -4 -4 -3 -5 -3 -2 1 2 1 2 2 2 3 3 3 5 6 7 7 7 7 6 6 6 6 7 7 8 8 8
-2 1 1 0 -0 0 3 1 1 2 5 4 3 1 -1 -2 -3 -4 -4 -5 -6 -0 3 6 7 7 7 7 7 7 7 7 7 8 7 7 7 8 8 8 8 7 7 6
1 2 1 -1 -3 -1 0 1 1 1 2 4 2 0 -1 -2 -3 -4 -5 -5 -1 2 5 6 6 6 7 7 8 8 8 9 9 9 9 9 9 8 8 6 6 4 1 -1
1 2 2 1 0 -0 1 -0 1 1 -0 0 -1 -0 -2 -3 -4 -3 -3 1 2 2 3 3 3 3 3 3 3 3 4 5 6 7 8 8 8 7 5 3 2 1 -1 -1
2 3 3 3 0 -0 3 2 1 0 0 1 2 0 -2 -3 -2 -1 -1 -0 0 -0 -2 -2 -3 -3 -3 -2 -2 -1 1 3 5 6 7 7 6 4 2 1 -0 -2 -2 -1
3 3 2 4 2 5 1 -2 -2 0 -0 -1 -2 -3 -3 -3 -2 -2 -1 -1 -1 -1 -1 -2 -1 -1 -2 -1 -1 -1 0 2 4 5 5 5 4 2 1 -1 -1 -1 -1 -0
2 3 4 6 4 2 -1 -1 -1 -0 -3 -3 -2 -3 -3 -0 0 0 -1 -1 -1 -1 -1 -1 -0 0 0 0 0 1 1 2 3 4 3 3 1 0 -0 -1 -1 0 -0 -0
1 1 5 3 5 6 2 -2 -4 -4 1 -3 -3 -1 -1 0 2 1 -1 -1 -0 -0 0 0 1 1 1 1 2 2 2 3 3 2 2 1 0 -0 -1 0 -0 -0 -1 -3
4 3 4 3 6 4 -0 -3 -5 2 1 -4 -2 -1 0 0 -1 -0 -0 -0 -0 -0 0 1 1 1 1 2 2 2 2 1 0 -0 -1 -1 -0 0 0 -0 -2 -5 -7 -9
5 5 5 3 5 5 -2 -4 0 1 -5 -5 -2 -1 0 -2 -1 0 -0 -0 -0 -0 0 1 1 1 1 1 1 0 -1 -2 -2 -1 -0 -0 -1 -3 -6 -8 -10 -11 -13 -13
6 4 5 4 5 2 -3 -2 -5 -5 -6 -5 -3 -1 -1 -2 0 -0 -0 -1 -0 -0 -0 -0 -0 -1 -1 -1 -1 -0 -1 -1 -1 -3 -5 -8 -11 -13 -14 -14 -14 -14 -14 -12
2 1 4 4 2 1 -1 -3 -4 -4 -4 -4 -2 -2 -1 -2 -1 -1 -1 -1 -1 -1 -1 -1 -1 -2 -2 -2 -3 -3 -4 -7 -10 -13 -14 -14 -14 -14 -14 -13 -12 -11 -11 -11
3 3 3 3 1 3 1 0 -2 -2 -3 -3 -2 -1 -1 -2 -1 -1 -1 -1 -2 -2 -2 -3 -3 -3 -4 -5 -6 -9 -11 -11 -13 -14 -15 -14 -14 -14 -14 -16 -20 -27 -32 -32
2 3 4 4 0 1 -1 -2 -1 -1 -3 -2 -3 -1 -1 -2 -1 -1 -1 -2 -2 -3 -3 -3 -4 -5 -7 -9 -10 -12 -13 -14 -14 -14 -14 -17 -23 -30 -34 -35 -35 -35 -34 -33

GFSCGP_850_dewp_048.txt.gz
Dewpoint
-0 -0 -1 -4 -4 -5 -3 -3 -4 -3 -2 1 -0 -2 -1 6 8 6 6 6 7 8 8 9 7 8 8 8 9 9 10 10 9 9 7 5 7 8 9 9 6 7 8 7
1 1 -2 -2 -1 -1 -1 -2 -3 -2 -3 -2 -4 -4 -4 4 6 6 4 5 5 7 8 8 9 8 8 8 9 9 9 10 10 10 8 6 6 8 8 9 8 8 8 6
-1 -2 -1 -1 -0 -0 0 -1 -2 -2 -2 -3 -3 -3 -3 0 4 6 5 4 5 5 8 8 9 9 9 8 9 9 9 10 11 10 10 8 7 9 9 9 8 8 8 7
-2 -3 -1 -0 -0 -1 0 -2 -2 -1 -1 -2 -2 -2 -5 -2 2 5 6 6 6 6 6 8 9 9 9 9 9 9 9 10 10 10 10 9 6 8 9 10 9 8 9 8
-2 0 1 -0 -1 -1 -2 -2 -1 -1 -1 -1 -2 -2 -4 -2 -2 1 3 4 5 5 5 6 8 9 10 9 10 9 9 9 10 10 10 10 8 7 9 10 9 8 8 9
-3 -1 -1 -2 -1 -1 -1 -0 -0 0 -0 3 -2 -2 -4 -5 -5 -5 -4 1 4 5 6 5 6 8 9 10 10 11 10 9 10 10 9 10 10 9 9 10 8 7 8 9
-2 -2 -3 -1 -0 0 -0 0 3 4 4 4 1 0 -3 -4 -4 -3 -2 -3 -1 4 6 7 7 8 9 10 11 9 7 9 9 8 6 6 7 9 10 8 8 8 8 9
-1 -0 -2 -2 -3 -1 -0 -0 3 5 4 2 1 1 -3 -3 -3 -1 1 1 1 0 4 6 7 7 9 11 11 11 8 7 8 6 7 8 8 9 9 9 9 8 9 9
-2 -3 -3 -1 -1 -2 1 2 -1 3 5 5 -0 -2 -4 -4 -3 -3 -0 1 1 0 2 4 5 7 9 10 11 11 11 11 10 7 7 8 8 7 9 9 9 9 10 9
-2 -2 -0 1 0 0 0 -1 3 2 5 4 0 -1 -4 -5 -5 -5 -5 -2 2 4 3 3 4 6 8 10 11 12 11 11 11 9 8 8 9 9 10 10 9 9 9 9
-4 -2 2 2 2 0 2 2 1 1 2 3 2 -1 -5 -6 -5 -3 -3 -2 -1 3 5 6 6 7 8 9 10 11 10 11 11 10 10 8 8 9 9 10 10 9 9 9
-3 -2 -0 -1 -1 -1 -3 -2 0 2 1 2 2 1 -6 -5 -4 -3 -3 -1 1 2 5 7 8 8 9 9 9 9 9 10 10 11 10 10 9 9 9 9 9 9 9 9
-2 -1 1 -0 -1 -1 -1 -1 -2 -0 1 1 7 1 -4 -4 -3 -4 -4 -2 1 3 4 6 8 9 9 9 10 10 9 10 10 10 8 8 8 8 7 8 7 8 8 8
-2 -3 -2 0 -3 -4 -0 -1 -2 -1 3 1 2 -1 -3 -4 -4 -5 -3 -4 -3 -1 4 6 8 9 9 10 10 10 9 9 8 9 9 9 9 9 9 9 9 8 8 7
-1 -1 -2 -4 -5 -6 -5 -5 -3 -1 -1 0 -0 -1 -2 -3 -3 -5 -3 -2 -0 1 5 6 8 9 10 10 10 10 10 9 9 9 9 9 9 9 8 8 7 7 7 6
-0 -1 -1 -1 -3 -3 -4 -5 -5 -3 -4 -2 -1 -2 -4 -4 -3 -3 -3 -1 1 3 5 6 6 7 7 8 8 7 6 6 6 7 7 8 8 7 6 5 4 3 2 0
2 0 1 0 -0 -1 4 1 -2 -3 -1 -0 -0 -2 -4 -3 -3 -3 -1 0 2 3 4 4 4 3 1 1 0 1 2 3 4 5 6 6 6 5 4 2 1 1 -0 -1
3 3 3 3 4 9 -2 -2 -3 -2 -2 -2 -2 -4 -4 -4 -3 -1 -0 1 1 1 2 2 -0 -1 -1 -1 -1 0 1 2 3 4 4 5 4 3 2 1 -0 -1 -1 -1
3 3 5 9 4 -0 -1 -1 -1 0 -1 -4 -3 -4 -5 -3 -1 -0 1 1 1 2 2 1 0 -0 0 0 0 0 1 2 2 3 3 2 1 1 0 -0 -1 -0 0 0
3 3 6 5 5 10 -1 -3 -3 -3 2 -5 -5 -4 -4 -1 2 -2 1 1 1 1 1 1 1 1 1 2 2 2 2 2 2 2 1 1 0 -0 -0 0 0 0 -0 -2
5 5 7 6 7 3 -1 -3 -4 2 2 -4 -5 -4 -2 0 -2 0 0 1 0 0 1 1 1 1 2 2 2 1 1 1 1 0 0 -0 -0 0 -0 -0 -1 -4 -5 -8
5 6 8 6 9 8 -2 -3 -1 -1 0 -2 -1 -2 -1 -0 2 1 0 0 -0 0 1 1 1 1 1 1 1 1 1 0 -0 -1 0 0 -0 -1 -4 -7 -10 -12 -9 -11
5 4 5 3 4 1 -2 -3 -3 -0 -2 -1 -2 -1 -0 1 1 0 0 -0 -0 -0 0 0 0 0 0 0 -0 -0 -0 -1 -0 -1 -3 -6 -10 -14 -15 -12 -11 -7 -6 -6
2 2 5 4 -0 1 1 -1 -1 -1 -1 -1 -1 -0 1 1 1 0 -0 -0 -1 -1 -1 -0 -0 -1 -1 -1 -2 -2 -2 -3 -6 -10 -13 -13 -15 -13 -15 -12 -14 -12 -16 -22
1 2 2 3 1 2 2 1 -0 0 -1 -3 -1 1 0 0 0 -0 -0 -1 -1 -1 -1 -1 -2 -2 -2 -3 -3 -5 -7 -8 -10 -14 -15 -15 -15 -18 -20 -22 -32 -33 -33 -35
1 2 5 4 0 2 -0 1 2 1 1 -1 0 1 1 0 -0 -0 -1 -1 -1 -1 -2 -2 -2 -3 -4 -5 -8 -10 -10 -12 -15 -15 -17 -23 -29 -31 -31 -24 -16 -27 -32 -33

GFSCGP_850_dewp_051.txt.gz
Dewpoint
-4 -2 -2 -3 -5 -6 -7 -7 -8 -6 -3 -2 -0 -2 2 3 4 4 4 4 5 6 7 8 8 8 8 8 9 9 9 9 9 9 8 5 7 7 7 9 10 9 10 7
-2 -0 -4 -4 -4 -4 -5 -4 -6 -4 -4 -3 -2 -3 -3 1 3 2 3 4 4 5 7 7 8 8 8 8 8 9 9 9 9 9 8 6 5 6 6 8 9 9 9 10
-1 -3 -3 -3 -3 -4 -4 -3 -3 -2 0 -6 -5 -5 -7 -6 -0 2 1 2 2 4 6 7 7 7 8 8 8 9 9 10 10 10 8 7 5 5 7 7 9 9 10 10
-2 -5 -2 -2 -2 -5 -3 -5 -3 -4 -3 -3 -3 -2 -0 -5 -1 1 1 1 1 2 5 6 8 7 7 7 8 9 9 8 9 9 9 8 6 5 6 7 8 10 8 7
-3 -3 -2 -1 -2 -4 -3 -3 -3 -4 -2 -2 1 -1 -0 -4 -3 -2 1 2 1 2 3 5 7 8 8 8 8 9 8 8 8 9 9 9 8 6 7 8 9 10 10 8
-5 -5 -4 -3 -4 -4 -4 -2 -2 -2 -2 2 -2 -1 -2 -2 -6 -6 -4 -1 2 2 2 3 5 6 8 8 9 8 9 8 8 9 10 10 9 8 6 8 9 10 10 9
-3 -3 -4 -3 -2 -2 -2 -1 3 4 2 4 -1 -3 -4 2 -5 -7 -6 -5 -2 1 2 3 3 5 7 8 9 9 9 8 8 9 10 10 10 10 9 8 10 10 9 9
-1 -1 -3 -3 -3 0 -1 -1 4 7 6 3 0 -1 -4 -4 -6 -6 -5 -3 -3 -2 1 3 3 4 6 8 10 10 10 10 8 9 10 11 11 11 10 10 10 10 10 10
-2 -2 -6 -5 -4 -4 -1 0 -2 2 4 5 1 -3 -1 -5 -8 -6 -5 -2 -1 -1 -1 1 3 4 5 8 9 11 11 10 10 10 9 7 11 12 11 10 11 10 10 8
-5 -2 -5 -4 -4 -4 -2 -1 1 2 6 6 -1 -2 -3 -4 -6 -8 -7 -5 -1 1 0 0 2 3 5 7 10 11 12 11 11 11 10 10 11 11 9 9 10 10 8 9
-5 -3 -2 -1 0 -1 0 2 0 0 1 7 4 0 -5 -6 -6 -6 -6 -6 -5 0 3 3 3 3 4 6 9 11 12 12 11 11 12 12 11 9 9 10 10 10 10 10
-5 -3 1 1 -3 -4 -3 -1 0 3 4 2 2 2 -5 -6 -6 -6 -6 -5 -5 -3 2 5 6 6 6 7 9 10 11 11 11 11 11 11 11 11 11 11 10 10 9 9
-3 -2 1 -0 -0 -1 0 -1 -1 0 1 3 8 2 -5 -6 -6 -6 -6 -6 -4 -2 -0 4 7 8 8 9 9 10 10 10 10 11 11 11 11 11 11 10 10 9 8 8
-2 -2 -1 1 -1 -2 -1 -2 -3 -1 5 2 0 -2 -3 -4 -5 -6 -6 -5 -4 -1 -0 1 4 7 8 9 9 10 10 11 11 11 11 11 10 10 9 9 9 8 8 8
0 -0 -2 -4 -5 -5 -4 -4 -4 -3 -2 1 -1 -3 -4 -5 -6 -6 -6 -5 -5 -4 -1 2 3 5 8 9 10 11 11 11 10 9 9 10 9 9 8 8 7 7 7 7
-2 1 -1 -2 -5 -5 -5 -6 -7 -7 -5 -4 -4 -4 -7 -7 -7 -6 -4 -4 -3 -2 -1 2 5 7 9 10 10 11 10 10 9 8 7 8 7 6 6 6 5 4 4 3
2 2 1 2 -3 -3 2 -4 -5 -6 -7 -5 -3 -5 -6 -6 -6 -6 -6 -4 -2 1 3 5 6 7 8 9 9 8 8 7 7 6 5 5 5 5 4 3 2 2 1 0
3 2 2 5 6 7 -1 -5 -5 -4 -5 -6 -6 -6 -6 -7 -8 -5 -4 -3 0 3 4 5 5 5 6 6 6 6 5 5 4 4 4 4 4 3 2 2 1 0 -0 -0
1 4 6 8 5 -1 -3 -3 -3 -3 -4 -7 -6 -6 -7 -7 -4 -2 -2 -1 2 2 3 3 3 4 4 4 4 4 3 3 3 2 2 2 2 2 2 1 1 1 0 1
-0 3 7 6 6 7 0 -4 -5 -5 2 -6 -7 -6 -6 -6 1 -3 -0 1 1 2 2 2 3 3 3 3 3 2 2 2 2 2 2 2 2 2 1 0 1 0 -0 -1
6 6 9 8 7 2 -4 -5 -5 3 2 -5 -6 -7 -5 -4 -3 -1 1 1 2 1 2 2 2 2 2 2 2 2 2 2 2 1 1 1 1 0 0 0 -1 -2 -3 -4
6 6 9 7 8 9 -2 -2 -0 -1 -3 -2 -3 -4 -4 -3 1 1 1 1 1 1 1 1 2 2 2 2 2 2 1 1 1 1 0 -0 0 -1 -2 -3 -5 -6 -6 -5
5 5 6 4 4 1 -1 -2 -3 -4 -3 -1 -2 -3 -2 1 1 1 1 1 1 1 1 1 2 2 2 2 1 1 1 1 -0 -1 -1 -3 -5 -6 -6 -6 -6 -7 -6 -6
-1 -1 4 3 1 0 1 -0 -2 -1 -1 -1 -1 -2 -1 2 1 1 0 0 0 0 1 1 1 1 1 1 0 0 -0 -1 -2 -3 -5 -5 -6 -7 -8 -9 -12 -12 -12 -17
-2 -2 1 1 -1 -2 -1 1 1 -0 -0 -1 -1 -1 -0 2 1 1 0 0 -0 -0 0 1 1 0 -0 -1 -2 -3 -4 -4 -5 -6 -7 -8 -11 -12 -14 -14 -18 -23 -31 -35
-3 0 4 4 -4 1 1 -0 0 1 1 1 0 -1 1 1 1 0 0 0 -0 -0 -0 -0 -0 -1 -2 -3 -4 -4 -5 -6 -7 -9 -10 -12 -16 -19 -15 -15 -16 -21 -23 -29

GFSCGP_850_dewp_057.txt.gz
Dewpoint
-4 -2 -1 -3 -3 -3 -3 -2 -3 -5 -3 -2 5 7 5 4 7 8 7 8 8 8 8 7 6 7 7 7 6 7 8 8 7 7 6 3 4 2 2 2 1 -1 -0 1
-2 -1 -3 -4 -4 -3 -1 -2 -3 -5 -1 -2 -1 7 5 5 6 6 6 7 7 8 8 8 7 5 5 4 3 5 5 5 6 5 4 4 2 3 3 2 -1 4 6 7
-1 -1 -4 -3 -3 -2 -2 -2 -3 -3 -1 -3 -2 -0 6 5 6 4 5 6 7 7 8 8 7 5 4 5 3 3 3 3 3 2 2 3 4 2 3 0 3 7 6 7
-1 -3 -2 -2 -1 -2 -1 -3 -5 -4 -1 2 -3 2 -1 7 6 8 6 5 6 8 7 7 7 6 6 6 5 3 3 4 3 3 2 2 2 6 7 5 2 5 7 7
-1 -1 -1 -1 -1 -2 -2 -1 -1 -1 -1 -3 -2 1 -0 4 7 8 6 4 5 7 7 8 7 5 6 7 8 6 5 4 4 5 6 6 7 6 4 5 6 6 7 8
-2 -5 -4 -3 -3 -3 -3 -2 -2 -0 -0 3 0 0 1 -0 -2 2 2 3 4 7 7 7 7 6 6 7 8 9 8 7 7 7 6 8 10 8 7 5 6 6 6 8
-1 -2 -4 -4 -3 -3 -3 -1 4 5 5 5 2 3 1 -1 -0 -2 1 1 3 5 7 8 8 8 7 7 9 9 9 8 8 8 8 7 7 9 8 6 5 5 6 7
1 3 -2 -4 -3 -1 -1 0 6 6 8 6 5 5 2 -1 -2 -4 -5 -0 -0 3 6 7 7 7 7 6 7 9 8 8 9 9 8 9 7 7 9 8 7 6 7 7
1 1 -4 -5 -4 -3 1 2 0 3 6 7 6 5 1 -0 -2 -3 -6 -3 -2 1 5 6 6 6 7 7 7 6 8 8 8 9 9 9 9 8 8 9 8 8 8 9
-1 2 -3 -4 -5 -3 -2 -1 3 3 7 8 5 5 4 1 -1 -4 -5 -5 -4 -1 1 4 6 6 6 6 6 7 7 7 7 7 8 8 9 9 9 9 9 8 6 8
-4 -1 1 -2 -1 -1 -0 -0 1 3 5 7 7 5 0 -0 -0 -3 -6 -5 -2 -0 0 1 3 6 6 6 6 6 7 8 8 8 8 9 8 8 9 8 8 8 9 10
-3 -1 1 -0 -2 -3 -3 -1 0 7 7 6 6 6 -1 -2 -2 -4 -6 -6 -6 -3 0 -1 1 3 4 7 6 7 8 8 8 9 9 9 9 9 10 9 8 8 9 11
-2 -1 3 2 -1 -3 -2 -2 -1 1 5 6 8 7 -1 -2 -2 -4 -6 -6 -5 -0 1 1 -0 4 4 7 8 8 8 10 9 10 9 9 9 6 9 9 9 10 11 10
-2 -1 -1 3 2 -0 1 -1 -2 1 5 4 7 5 3 2 -1 -6 -4 -5 -5 -2 2 1 1 1 4 6 8 10 10 10 9 9 10 10 10 10 10 9 9 10 9 9
0 0 -1 -1 -1 -0 1 1 -1 0 2 5 4 4 1 -0 -2 -3 -2 -4 -4 -4 3 3 3 3 4 7 8 10 9 9 9 9 9 10 11 10 10 10 10 9 9 9
2 2 0 0 -1 0 2 1 0 -1 1 2 2 2 -0 -2 -3 -3 -4 -4 -3 -4 -3 2 4 6 6 7 8 9 10 10 9 9 9 9 10 11 10 9 9 8 8 7
6 3 4 3 0 0 3 0 -0 0 -2 -1 -0 -2 -4 -2 -4 -2 -4 -5 -3 -4 -5 -4 4 7 8 8 6 9 10 10 10 10 10 10 10 10 9 8 8 7 6 6
7 6 4 5 3 6 1 -2 -3 -2 -2 -4 -5 -6 -6 -6 -7 -6 -5 -5 -4 -4 -4 -4 1 6 8 9 9 10 10 10 10 10 10 9 9 8 7 6 4 4 3 2
6 7 6 6 5 3 1 -2 -2 -1 -1 -4 -5 -5 -6 -8 -6 -3 -4 -4 -4 -3 -1 0 4 6 8 9 9 10 10 10 9 8 8 7 6 4 3 3 3 2 1 1
4 6 6 6 7 6 3 1 -1 -2 2 -3 -3 -3 -3 -5 -1 -2 -3 -4 -2 -1 0 2 5 8 9 10 10 10 9 9 8 6 5 4 3 3 2 2 2 1 0 0
5 5 7 7 8 6 1 -1 -2 2 2 -2 -3 -3 -3 -2 -1 -4 -3 -2 -2 -0 2 5 6 7 8 8 8 8 7 6 5 3 3 2 2 2 2 1 1 -0 -1 -1
5 6 6 7 8 8 3 2 -0 0 -3 -3 -4 -3 -4 -4 -4 -3 -3 -1 1 2 4 4 5 6 6 6 6 5 4 3 3 2 2 2 2 2 0 -0 -1 -1 -1 -2
6 4 6 5 5 4 1 4 4 3 4 1 1 1 1 -0 -2 -2 -1 1 1 2 3 4 4 4 4 4 4 3 3 2 2 2 2 2 2 1 -0 -1 -2 -3 -3 -5
1 2 3 4 3 0 -2 -0 -3 2 3 3 2 1 0 1 1 0 -0 1 2 2 2 3 3 3 3 3 2 2 2 2 2 2 2 1 -1 -1 -2 -4 -6 -6 -5 -5
1 1 2 3 2 2 1 -1 -3 -2 2 1 1 1 -1 1 1 1 1 2 2 2 2 2 3 3 2 2 2 2 2 2 2 1 -1 -3 -3 -4 -5 -5 -6 -6 -6 -9
-1 -2 3 5 3 1 3 1 1 -1 -1 -0 1 1 1 1 1 1 1 1 1 1 2 2 2 2 2 2 2 2 2 1 0 -2 -4 -6 -6 -7 -7 -8 -12 -15 -21 -25

GFSCGP_850_dewp_060.txt.gz
Dewpoint
-5 -3 -2 -2 -3 -3 -3 -2 -1 -3 -2 2 4 4 4 6 6 8 8 9 9 8 8 6 6 7 8 8 8 8 7 6 5 5 4 4 4 3 3 3 3 5 7 6
-3 -2 -4 -3 -3 -2 -2 -1 -1 -4 -2 -2 4 5 3 4 7 8 8 9 9 9 9 7 6 6 7 7 7 7 5 4 4 4 4 4 4 4 4 3 4 5 3 1
-2 -2 -4 -3 -2 -2 -2 -2 -1 -2 -4 -2 3 3 6 5 5 6 6 8 8 8 8 7 6 6 7 7 6 6 6 6 5 6 6 5 5 4 4 6 4 2 1 -2
-2 -4 -3 -1 -2 -2 -0 -2 -2 -2 -2 1 -2 2 4 6 6 6 6 7 8 8 8 7 4 5 5 4 4 6 7 7 6 6 6 4 4 4 3 2 1 1 -1 1
1 -1 -1 -1 -1 -2 -1 -1 -1 -1 -1 -2 -2 0 -1 6 6 5 5 6 7 7 7 7 5 2 3 3 2 4 6 6 5 6 5 4 3 3 2 1 1 -1 -3 2
-1 -3 -3 -2 -2 -2 -2 -2 -1 0 0 4 0 0 0 7 6 4 4 5 6 7 7 7 6 4 3 3 3 2 2 1 1 1 1 1 1 1 1 1 1 -1 -2 2
-2 -1 -3 -3 -2 -2 -2 -1 3 4 4 5 1 3 1 -2 -0 4 4 5 5 7 7 7 7 7 4 4 5 3 2 2 2 1 1 1 1 1 1 4 4 4 5 4
-0 3 -2 -3 -2 -1 -1 0 5 6 7 5 4 5 2 -1 -2 -1 3 3 4 6 7 7 7 7 6 4 5 6 6 4 3 3 4 4 5 5 7 7 7 7 5 5
2 1 -3 -3 -3 -3 0 1 -0 3 5 7 6 4 1 -1 -1 -3 -0 3 3 5 7 6 7 7 7 6 4 4 5 6 6 5 5 5 5 5 6 8 9 9 7 6
-1 2 -2 -3 -4 -3 -2 -0 3 4 6 7 5 4 3 1 1 -1 -3 -3 1 4 5 6 6 6 7 7 6 4 3 4 5 6 6 5 6 7 8 8 8 9 8 8
-2 -1 -0 -1 -1 -1 -0 1 2 3 5 6 6 4 1 0 0 -3 -4 -5 -4 -0 2 5 6 6 6 6 7 6 5 5 6 7 7 7 8 8 8 9 8 9 9 8
-1 -0 1 -1 -3 -3 -3 -0 1 5 6 6 6 5 -0 -2 -2 -4 -4 -3 -1 -1 -0 2 3 4 6 7 7 8 7 6 6 8 9 10 9 9 9 8 8 7 9 10
5 1 3 2 -2 -3 -2 -1 -1 1 4 4 7 6 0 -2 -2 -3 -4 -5 -3 -4 1 2 2 3 4 5 6 7 7 8 9 10 9 9 8 8 8 6 8 7 6 7
5 5 3 2 1 -0 0 -0 -1 0 5 4 6 4 3 2 0 -0 -2 -4 -5 -3 -3 -2 1 3 4 5 6 7 8 8 8 9 9 9 9 9 8 9 7 7 7 8
6 8 3 1 -2 -2 0 0 0 -0 1 3 2 4 2 2 1 -0 -1 -4 -5 -1 0 -0 -1 0 -0 -3 4 7 8 8 9 9 9 9 9 6 8 9 8 6 10 10
5 7 6 3 0 -2 -1 -0 0 -0 -0 1 1 4 1 -0 -1 -1 -2 -3 -4 -4 -1 1 0 1 1 -1 -3 6 8 9 9 10 10 9 9 9 9 10 9 10 10 9
5 7 7 7 0 0 3 1 -0 1 1 1 3 1 0 0 -1 -1 -2 -3 -3 -5 -4 -1 1 1 1 0 -1 -0 9 9 9 10 9 8 8 9 10 10 9 9 9 8
5 5 6 7 3 7 1 -1 -1 -0 -0 -1 -2 -3 -2 -2 -3 -4 -3 -3 -5 -6 -5 -4 1 1 3 3 3 3 6 9 10 10 10 10 11 10 10 10 9 8 7 6
5 6 6 7 7 3 3 1 1 1 -0 -2 -3 -4 -6 -7 -6 -3 -6 -4 -5 -6 -6 -4 -3 2 5 6 7 8 8 9 9 9 10 10 10 9 9 8 8 7 6 5
4 4 5 6 7 8 2 0 -1 -2 2 -3 -3 -2 -3 -4 -2 -2 -4 -5 -5 -5 -4 -4 -3 1 6 8 9 9 9 10 10 10 10 10 9 9 8 7 5 3 3 2
4 3 5 6 7 6 3 3 -2 3 1 -2 -2 -2 -3 -2 -1 -5 -4 -3 -4 -4 -4 -3 -1 2 8 9 10 9 10 10 9 9 8 8 8 6 4 3 2 2 1 0
3 4 5 6 7 7 4 4 4 3 3 4 3 3 0 -3 -4 -4 -4 -4 -3 -2 -1 1 2 7 8 9 10 10 10 9 8 7 7 5 4 3 2 2 1 1 0 -0
4 3 4 4 4 2 4 3 3 3 2 2 3 2 3 1 -2 -3 -2 -1 -1 -3 -2 1 4 6 8 8 9 9 9 8 7 5 4 3 2 2 2 1 1 0 -0 -1
-1 1 4 5 2 3 -1 0 1 -0 -1 -1 2 2 0 2 1 0 -0 0 1 1 2 4 5 6 6 6 6 6 6 5 4 3 2 2 2 2 1 0 -0 -0 -1 -2
-3 2 2 3 1 1 0 0 1 0 -2 -1 -1 2 2 1 2 1 0 2 2 2 3 4 4 4 4 5 4 4 4 3 2 2 2 2 2 1 -0 -2 -2 -3 -4 -4
1 2 4 3 1 0 -0 -6 -4 -0 -2 -1 -1 1 2 1 1 2 2 2 2 2 3 3 3 3 3 3 3 3 2 2 2 2 2 1 0 -1 -3 -4 -5 -5 -6 -6

GFSCGP_850_dewp_066.txt.gz
Dewpoint
-0 0 1 -2 -3 -4 -3 -2 -2 -3 -5 -3 -0 3 0 4 7 8 9 9 9 9 10 9 7 8 7 7 7 8 9 9 9 9 9 9 7 5 8 8 7 5 2 2
-2 1 -1 -3 -3 -2 -2 -2 -1 -3 -4 -3 -2 -1 0 4 6 7 8 9 8 9 9 9 8 8 7 7 7 7 8 9 9 9 9 7 8 9 7 5 4 6 3 3
-0 -1 -3 -3 -2 -2 -1 -1 -2 -4 -3 -3 -1 1 -0 2 5 6 7 7 7 8 9 9 8 5 7 6 6 7 7 8 8 8 8 8 7 8 8 5 6 5 3 4
-1 -2 -3 -3 -2 -3 -1 -3 -3 -2 -1 1 -1 3 -1 -2 3 5 6 6 5 6 8 9 8 5 3 4 5 7 7 8 8 8 7 7 7 7 7 5 7 4 3 3
0 -1 -1 -1 -2 -3 -2 -3 -2 -1 0 -1 -1 1 -1 3 2 3 4 4 5 4 5 7 7 7 2 2 3 4 6 7 7 7 6 6 6 6 6 7 4 2 3 3
-2 -2 -2 -2 -3 -3 -3 -1 -0 0 1 4 1 0 1 -2 2 -0 2 3 3 3 4 5 7 7 6 2 3 3 4 6 6 6 5 6 6 7 6 5 4 3 3 3
-2 -1 -2 -3 -1 -2 -2 0 4 4 5 6 0 1 -0 -2 -3 -1 -1 -1 0 2 3 4 6 7 7 5 1 2 2 4 5 5 5 5 6 7 7 5 3 3 2 2
-0 1 -1 -2 -1 -0 1 1 5 6 6 4 2 4 1 -1 -3 -4 -3 -2 -0 2 3 3 3 5 6 6 3 -0 -0 0 3 4 4 4 4 4 5 6 5 4 3 3
1 -0 -4 -3 -2 -2 1 2 -1 2 3 5 4 3 1 -1 -1 -2 -2 -2 -2 1 3 2 2 3 6 6 5 3 -1 -1 0 2 3 4 4 5 5 5 5 4 3 4
-1 1 -1 -2 -4 -2 -1 -1 2 3 5 6 4 4 2 -1 -2 -3 -2 -2 -1 2 3 3 3 2 4 5 5 5 3 -0 -1 0 2 3 4 4 4 5 4 3 3 3
-2 -0 0 -2 -1 -0 -0 1 1 2 3 5 5 3 1 -0 -1 -2 -1 -2 -2 1 1 1 1 1 2 5 6 5 6 4 1 -0 0 1 1 2 3 3 3 3 2 2
4 2 2 0 -3 -3 -2 -0 1 4 3 5 4 3 -2 -1 -2 -1 -2 -3 -5 -2 -1 -0 0 2 3 3 5 5 5 6 5 2 2 1 1 -0 -1 -1 -1 -0 0 1
4 6 7 3 0 -1 -1 -2 -1 2 3 4 6 4 0 -1 -1 -2 -2 -2 -4 -4 -3 0 2 1 1 2 3 4 5 6 6 6 4 3 3 2 1 2 4 5 4 5
4 6 8 8 8 6 6 4 1 -1 2 1 2 1 -0 -0 -0 -2 -3 -3 -3 -4 -3 -2 -2 -2 -1 -0 1 2 3 6 6 7 7 5 4 4 4 4 5 5 5 6
4 5 7 7 5 5 5 4 3 4 -0 2 0 1 -1 -1 -1 -1 -3 -4 -3 -3 -2 -3 -4 -2 -2 -1 -1 0 1 4 5 7 7 7 7 6 6 5 6 7 5 6
5 4 6 6 4 3 4 1 3 3 1 0 0 0 -2 -2 -2 -1 -2 -2 -2 -2 -2 -3 -4 -4 -2 -3 -3 -1 1 0 2 5 3 7 8 8 8 7 7 7 8 6
5 5 5 4 4 2 2 4 0 0 1 1 2 -0 -2 -1 -0 -0 -1 -2 -2 -2 -2 -2 -3 -4 -4 -2 -2 -2 -1 1 2 3 5 7 8 8 9 9 9 8 9 9
3 4 4 4 3 5 -3 1 -1 2 -1 -3 -2 -1 -2 -2 -2 -3 -3 -2 -2 -2 -2 -2 -2 -3 -4 -5 -2 -0 0 1 3 5 6 7 8 8 9 9 9 10 10 9
3 4 4 4 4 2 -1 -4 -1 -0 -2 -3 1 1 -2 -2 -3 -4 -4 -4 -5 -6 -3 -2 -5 -5 -3 -5 -3 2 2 3 3 5 6 6 7 8 9 9 9 9 9 9
4 3 4 5 5 3 -2 2 4 3 3 4 5 4 4 2 0 -1 -4 -4 -5 -6 -6 -6 -6 -4 -3 -3 -4 2 4 4 3 3 6 7 8 9 9 9 9 8 8 8
5 5 5 5 6 3 1 2 4 7 2 3 4 4 4 4 1 1 -2 -4 -4 -3 -3 -4 -5 -4 -3 -4 -3 3 5 6 6 7 8 9 10 10 9 9 9 8 8 8
3 4 4 5 6 5 1 1 2 3 1 -2 0 2 3 3 3 2 2 1 -2 -4 -4 -4 -3 -2 -3 -2 3 6 7 7 8 10 10 10 9 9 9 8 8 8 7 6
2 2 2 3 2 -0 1 -2 -3 -2 -2 -1 1 -0 -1 2 2 2 2 2 2 2 4 4 4 2 1 3 6 7 8 9 10 9 9 9 9 9 8 7 6 5 4 4
-2 -1 1 2 -1 -0 -2 -3 -3 -0 -1 -2 1 1 -1 3 2 2 2 1 2 3 4 5 6 5 4 7 8 9 9 10 10 9 9 8 8 7 6 5 4 4 3 2
-2 -2 -0 -0 -2 -0 -4 0 2 2 2 1 2 3 -0 0 2 3 2 1 1 2 4 6 8 8 8 8 9 10 10 9 9 8 7 7 6 5 4 3 2 2 1 1
2 2 1 -1 3 3 3 3 3 2 3 3 3 4 3 2 2 2 3 2 2 2 3 5 6 8 8 7 8 8 8 8 8 7 6 6 5 4 3 2 2 1 0 0

GFSCGP_850_dewp_072.txt.gz
Dewpoint
-1 -0 1 -1 -3 -4 -5 -6 -6 -9 -8 -5 -6 -5 -7 -6 -2 0 3 4 6 8 8 9 10 8 5 8 9 9 9 9 10 10 9 9 9 8 6 6 5 -1 1 1
-0 1 -3 -3 -2 -3 -4 -5 -5 -7 -6 -5 -8 -8 -9 -5 -4 -3 -2 3 4 7 8 9 10 9 8 6 8 9 9 9 10 10 10 10 9 9 9 6 5 1 2 1
-4 -4 -4 -3 -1 -2 -3 -3 -4 -5 -7 -6 -6 -7 -8 -6 -5 -2 0 1 3 5 8 9 9 9 8 4 6 8 9 9 10 9 10 9 9 9 9 9 6 4 6 3
-4 -7 -5 -2 -2 -3 -2 -5 -4 -4 -3 -3 -5 -5 -7 -4 -4 -5 -5 1 3 4 7 9 9 9 9 7 3 7 8 9 9 9 9 9 9 9 8 8 8 8 7 7
-3 -4 -6 -5 -4 -6 -4 -6 -4 -3 -3 -3 -4 -5 -7 -5 -2 -4 -6 -5 0 4 6 8 9 9 9 8 2 4 7 8 8 9 9 9 8 8 7 5 6 7 7 7
-4 -4 -3 -7 -5 -4 -4 -3 -3 -3 -2 1 -2 -4 -5 -4 -3 -5 -6 -7 -5 2 5 7 8 9 9 8 6 3 6 8 8 8 9 9 9 9 8 6 6 7 6 6
-4 -4 -4 -4 -4 -5 -4 -3 2 3 4 3 -3 -2 -4 -3 -4 -4 -4 -5 -4 0 4 6 8 8 8 8 7 6 8 8 8 8 8 8 8 8 8 8 7 7 8 7
-1 0 -3 -3 -3 -2 -3 -2 1 3 4 2 -1 0 -2 -4 -4 -2 -2 -3 -3 -1 3 5 7 8 8 9 8 2 7 8 8 8 8 8 8 8 8 8 7 6 7 7
-4 -4 -5 -5 -3 -3 -1 0 -3 0 2 4 1 -0 -2 -3 -3 -4 -4 -2 -3 -3 0 5 6 8 8 9 8 5 7 7 8 8 8 8 8 8 9 8 8 7 6 6
-2 -3 -6 -5 -4 -3 -2 -3 2 2 5 5 1 0 -0 -2 -2 -5 -4 -5 -5 -2 -1 3 6 7 8 9 9 7 7 6 7 6 6 7 7 6 7 8 8 8 7 7
-3 0 1 -2 -2 -1 -1 1 -0 -0 1 3 4 1 -2 -2 -3 -3 -3 -3 -2 -1 -1 3 5 6 8 8 9 8 8 7 3 0 5 4 4 4 4 5 7 8 8 8
2 2 1 -0 -3 -4 -3 -1 -0 3 2 2 2 2 -3 -2 -2 -1 -2 -3 -1 -1 -2 0 5 7 7 8 8 8 8 8 6 2 -1 -0 2 3 3 3 3 5 6 8
1 3 -0 -3 -2 -1 -2 0 0 1 2 3 7 3 -3 -3 -2 -2 -1 -2 -2 -3 -3 -1 4 6 7 7 8 8 7 8 8 8 4 2 1 1 -1 0 2 5 7 8
1 1 5 3 2 3 5 3 2 2 4 2 1 0 -2 -3 -4 -4 -4 -3 -3 -4 -3 -2 -1 4 6 7 8 8 8 7 8 8 8 6 3 1 0 0 2 2 3 5
4 1 0 1 -1 -0 0 0 -0 1 0 3 1 1 -0 -2 -2 -3 -3 -2 -2 -3 -3 -2 -1 -1 3 6 7 8 8 7 6 7 7 5 6 5 4 3 3 4 5 4
-0 0 3 0 -2 -1 0 -2 -2 -2 -2 0 1 -0 -3 -2 -4 -4 -4 -3 -2 -2 -2 -2 -1 -1 -1 1 5 7 7 7 6 5 2 4 6 7 7 6 5 6 7 7
-1 1 1 1 1 1 2 -0 -3 -3 -4 -1 0 -4 -3 -2 -2 -1 0 1 -1 -2 -2 -1 -2 -1 -0 -2 -3 0 2 8 5 2 3 3 5 6 7 8 8 8 8 8
-1 1 2 3 3 3 -4 -5 -4 -2 -4 -4 -5 -2 -1 0 2 2 2 2 3 2 1 -0 -1 -1 -1 -0 -1 -3 4 5 3 4 4 3 1 4 6 8 8 8 8 8
-2 -1 2 2 0 -3 -5 -6 -6 -6 -6 -2 -2 -1 -0 1 1 -0 2 2 3 3 3 2 1 -1 -3 -4 -2 -1 -0 0 5 1 2 4 6 3 6 7 9 9 8 8
-1 -1 1 3 1 2 -3 -1 -0 -1 -3 -2 -1 -2 -2 -0 3 1 1 2 2 3 3 4 4 1 -1 -3 -3 -2 -2 2 4 1 3 6 7 7 7 7 8 7 8 9
3 2 4 3 3 0 -3 -5 1 1 2 -2 -2 -2 -2 -0 0 1 2 1 2 3 3 6 7 6 5 1 -1 -1 3 2 5 7 8 8 9 8 9 8 8 8 9 9
3 2 3 3 2 4 -2 -0 1 1 -1 -2 -1 -1 -1 -0 1 2 2 2 3 3 4 7 7 7 5 4 8 7 7 6 6 6 6 7 7 8 8 8 9 9 9 9
2 -0 1 -0 -0 -1 0 -0 -2 2 2 1 2 2 2 3 2 2 2 3 3 4 5 6 6 8 8 7 8 7 6 5 7 9 9 8 8 9 9 9 9 9 9 8
-4 -5 -0 -2 -4 -4 -5 -2 2 2 2 2 2 2 2 3 4 4 4 3 3 3 3 4 4 6 7 7 7 7 8 8 9 9 9 9 9 9 9 8 8 8 8 7
-5 -5 -3 -3 -4 -5 -5 -1 2 2 2 2 1 0 -0 0 1 2 3 1 1 3 3 5 4 4 6 6 6 6 7 7 8 8 9 8 8 8 8 7 6 5 6 4
-5 -5 -2 -3 0 1 -0 1 2 2 2 1 0 -1 -1 -2 -1 -0 -0 1 -0 2 3 3 3 4 3 5 6 5 5 5 6 7 7 7 7 6 5 4 2 1 2 2

GFSCGP_850_dewp_075.txt.gz
Dewpoint
-13 -6 -5 -6 -6 -4 -3 -3 -4 -6 -8 -8 -6 -7 -8 -8 -8 -4 -3 -1 2 5 6 7 8 8 8 9 10 9 10 9 10 10 10 10 9 9 8 5 4 5 6 3
-6 -2 -5 -5 -5 -3 -2 -2 -3 -5 -8 -6 -7 -7 -9 -10 -9 -7 -5 -3 -0 3 5 7 9 9 8 9 9 9 10 9 10 10 9 10 9 9 9 5 5 3 -1 -0
0 -5 -4 -4 -3 -2 -1 -0 -1 -3 -6 -7 -5 -5 -7 -9 -10 -9 -7 -5 -4 0 4 7 8 9 9 9 9 10 9 9 9 10 10 10 9 9 8 7 6 -0 -0 1
3 -1 -5 -2 -2 -2 1 -3 -3 -3 -3 -1 -5 -2 -6 -8 -9 -8 -6 -5 -4 -1 2 6 8 9 9 9 9 9 9 9 10 10 10 9 9 9 8 6 6 3 -1 0
2 1 -1 -3 -3 -3 -1 -4 -3 -4 -2 -1 -2 -2 -4 -7 -7 -7 -6 -7 -5 -2 1 5 7 8 9 9 9 9 10 9 10 10 10 10 10 9 9 9 5 6 0 1
-2 -2 -2 -4 -6 -5 -5 -4 -3 -3 -2 2 -1 -1 -2 -5 -5 -4 -7 -8 -7 -4 1 4 7 8 8 8 8 9 8 9 9 10 9 9 10 9 9 9 9 6 2 3
-3 -1 -4 -5 -3 -7 -5 -2 2 3 3 3 -2 -1 -1 -5 -5 -5 -5 -6 -7 -4 -0 3 6 8 8 9 9 8 9 9 9 9 9 9 9 9 9 9 8 9 6 4
-5 -1 -3 -5 -3 -3 -3 -1 2 5 6 3 -1 -0 -3 -6 -6 -6 -5 -5 -6 -3 -0 2 4 7 8 9 9 8 8 8 9 9 9 9 9 9 9 9 8 8 7 7
-4 -2 -5 -4 -4 -3 -0 -1 -4 0 3 5 2 -1 -3 -4 -4 -5 -4 -4 -5 -4 -3 1 3 6 7 8 9 9 7 8 8 9 9 9 9 9 9 9 9 8 7 6
-4 -3 -6 -3 -4 -4 -2 -2 0 0 5 6 2 1 2 -2 -3 -4 -5 -4 -4 -5 -3 -1 3 5 7 8 9 9 8 7 7 9 9 9 9 9 9 9 9 9 8 7
-6 -1 -1 -4 0 -1 -2 -1 0 0 1 5 6 3 -2 -2 -3 -3 -3 -3 -3 -3 -1 -0 3 4 6 8 9 9 9 7 7 8 9 9 9 9 9 9 9 8 8 8
-4 2 1 -1 -5 -3 -3 -3 -0 4 4 3 3 3 -3 -3 -2 -2 -2 -2 -3 -2 -3 -2 1 3 5 7 8 9 9 8 7 7 8 9 9 9 9 9 9 9 8 9
-2 0 2 3 -0 -3 -2 -2 -1 0 1 5 10 4 -3 -2 -3 -4 -4 -4 -3 -3 -3 -3 -0 3 5 7 8 8 9 9 8 8 8 8 8 8 7 7 8 9 9 9
-1 3 1 -0 2 0 -1 -0 1 0 3 2 2 1 -1 -2 -3 -4 -4 -4 -3 -3 -3 -3 -3 -1 4 6 7 8 8 9 9 8 8 8 8 7 7 7 8 9 9 9
-0 6 3 2 2 -0 1 1 -0 1 1 3 3 1 -1 -2 -3 -3 -3 -3 -3 -3 -3 -3 -2 -2 -1 4 6 7 8 8 9 9 9 9 8 8 9 8 8 8 8 8
-3 -1 -1 3 -1 -2 -1 -1 -1 -2 -2 -2 -2 -1 -4 -4 -4 -6 -5 -3 -1 -1 -1 -2 -2 -1 -2 -1 4 6 7 8 9 9 9 9 9 9 9 9 8 8 8 8
-1 -1 -2 1 -4 -1 2 -1 -2 -2 -2 -2 -0 -0 -4 -3 -4 -3 -2 -1 2 2 2 2 2 1 -0 -1 0 1 5 7 8 9 9 9 9 9 9 9 9 9 8 8
-1 -1 -1 2 2 3 -4 -6 -6 -4 -4 -5 -5 -4 -3 -3 -3 -2 -2 1 2 2 3 2 3 3 2 1 -0 0 1 4 7 8 9 9 9 9 9 9 9 9 9 8
-3 -1 2 3 1 -3 -6 -8 -7 -6 -6 -5 -4 -3 -3 -3 -2 -3 1 1 1 2 2 3 3 5 6 4 1 0 1 2 5 7 8 8 8 8 9 9 9 9 9 9
-3 -2 1 1 2 -0 -6 -4 -3 -5 -2 -3 -3 -3 -3 -3 -0 -2 -0 0 1 0 2 3 5 6 8 8 8 6 3 2 4 6 7 8 8 8 8 8 9 9 9 9
2 3 3 2 2 -2 -5 -5 -3 0 2 -2 -2 -2 -1 -0 -1 -1 -2 0 1 1 2 4 6 7 7 7 7 8 7 5 4 4 6 7 8 8 8 8 9 9 10 9
2 3 3 2 5 2 -6 -4 -0 2 1 -0 -0 -0 -0 -0 -0 -1 -1 0 2 2 3 4 5 5 7 7 7 7 9 8 7 6 5 7 8 8 9 9 10 10 9 9
2 -1 0 -2 -1 -3 -2 -0 0 1 0 0 0 -0 0 1 1 2 1 2 3 2 2 3 3 6 6 6 6 5 7 7 8 8 8 8 8 9 9 9 10 10 9 9
-3 -0 3 4 -1 2 -2 -4 -0 1 1 1 1 1 1 1 1 2 2 3 2 1 1 1 3 4 6 4 4 3 4 6 7 7 8 8 9 9 9 9 9 9 9 8
-5 -4 -4 -5 -5 -6 -6 -1 0 1 1 1 1 1 0 0 0 0 1 1 1 -0 -1 1 2 3 5 3 4 4 3 4 5 5 4 5 6 7 8 6 6 4 5 5
-5 -5 -2 -2 1 1 -1 0 1 1 1 1 -0 -1 -1 -1 -1 -0 0 -1 -1 -2 -2 -0 1 2 2 1 0 3 3 3 4 3 2 1 1 1 3 3 1 1 1 1

GFSCGP_850_dewp_078.txt.gz
Dewpoint
-10 -8 -7 -7 -3 -3 -3 -2 -2 -3 -6 -5 -5 -7 -7 -8 -7 -4 -3 -3 -0 3 4 6 7 7 7 9 10 9 8 10 10 10 10 10 10 9 9 9 7 4 5 2
-5 -5 -8 -8 -9 -7 -5 -4 -2 -2 -4 -6 -6 -7 -8 -8 -8 -8 -7 -3 -3 1 4 6 7 8 7 9 10 10 9 10 9 10 10 10 10 9 9 9 8 7 6 6
1 -1 -4 -5 -4 -5 -3 -1 -0 -1 -3 -4 -5 -4 -5 -7 -8 -10 -10 -9 -5 -1 3 5 8 9 8 9 9 9 9 10 10 10 10 10 10 9 9 9 7 3 1 4
-0 -1 -1 -1 2 2 3 -1 -1 -1 -0 2 -3 -1 -4 -5 -6 -7 -8 -8 -7 -6 1 5 7 9 9 9 9 9 7 10 9 10 10 9 9 9 9 8 5 4 6 6
-1 -0 1 2 4 2 5 1 2 3 0 1 -1 -1 -2 -6 -6 -6 -7 -7 -6 -5 -3 3 7 8 9 9 9 8 8 9 10 9 10 9 9 9 9 8 3 4 5 5
-3 -4 -0 3 3 1 1 2 3 2 1 3 -0 0 0 -2 -4 -6 -7 -6 -6 -4 -3 1 6 8 9 9 9 9 7 8 10 10 10 10 9 9 9 9 7 4 5 3
-3 -3 -1 2 4 2 1 1 8 7 5 5 -1 -0 -0 -3 -5 -5 -4 -6 -7 -6 -2 0 5 7 8 9 9 9 9 8 8 9 9 9 9 9 9 9 8 5 4 1
-5 -2 -5 -3 0 2 1 1 8 8 8 4 -1 1 -1 -4 -5 -6 -6 -6 -6 -5 -1 1 4 7 8 9 9 7 9 7 9 9 10 9 9 9 9 9 9 8 5 -0
-4 -6 -8 -4 -4 -2 4 4 2 7 6 10 6 -1 -3 -5 -5 -6 -5 -4 -5 -3 -3 -1 1 5 7 8 9 9 8 8 9 8 10 9 9 9 9 9 9 9 9 7
-2 -1 -4 -4 -3 -1 2 0 4 5 8 10 6 5 1 -1 -2 -4 -4 -3 -4 -4 -3 -1 1 4 7 8 9 9 7 8 9 9 7 9 10 9 9 9 9 8 9 8
-1 -2 -1 -4 -1 2 2 3 5 5 6 8 8 6 1 2 -2 -0 -0 -2 -2 -2 -2 -1 1 3 6 7 9 9 9 7 8 9 9 8 8 9 9 9 9 9 9 9
2 -0 1 -1 -2 -3 -0 1 1 7 9 6 7 7 1 1 -0 -1 -1 -3 -3 -2 -2 -1 1 3 5 7 8 9 9 8 8 8 8 9 9 9 8 9 9 9 9 9
-3 1 3 3 4 -2 -0 2 3 1 5 10 11 6 1 1 1 -3 -3 -3 -3 -2 -2 -2 -2 1 3 6 7 9 9 9 8 7 8 9 8 9 9 9 9 9 9 9
-3 0 4 7 8 5 4 2 2 3 5 7 9 7 5 4 2 1 -4 -3 -3 -3 -3 -3 -3 -2 1 4 6 7 9 9 9 8 8 8 8 8 8 8 9 9 9 9
-3 3 3 0 4 4 6 6 4 7 7 7 4 5 3 3 1 -0 -3 -3 -2 -0 0 1 2 1 1 1 5 6 7 9 9 9 9 8 8 8 9 8 9 9 9 10
-5 1 -1 -0 -1 4 1 -1 -1 1 3 -0 2 5 2 2 -2 -5 -3 -2 1 2 2 2 2 3 2 2 1 3 7 7 9 9 9 9 8 8 9 9 9 9 8 8
-1 -1 -1 0 -2 -0 3 -0 -1 -2 -2 -2 -0 -2 -1 -2 -3 -3 -3 1 2 2 2 3 3 3 5 4 4 3 0 4 7 8 9 9 9 9 9 9 10 9 9 9
-2 -1 0 3 1 4 -2 -5 -5 -4 -3 -4 -3 -3 -2 -3 -3 -3 -2 2 1 1 1 2 3 5 7 7 6 5 3 1 2 7 8 9 10 10 10 10 10 10 9 9
-3 -1 3 3 2 -2 -5 -7 -7 -6 -5 -6 -5 -3 -3 -3 -3 -1 -1 -0 1 0 1 4 5 6 6 4 5 6 6 5 3 1 7 8 9 10 10 10 10 10 10 10
-3 -0 2 3 3 1 -4 -8 -4 -6 -3 -3 -2 -1 -2 -3 2 1 -1 -2 -0 1 3 4 5 4 3 4 5 6 6 6 8 7 4 5 8 8 9 9 10 10 10 10
1 2 3 4 3 -1 -7 -1 -3 1 3 -1 -2 -1 -0 1 0 -1 -1 -1 2 2 2 3 4 3 4 5 6 7 7 8 8 8 8 4 6 9 8 9 9 9 10 10
1 3 4 3 3 3 -4 -3 2 4 2 1 1 -0 -0 0 -0 0 0 2 3 2 2 2 3 3 5 6 6 6 6 7 7 7 8 8 7 8 8 9 9 9 9 10
5 -0 1 -1 -0 -3 -2 2 1 1 1 1 1 0 0 0 1 1 1 3 2 1 1 1 1 2 4 4 4 4 4 4 5 6 7 8 8 9 9 9 9 9 9 10
-0 0 3 2 -2 -0 4 3 1 0 0 0 0 1 0 1 1 0 1 1 0 -0 -1 -1 -1 1 1 2 2 3 3 2 3 3 4 5 6 7 8 9 9 10 10 10
-2 2 2 4 3 2 3 3 1 1 1 0 -0 -0 -1 -1 -1 -0 0 -1 -1 -2 -2 -3 -1 -1 -0 1 1 1 2 3 3 3 3 3 2 2 2 3 5 6 6 6
-1 2 4 5 2 3 2 1 0 -0 -0 -0 -1 -1 -2 -2 -2 -2 -3 -2 -3 -4 -4 -4 -3 -3 -3 -2 -1 -0 1 1 2 2 2 1 1 -1 -1 -3 -2 -2 -1 -1

GFSCGP_850_dewp_084.txt.gz
Dewpoint
-7 -7 -7 -7 -3 -1 -1 -0 0 -2 -4 -1 -2 -3 -5 -6 -5 -7 -7 -7 -6 -4 0 4 5 5 6 7 7 7 7 10 10 9 10 9 9 9 10 11 11 11 9 9
-6 -6 -8 -7 -6 -4 -3 -2 -3 -5 -5 2 3 1 -2 -1 -3 -7 -5 -5 -5 -0 4 5 5 5 5 6 7 7 8 7 9 10 9 9 8 9 10 10 10 10 10 9
-4 -5 -7 -7 -7 -6 -6 -3 -3 -2 2 2 3 2 -0 -1 -0 -3 -7 -6 -5 -3 4 5 5 5 6 6 7 7 7 5 10 9 9 9 9 10 10 9 10 10 10 10
0 -3 -3 -1 0 -1 0 -3 -1 2 7 7 6 9 4 3 2 0 -5 -7 -6 -3 3 5 6 5 6 6 7 7 7 4 7 9 9 10 10 10 9 9 9 10 9 9
-1 0 1 1 0 -1 1 4 5 5 7 7 6 10 5 3 3 1 -2 -7 -7 -6 1 6 5 5 5 6 7 7 7 4 5 10 9 9 10 9 8 9 10 9 8 8
-6 -7 -1 -1 1 1 4 6 6 6 7 8 4 9 6 4 2 -1 -4 -6 -6 -7 -2 3 5 6 6 7 7 7 7 4 5 9 9 9 9 8 8 8 9 8 8 8
-6 -6 -0 2 5 4 5 6 8 9 9 7 3 8 5 2 -0 -2 -3 -4 -5 -5 -2 6 6 6 6 7 8 8 7 4 4 8 9 9 9 9 8 8 8 8 8 7
-2 -2 2 2 1 4 6 6 8 9 9 8 3 6 4 1 -0 -2 -3 -5 -5 -5 2 6 6 6 6 7 8 8 7 5 3 4 9 9 9 9 8 8 8 8 7 6
-4 -4 -7 1 -0 0 5 6 4 8 9 9 7 6 1 5 5 1 -4 -5 -3 -2 5 6 7 6 6 7 7 8 8 6 3 2 7 9 9 9 8 8 8 8 9 8
-1 2 -1 -4 -2 -1 1 4 8 8 9 10 7 8 11 9 7 4 0 -0 0 2 5 7 6 5 5 5 7 8 8 7 5 1 2 7 9 9 9 9 8 8 8 8
1 2 3 -1 -1 1 1 6 7 7 7 9 10 11 8 9 8 6 4 -0 1 3 6 8 7 5 5 6 7 8 8 8 8 5 2 3 9 10 10 9 9 8 8 8
-2 0 4 2 -3 -3 -0 3 6 9 9 8 9 9 8 8 7 6 3 2 3 3 4 5 8 8 9 9 8 8 8 8 8 8 6 3 2 8 9 9 9 9 8 8
-4 4 4 4 3 5 6 4 4 6 6 8 9 9 7 7 7 6 5 3 3 4 5 6 7 8 9 10 9 9 9 9 9 8 8 6 5 5 6 7 9 9 9 9
-4 -0 3 6 5 6 7 6 6 8 9 7 7 7 6 8 7 7 7 3 3 4 5 5 6 6 7 9 10 10 10 10 9 9 9 8 7 6 7 8 8 8 9 9
-2 -0 1 2 3 1 3 4 6 7 8 9 7 7 7 7 7 7 7 5 3 6 7 5 4 3 2 3 5 6 8 9 10 10 9 9 8 8 8 8 8 8 7 7
1 2 1 1 -0 -1 2 -0 6 7 6 7 7 7 5 7 7 7 7 6 5 6 5 4 3 2 1 1 2 5 6 7 8 10 10 9 9 9 9 8 8 8 8 8
1 3 2 3 1 1 3 2 3 5 5 6 8 4 6 7 5 6 6 6 7 6 3 2 1 2 2 3 1 1 3 5 6 8 10 10 10 10 10 9 9 9 9 9
1 2 4 4 1 3 -1 -5 -4 2 2 4 4 4 5 5 4 2 5 6 6 4 3 2 2 2 2 3 2 3 2 2 4 6 6 7 8 10 10 10 10 10 9 9
1 1 1 2 2 -0 -6 -6 -1 -3 3 2 2 4 4 3 3 3 4 4 4 3 2 2 2 2 2 2 3 2 2 3 3 3 4 5 6 6 7 8 8 10 10 10
1 1 1 1 3 3 -1 -2 -3 -1 6 2 1 2 1 3 6 3 2 2 2 1 1 1 1 1 1 2 2 2 2 2 2 2 2 2 3 4 5 6 7 7 10 10
2 1 2 2 2 2 -1 2 0 4 5 2 2 2 2 3 2 1 0 0 0 0 0 0 1 1 1 1 2 2 3 2 2 2 2 2 2 2 4 5 6 7 8 9
3 3 2 2 2 2 3 3 4 4 2 2 2 2 2 1 0 -0 -0 -0 -0 -1 -0 0 1 1 1 1 1 1 2 3 3 2 2 2 2 2 2 2 5 6 7 8
4 4 3 1 0 3 4 4 3 3 2 1 1 1 1 0 -0 -1 -2 -2 -2 -1 -1 -1 -1 -1 -0 -0 0 1 1 2 2 2 2 1 1 1 1 1 1 4 5 6
3 2 4 3 3 3 3 2 1 1 0 1 1 0 -0 -0 -1 -2 -2 -2 -1 -1 -2 -2 -2 -2 -2 -2 -1 -1 -0 0 0 1 1 0 -0 -1 -1 -1 -1 -0 1 0
3 3 3 4 3 2 2 1 1 -1 -0 0 -1 -1 -1 -2 -2 -2 -2 -2 -3 -3 -3 -3 -3 -4 -4 -4 -3 -3 -2 -2 -1 -1 -1 -1 -2 -3 -3 -3 -4 -3 -4 -2
0 2 3 2 -0 1 -1 -0 0 0 -1 -2 -2 -3 -3 -3 -3 -3 -4 -5 -5 -6 -6 -5 -6 -6 -6 -5 -5 -5 -4 -3 -3 -2 -3 -4 -4 -5 -6 -6 -7 -6 -6 -6

GFSCGP_850_dewp_087.txt.gz
Dewpoint
-7 -6 -6 -8 -2 -1 -0 0 0 -2 -5 1 1 2 -1 -2 -4 -2 -3 -3 -3 -5 -8 -7 1 4 6 7 8 8 8 8 6 5 9 8 10 10 10 11 11 11 10 10
-6 -5 -6 -8 -7 -3 -1 -0 -1 -5 -5 1 2 1 -1 -2 -2 -2 -2 -2 -2 -4 -6 -3 3 5 6 6 7 7 8 7 5 4 8 8 9 10 9 10 10 11 11 10
-4 -5 -7 -8 -7 -6 -6 -5 -5 -4 2 1 4 1 -3 -4 -3 -2 -1 -0 -1 -5 -2 1 3 5 6 6 6 6 7 6 6 5 9 9 9 9 10 10 10 10 11 10
-1 -4 -5 -7 -6 -6 -2 -2 -1 2 4 4 5 4 0 -0 1 1 0 0 -1 -2 -4 1 4 5 6 6 6 7 7 6 5 6 9 9 9 9 9 9 10 10 10 11
0 0 0 0 -0 -1 1 3 4 5 6 7 6 7 -0 2 3 1 1 -0 -1 -2 -3 2 4 3 5 6 6 7 7 7 4 6 7 9 9 9 10 9 10 9 10 10
-4 -8 -4 -0 3 1 4 4 4 6 7 7 3 6 2 -1 -1 0 0 -0 -2 -4 -5 -0 2 6 6 7 7 7 8 7 4 4 7 9 9 9 10 10 9 9 10 10
-6 -7 -1 2 5 4 4 3 3 6 8 6 3 5 3 -0 -0 1 0 -1 -2 -3 -5 -1 6 7 6 6 7 7 8 7 3 2 7 9 9 10 10 9 8 9 9 10
-5 -3 1 2 2 4 5 3 3 7 8 9 3 6 5 3 3 1 0 -0 -1 -2 -4 -2 1 4 5 6 7 7 7 8 4 2 6 8 9 9 8 8 8 8 9 9
-2 -4 -5 1 0 1 6 6 3 6 6 8 7 5 2 6 7 5 3 1 1 -2 -4 -3 2 5 6 6 6 6 7 8 5 3 4 8 9 9 9 9 8 8 8 9
-1 -0 -1 -2 -1 -1 3 3 6 8 8 9 7 6 9 9 8 7 3 3 3 3 0 3 5 5 5 5 6 6 7 8 6 4 4 5 8 9 9 8 8 8 8 8
1 2 2 -1 -0 2 4 6 6 6 8 9 8 9 9 9 8 8 6 3 5 5 7 8 8 8 8 7 7 7 8 8 7 6 4 5 6 9 9 8 8 8 8 8
-2 2 4 3 -1 -1 -0 4 5 7 8 9 8 8 8 7 6 6 6 4 6 7 8 9 9 9 8 8 8 9 9 9 9 8 8 6 6 8 9 9 8 8 8 8
-4 3 3 3 3 4 5 5 4 6 7 8 8 8 6 6 6 6 6 6 7 7 7 9 10 10 10 9 9 9 9 9 9 9 9 8 7 7 7 9 9 9 8 8
-4 1 2 2 3 5 6 5 5 6 8 8 8 6 7 6 6 6 7 7 7 6 5 6 8 9 10 10 10 10 10 10 10 9 9 9 9 8 8 6 7 9 9 8
-2 -1 -0 1 1 2 3 3 3 6 7 8 7 7 6 7 7 7 7 7 6 5 4 4 4 6 7 8 8 9 10 10 10 10 10 9 9 9 9 9 8 8 8 8
0 1 1 1 -0 0 1 -0 1 3 6 7 6 7 4 5 8 7 7 8 6 5 4 3 4 3 3 4 5 6 8 8 10 10 9 9 9 9 9 10 10 9 9 9
1 2 2 3 1 1 2 0 -3 5 5 5 7 6 5 7 6 6 7 7 5 4 3 3 3 3 3 3 3 3 5 6 7 9 9 9 9 9 10 10 10 10 10 10
1 2 3 3 1 2 -3 -6 -6 -2 4 3 3 4 6 6 6 7 7 5 4 3 3 3 3 3 3 2 2 2 2 3 3 4 5 6 7 8 9 9 9 9 9 9
0 1 1 2 2 -1 -3 -6 -0 2 1 2 3 3 5 4 4 3 3 3 2 3 2 2 2 2 3 2 2 2 1 1 1 1 1 2 2 3 4 6 7 8 8 9
1 -0 1 1 3 1 -3 -1 1 0 3 2 3 5 4 4 5 3 0 1 1 1 1 2 1 1 1 1 1 1 2 2 2 2 2 2 2 1 1 1 3 4 5 7
2 1 3 2 2 1 -2 3 1 3 4 3 3 3 3 3 2 0 0 1 0 0 0 0 0 0 0 0 0 1 1 2 2 2 1 1 1 1 1 1 1 2 3 4
1 2 2 2 3 2 3 3 2 3 3 2 3 2 1 -0 -1 -1 -2 -2 -1 -1 -1 -1 -1 -1 -1 -1 -0 0 -0 1 2 1 1 1 1 0 -0 -0 -0 0 1 4
1 1 3 1 1 3 2 2 3 3 3 2 2 1 0 -1 -2 -2 -3 -2 -2 -3 -3 -2 -2 -3 -2 -2 -1 -1 -0 -0 0 0 0 0 0 -0 -1 -1 -1 -1 -0 0
2 1 2 4 4 3 2 1 1 -0 -1 -0 -0 -0 -0 -1 -1 -2 -3 -3 -2 -3 -4 -4 -4 -4 -3 -3 -3 -2 -2 -1 -1 -1 -1 -1 -1 -2 -3 -3 -3 -3 -2 -2
2 1 3 2 2 1 0 0 -0 -0 -0 -1 -2 -3 -2 -2 -3 -4 -5 -5 -5 -5 -5 -5 -5 -5 -5 -5 -5 -4 -4 -3 -3 -3 -3 -4 -4 -4 -5 -5 -5 -5 -6 -5
-1 -0 1 1 -1 -1 -2 -1 -0 0 -0 -2 -3 -4 -4 -3 -4 -5 -6 -8 -7 -7 -7 -7 -7 -7 -7 -6 -6 -6 -5 -5 -5 -5 -5 -5 -6 -6 -7 -7 -7 -7 -7 -8

GFSCGP_850_dewp_090.txt.gz
Dewpoint
-8 -6 -5 -4 -4 -2 0 1 1 -1 -3 -4 -3 -2 0 -2 -3 -3 -3 -4 -4 -4 -4 -4 -5 -7 0 6 6 8 9 9 8 9 9 8 8 9 11 10 11 10 9 11
-7 -4 -6 -7 -5 -3 -1 1 1 -3 -5 0 0 -0 -3 -3 -3 -3 -3 -3 -4 -4 -3 -3 -4 -5 -2 6 6 8 9 8 8 7 8 6 7 8 10 9 10 11 10 9
-4 -6 -6 -7 -6 -5 -4 -2 -4 -3 -0 -1 3 -3 -4 -5 -5 -4 -3 -3 -3 -3 -2 -2 -3 -3 1 5 5 7 8 8 8 6 7 8 8 10 10 10 10 10 10 9
-3 -6 -6 -7 -6 -7 -5 -6 -4 2 1 2 4 3 -2 -4 -5 -4 -3 -2 -2 -2 -2 -2 -2 -0 3 3 6 7 8 7 8 6 6 6 7 9 9 9 9 10 9 10
0 0 -1 -3 -5 -6 -1 1 2 4 5 6 6 4 -2 -4 -5 -6 -7 -2 -1 -1 -1 -2 -2 -4 -2 8 6 7 7 7 7 6 5 7 8 8 8 9 9 10 9 10
-2 -7 -4 -0 4 0 4 3 5 6 5 6 4 3 -1 -4 -4 2 2 -1 -2 -2 -1 -2 -3 -0 2 6 10 7 7 7 7 6 4 6 8 9 9 9 9 9 10 10
-7 -7 -2 3 5 4 1 2 4 3 6 5 1 4 0 -2 -1 6 4 1 0 -0 -1 -3 -2 1 3 6 8 8 7 7 7 6 3 4 8 8 9 9 9 9 9 10
-4 -5 -1 1 0 4 4 2 4 5 8 6 3 7 4 3 6 6 6 4 4 2 -1 -3 -3 -2 0 5 7 7 7 7 7 7 3 3 7 9 9 9 10 9 9 9
-5 -5 -2 1 1 0 6 4 2 4 5 6 3 5 3 6 6 5 6 6 5 6 4 -3 -3 -2 0 5 5 6 7 7 7 7 3 3 6 8 9 9 9 8 8 8
-2 0 -1 0 -1 2 2 3 5 6 8 8 6 6 7 7 7 6 6 6 7 8 6 -0 -1 0 4 7 9 7 7 8 7 7 4 3 7 8 9 9 8 9 8 9
1 0 2 -1 0 4 4 5 5 5 6 8 8 6 7 7 7 7 5 6 7 7 9 6 5 7 8 9 10 9 8 8 8 8 5 4 6 7 9 8 9 9 8 8
-1 2 4 3 2 -0 1 4 5 5 5 7 8 5 7 7 7 7 6 6 6 6 8 9 8 9 10 10 10 10 10 9 8 8 7 6 5 5 8 8 8 8 8 8
-4 3 0 5 4 2 4 5 5 6 6 7 7 5 6 6 6 6 6 7 5 6 6 7 9 9 9 10 10 10 10 9 9 9 8 8 7 6 7 8 8 8 8 8
-2 1 -0 2 1 3 5 4 4 5 6 7 7 6 5 6 6 6 7 7 5 4 4 5 6 6 8 9 9 9 10 10 10 10 9 9 9 8 8 8 8 8 8 8
-2 0 0 0 0 2 2 2 3 6 5 6 3 6 5 4 6 6 7 6 4 4 3 3 3 5 6 7 8 9 9 10 10 10 10 10 10 10 10 9 9 8 8 8
-0 2 1 1 -1 -1 0 -0 -0 -0 1 4 4 5 4 5 5 7 7 6 4 3 3 3 3 4 5 6 6 7 8 9 10 9 9 9 9 9 9 9 10 10 10 9
1 1 1 1 1 -0 -0 -0 -4 -5 4 5 6 5 5 6 6 6 6 5 4 3 2 2 3 3 3 3 4 5 6 8 8 8 9 9 9 9 9 9 9 9 9 9
1 1 2 3 1 0 -4 -6 -6 -1 -0 4 4 3 5 5 4 4 4 3 1 1 2 3 3 3 2 2 2 1 2 2 3 5 6 7 8 8 8 8 8 9 9 9
-1 1 1 2 2 -2 -4 -3 1 0 -1 2 3 3 6 4 2 2 1 2 2 1 1 1 3 2 2 2 2 2 1 1 1 1 1 1 1 2 2 4 6 7 8 8
0 -1 0 1 2 1 -3 -2 1 -0 -3 3 3 4 5 5 6 2 0 0 2 1 1 1 1 1 1 1 1 1 2 1 1 1 1 0 0 1 1 1 1 1 2 3
2 1 2 2 1 1 -1 3 0 1 1 3 2 3 3 2 2 -1 -1 -1 0 -1 -0 -1 -1 -0 -0 -0 -0 -0 0 1 1 1 1 1 0 -0 -1 -0 -0 -0 1 2
0 2 2 1 2 2 2 2 2 3 3 2 2 0 -1 -1 -2 -2 -2 -2 -2 -2 -2 -2 -2 -2 -2 -1 -1 -1 -1 -1 -1 -1 -0 -0 -0 -0 -1 -1 -1 -1 -0 0
-1 2 3 2 1 2 1 1 1 1 1 1 1 -0 -0 -2 -2 -2 -1 -3 -3 -3 -3 -3 -3 -3 -3 -3 -2 -2 -2 -1 -1 -1 -1 -1 -1 -2 -2 -2 -2 -2 -2 -2
-0 1 2 2 2 2 1 0 -1 -1 -2 -1 -0 -1 -1 -3 -4 -5 -4 -5 -4 -5 -5 -5 -5 -5 -5 -4 -4 -3 -3 -2 -3 -2 -2 -2 -3 -4 -4 -4 -4 -4 -4 -4
0 1 0 2 1 -0 -1 -2 -2 -3 -2 -2 -2 -3 -3 -3 -4 -5 -6 -6 -6 -6 -6 -6 -6 -6 -6 -6 -5 -5 -4 -4 -4 -4 -4 -4 -5 -5 -6 -6 -6 -6 -6 -7
-1 -1 -1 1 -2 -1 -3 -3 -3 -4 -4 -4 -3 -3 -3 -4 -5 -5 -6 -7 -6 -6 -7 -7 -7 -7 -7 -7 -7 -6 -6 -6 -5 -5 -6 -6 -7 -7 -7 -7 -8 -8 -8 -8

GFSCGP_850_dewp_093.txt.gz
Dewpoint
-7 -5 -4 -5 -4 -4 -2 -0 0 -1 -3 -2 -1 -1 -2 -3 -2 -3 -3 -4 -4 -5 -6 -6 -6 -5 -4 -5 -2 6 6 8 9 9 10 10 10 10 10 10 10 9 10 10
-6 -4 -6 -6 -5 -4 -3 -2 -1 -1 -2 -2 -2 -2 -3 -4 -4 -4 -4 -4 -4 -5 -5 -6 -6 -5 -4 -5 -5 4 6 7 9 9 9 9 6 8 10 10 11 10 10 10
-8 -7 -7 -6 -6 -4 -4 -3 -2 -3 -3 -2 1 -3 -5 -6 -5 -5 -4 -4 -4 -3 -3 -4 -4 -5 -2 -5 -5 -1 5 7 9 9 9 9 6 9 10 9 9 11 10 9
-2 -7 -6 -5 -5 -6 -4 -6 -5 -4 -2 -1 3 0 -3 -5 -5 -5 -4 -1 0 -2 -3 -4 -3 -3 -3 -4 -1 3 6 7 9 9 9 7 2 8 9 9 10 10 9 9
-0 0 -4 -4 -6 -7 -6 -5 -5 2 2 4 3 3 -4 -6 -6 2 4 5 4 2 0 -1 -2 -3 -3 -1 1 5 7 8 9 8 9 6 4 8 8 8 10 10 10 10
-2 -5 -3 -4 3 -6 2 3 4 5 5 4 1 1 -1 -2 -2 3 5 5 5 5 4 1 -1 -1 0 3 5 5 6 8 9 8 8 6 3 6 9 8 9 9 10 9
-5 -6 1 3 4 3 1 2 5 3 5 -0 1 3 1 2 6 5 5 5 6 6 7 5 0 -1 1 5 4 4 4 7 8 8 8 6 3 7 9 8 9 9 9 10
-4 -2 -0 1 3 4 2 1 2 1 4 5 3 -1 2 6 4 4 5 5 5 6 7 8 3 1 -1 5 7 6 6 6 7 8 8 6 4 7 8 9 9 9 9 10
-4 -5 -0 1 2 1 4 3 1 4 4 4 1 0 1 4 4 5 4 4 5 6 7 8 6 0 1 5 7 7 8 8 7 8 8 6 4 7 8 9 9 9 9 9
-4 2 1 2 0 2 1 2 4 5 6 6 3 4 5 6 6 5 5 4 6 6 7 9 6 1 3 7 10 10 11 10 9 8 8 6 3 5 9 9 9 9 10 9
0 2 3 1 1 4 3 4 5 4 4 5 6 4 7 7 6 7 6 6 6 6 6 9 8 6 8 9 10 10 11 11 10 8 9 7 2 4 9 9 9 9 9 9
0 3 4 4 2 1 2 4 3 3 6 5 6 4 6 6 6 6 5 6 5 4 5 6 10 9 9 10 10 9 10 10 9 8 8 6 2 4 9 8 8 8 9 9
-0 2 7 6 2 -0 3 4 5 5 5 5 6 3 5 4 4 5 6 5 4 3 3 4 7 8 9 9 9 9 9 10 9 8 8 7 5 4 7 7 8 8 8 8
1 1 0 3 3 2 1 0 3 4 5 3 4 2 1 2 5 4 6 4 4 2 2 2 3 5 6 8 8 9 9 10 10 10 10 9 9 7 6 7 8 8 8 8
0 2 1 0 1 2 1 0 0 3 3 4 1 1 1 2 6 6 6 4 4 3 2 1 1 2 6 6 7 8 9 9 9 9 9 10 10 9 9 8 8 8 8 8
-1 3 0 -1 -0 -1 -1 -3 -1 -0 -0 1 1 3 2 5 4 6 5 4 3 2 1 1 -1 1 2 3 5 6 7 9 9 9 9 9 9 9 9 9 9 9 9 9
1 0 -2 -1 -0 -2 -4 -2 -6 -5 -4 1 3 2 3 4 4 5 4 3 1 0 0 1 1 1 1 2 3 5 6 7 7 7 7 8 9 9 9 9 9 9 9 9
1 0 1 0 1 -1 -6 -5 -5 -3 -3 2 3 3 4 4 3 2 1 2 1 1 1 1 2 2 2 2 2 2 2 4 5 6 4 7 8 8 8 8 8 8 8 8
-1 0 2 0 -1 -3 -5 0 -0 -1 -3 3 4 4 5 3 1 -0 -0 -0 0 -0 -0 -0 1 1 1 2 2 2 1 1 2 2 1 1 1 2 4 6 7 7 7 7
-0 -0 0 1 -1 -1 -2 -0 1 1 -5 2 3 5 5 4 5 1 -2 -1 -1 -1 -1 -0 -0 0 1 1 0 1 1 1 1 0 0 -1 -1 -0 0 1 1 2 3 4
2 1 1 1 -0 -1 2 2 0 -2 0 1 1 1 2 1 -0 -3 -2 -3 -2 -3 -3 -3 -2 -1 -1 -1 -0 -1 -0 0 0 -0 -0 -0 -0 -1 -1 -1 -1 -0 0 1
1 1 2 0 1 2 1 1 2 3 2 2 0 -0 -1 -2 -3 -4 -3 -3 -3 -3 -4 -4 -3 -3 -3 -2 -2 -2 -2 -2 -1 -1 -1 -2 -2 -2 -2 -2 -2 -1 -1 -0
2 3 2 2 3 1 0 0 -1 -0 -1 -0 -1 -2 -2 -2 -3 -2 -3 -4 -4 -4 -5 -4 -4 -4 -4 -4 -3 -4 -5 -4 -3 -2 -2 -3 -3 -3 -3 -3 -3 -3 -3 -3
1 0 2 2 1 -1 -2 -2 -3 -3 -3 -3 -2 -2 -2 -3 -4 -4 -5 -5 -6 -6 -6 -6 -6 -6 -6 -5 -5 -4 -4 -4 -4 -4 -4 -5 -5 -5 -5 -5 -5 -5 -5 -5
-1 -1 -1 2 -1 -1 -3 -3 -3 -3 -4 -4 -4 -4 -4 -4 -6 -6 -7 -8 -8 -7 -7 -7 -7 -7 -6 -6 -6 -5 -5 -5 -5 -5 -5 -6 -7 -7 -7 -7 -7 -7 -7 -7
-2 -1 -1 -0 -2 -2 -4 -5 -4 -4 -5 -5 -6 -6 -6 -7 -8 -8 -9 -8 -8 -8 -8 -7 -7 -7 -7 -7 -7 -7 -7 -6 -6 -6 -6 -7 -7 -7 -7 -7 -7 -7 -7 -7

GFSCGP_850_dewp_096.txt.gz
Dewpoint
-9 -7 -4 -5 -4 -4 -4 -3 -2 -3 -4 -2 -2 -3 -4 -4 -4 -4 -3 -4 -4 -4 -4 -4 -5 -3 -1 1 6 10 12 8 8 8 9 8 10 12 11 9 9 9 11 11
-8 -8 -9 -9 -7 -5 -1 0 -2 -4 -3 -2 -2 -2 -4 -4 -4 -4 -4 -4 -4 -4 -4 -4 -4 -3 0 1 -2 9 11 7 8 8 9 8 9 11 10 9 9 10 10 10
-8 -9 -11 -7 -6 -3 -2 -2 -4 -3 -5 -4 -3 -2 -3 -5 -6 -6 -5 -5 -5 -4 -3 -4 -4 -3 0 4 1 8 11 5 8 8 9 9 10 11 10 9 10 10 10 10
-8 -12 -7 -5 -4 -3 -3 -6 -6 -4 -3 -1 -2 -1 -4 -5 -7 -7 -5 1 3 4 3 1 -1 -3 -1 5 8 9 11 6 8 8 9 9 9 9 8 8 10 10 10 10
-2 -5 -5 -5 -7 -8 -6 -9 -6 -7 -6 -4 -2 1 -5 -8 -7 -3 -1 3 4 4 4 4 3 -0 -1 4 9 10 11 7 7 8 10 9 11 9 9 9 9 10 10 11
-2 -3 -5 -6 -6 -7 -8 -7 -4 -2 -1 4 -2 -2 -6 -6 -2 2 3 4 4 4 5 5 6 3 0 4 9 11 9 9 8 9 9 9 10 9 10 9 9 10 10 10
-2 -4 -1 -3 0 -5 -3 -0 4 4 5 1 -3 -1 -5 -0 4 4 4 3 4 4 5 6 6 6 2 7 10 11 10 9 9 9 9 9 8 9 10 9 9 10 10 9
-3 -2 1 1 -2 -1 -1 -1 1 -0 -1 -2 -0 1 -1 2 1 3 2 3 3 4 5 6 7 8 6 7 10 12 12 10 9 9 9 8 9 4 10 10 9 9 9 10
-4 -5 -6 0 0 -2 1 2 -1 1 3 2 -2 -2 -1 2 1 1 2 3 4 4 4 6 7 9 8 6 10 11 12 11 11 10 9 8 8 5 10 10 10 9 9 9
-7 0 -4 1 0 0 0 -1 2 2 5 4 -0 0 2 2 4 3 3 3 5 4 4 6 8 9 6 7 10 10 11 11 11 10 10 8 7 7 10 9 9 9 9 9
-6 -3 1 0 -1 1 2 2 1 1 3 3 2 2 5 5 3 3 3 5 4 4 4 5 6 9 8 9 10 10 10 10 11 10 10 8 7 8 10 9 9 9 9 9
1 -1 1 -1 1 -2 -3 -2 -1 1 5 4 4 3 4 0 0 3 4 4 3 3 3 3 3 6 9 10 9 9 10 10 10 11 10 9 7 9 9 9 9 9 9 10
-0 2 5 5 2 -0 1 1 1 3 3 5 6 3 1 -3 -0 3 5 4 2 2 2 2 2 2 7 9 9 9 9 10 10 10 10 10 10 9 9 10 9 8 9 9
-1 -0 1 2 2 1 3 2 1 2 4 2 2 -1 -4 0 4 3 4 4 3 1 1 0 -0 0 2 7 9 9 9 9 9 10 10 9 9 10 10 9 8 8 8 8
1 0 -1 -1 -2 -2 -3 -4 -3 -2 -1 1 -2 -1 -1 4 5 5 4 3 2 2 1 1 -1 -1 0 3 7 8 8 9 9 9 9 9 9 9 9 9 9 8 8 8
1 1 -3 -1 -4 -5 -5 -7 -7 -5 -4 -3 -2 -1 2 3 3 3 3 2 1 -1 -0 1 0 -1 -1 -0 2 5 8 8 8 9 9 9 9 9 9 9 9 9 9 8
-2 -3 -5 -1 -4 -7 -5 -4 -6 -5 -4 -2 -1 -0 0 4 3 3 2 1 -0 -1 -0 -1 -0 0 -2 -1 0 3 4 5 6 7 7 8 8 8 9 9 9 9 9 9
-3 -5 -4 -3 -4 -6 -4 -6 -4 -4 -1 -0 0 2 4 3 1 -0 -0 -0 -1 -2 -1 -0 -0 -1 0 0 1 1 2 3 3 3 5 5 7 6 7 8 8 8 8 8
-2 -3 -2 -3 -5 -5 -1 -0 -1 -1 -1 0 3 2 3 2 1 -1 -2 -2 -2 -2 -2 -2 -1 0 0 1 -1 1 2 1 1 2 1 3 4 5 3 6 6 6 6 7
-2 -2 -3 -2 -4 -2 1 -1 -1 -1 -1 0 1 2 4 2 6 0 -4 -4 -3 -2 -3 -3 -3 -1 1 1 1 1 1 1 1 1 1 1 0 1 2 2 4 4 5 5
-0 0 0 0 -1 -1 1 -1 -2 -0 4 1 0 -0 -1 -2 -2 -4 -4 -4 -4 -4 -4 -4 -4 -4 -2 -1 -0 0 0 0 0 -0 -0 -0 0 0 -1 -1 0 1 1 1
-0 1 1 0 0 1 0 -1 2 1 1 1 -0 -1 -2 -3 -3 -3 -3 -3 -5 -5 -5 -5 -5 -5 -4 -3 -2 -2 -1 -2 -2 -1 -1 -1 -2 -2 -2 -2 -2 -1 -1 -1
2 2 3 2 2 -0 -2 -2 -2 -2 -2 -1 -2 -2 -3 -4 -4 -5 -5 -5 -5 -5 -6 -7 -6 -7 -5 -4 -4 -4 -4 -3 -3 -3 -3 -3 -4 -3 -4 -3 -3 -3 -4 -4
1 -1 2 3 -0 -2 -2 -2 -3 -3 -4 -3 -3 -3 -4 -5 -5 -5 -6 -6 -6 -7 -7 -7 -7 -7 -8 -7 -6 -6 -5 -5 -4 -4 -5 -6 -6 -6 -6 -6 -6 -6 -6 -6
-1 -2 -0 2 -0 -2 -2 -3 -3 -4 -4 -5 -5 -5 -4 -5 -5 -6 -7 -7 -8 -8 -8 -8 -8 -8 -8 -7 -7 -6 -7 -7 -6 -6 -6 -7 -7 -7 -7 -7 -7 -7 -7 -7
-2 -1 0 -0 -2 -2 -3 -5 -5 -5 -6 -5 -5 -6 -6 -6 -7 -7 -8 -8 -8 -9 -9 -9 -9 -9 -8 -8 -7 -7 -7 -7 -8 -8 -8 -8 -9 -9 -8 -8 -8 -8 -7 -7

GFSCGP_850_dewp_099.txt.gz
Dewpoint
-7 -10 -10 -9 -4 -4 -3 -2 1 -2 -4 -2 -1 -2 -5 -6 -5 -5 -4 -4 -4 -4 -4 -5 -5 -6 -5 -2 2 7 11 13 12 10 8 8 8 8 8 8 11 11 10 9
-7 -10 -14 -10 -8 -4 -2 5 4 0 -3 -2 -3 -2 -4 -5 -5 -5 -4 -4 -4 -4 -4 -4 -4 -4 -4 -4 -0 4 9 13 12 10 9 9 9 9 11 8 11 11 10 9
-4 -12 -15 -12 -9 -6 -0 3 1 -1 -4 -2 -2 -2 -4 -5 -6 -5 -5 -5 -5 -4 -4 -3 -3 -3 -2 -2 1 2 6 11 12 10 12 12 12 12 11 10 11 10 10 10
-5 -14 -11 -10 -8 -8 -3 -3 -2 -3 1 3 -4 -0 -4 -6 -6 -6 -6 -5 -2 1 1 2 1 1 -1 -2 -0 4 6 9 12 12 12 12 12 11 11 11 11 9 9 9
-3 -12 -10 -8 -7 -7 -5 -6 -3 -2 -3 -3 -3 0 -3 -6 -6 -7 -4 -1 2 3 3 3 3 3 2 -0 -1 5 7 9 11 12 12 12 12 11 11 10 10 8 10 10
-5 -9 -9 -9 -8 -8 -6 -6 -7 -6 -6 -2 -4 -3 -2 -6 -8 -4 0 2 2 3 4 4 5 5 4 2 -0 5 9 10 12 11 12 12 12 11 10 10 10 11 10 10
0 2 -7 -9 -5 -5 -5 -4 1 1 1 1 -3 -1 -4 -2 1 2 1 1 1 3 3 4 4 6 7 6 1 5 10 12 11 12 12 12 12 11 10 10 11 10 10 10
4 5 -4 -4 -4 -2 -4 -4 4 4 5 2 -4 -4 -5 -2 -0 1 -0 1 2 3 3 4 5 6 8 8 4 6 10 12 12 12 12 12 12 11 9 10 10 10 9 10
3 -2 -2 -3 -5 -5 -3 -1 -1 4 1 1 -2 -0 1 -0 -0 -0 0 1 3 3 3 4 5 6 8 9 6 8 12 11 11 11 12 12 12 10 9 10 10 9 10 10
-5 2 -5 -3 -2 -4 -3 -4 2 1 3 -1 -3 -2 5 4 2 0 1 3 4 3 3 3 4 5 7 7 6 9 12 11 10 11 11 12 11 10 9 10 10 9 9 9
-7 -0 -4 -3 -0 -1 -1 1 -1 -2 0 5 5 6 2 0 -0 1 3 3 3 3 3 3 3 5 9 9 7 12 11 11 11 10 10 12 11 10 9 9 10 10 9 9
-6 -2 -0 -1 -5 -0 -4 -0 -2 3 2 0 4 7 -0 -4 -1 4 4 4 3 2 2 1 2 3 7 9 11 11 10 10 10 10 10 11 11 10 9 10 10 9 9 9
-0 -0 0 2 -0 1 1 1 -3 1 2 4 4 6 -4 -1 2 4 4 3 2 2 1 1 2 1 2 5 9 10 10 10 10 10 10 10 10 10 9 9 9 9 9 9
2 1 -2 1 0 -2 2 -1 -1 -0 1 1 0 -2 2 4 5 4 3 2 2 2 2 1 0 0 -0 1 4 8 9 10 10 10 10 10 9 9 9 9 9 9 9 9
3 6 5 -0 -4 -3 -0 1 1 1 -2 0 -1 -2 5 5 4 3 2 2 1 1 -0 -1 -1 1 -0 -0 1 4 8 9 9 10 9 9 9 9 9 9 9 9 9 10
1 0 -1 -2 -3 -4 -4 -6 -7 -6 -5 -4 -4 4 3 3 3 3 2 1 -0 -1 -2 -1 -1 0 1 -1 -1 0 2 6 8 9 9 9 9 8 9 9 9 8 8 8
-1 -2 -1 -2 -7 -7 -2 -5 -7 -5 -4 -3 1 3 4 3 2 1 1 -0 -1 -2 -2 -1 -1 -1 -0 0 -1 -0 -0 1 4 6 7 8 8 9 9 9 9 9 8 8
-2 -6 -4 -3 -6 -2 -3 -5 -5 -2 -1 -1 -2 -0 3 2 -1 -2 -2 -2 -3 -3 -3 -1 -1 -0 -1 -0 0 0 0 0 1 2 3 4 4 6 8 9 9 9 9 9
-3 -3 -4 -4 -3 -3 -3 -2 -1 -2 3 -1 -0 1 2 0 -1 -2 -3 -3 -3 -3 -3 -3 -1 -0 -0 -0 -0 0 0 0 1 1 0 1 1 2 2 3 4 5 6 5
-4 -4 -3 -3 -5 -0 4 -1 -2 -3 3 0 -0 0 1 1 5 -1 -4 -3 -3 -3 -4 -4 -4 -2 -0 0 -0 -0 0 0 1 0 -0 -0 -0 -0 -0 0 1 2 3 1
-2 -1 -0 -2 -2 2 1 -1 -2 1 4 1 -0 -1 -2 -2 -3 -4 -4 -4 -4 -4 -5 -5 -5 -5 -3 -2 -1 -0 -0 -0 -0 -0 -0 -0 0 -1 -1 0 1 1 2 2
1 3 1 1 -1 3 -1 -1 2 0 -1 0 -0 -1 -2 -3 -4 -5 -5 -5 -5 -5 -6 -6 -6 -6 -5 -4 -3 -3 -3 -3 -2 -1 -2 -2 -1 -1 -1 -0 -0 -0 -0 -1
2 1 2 2 2 -0 -1 -1 -2 -2 -2 -2 -2 -1 -2 -3 -4 -5 -5 -6 -6 -6 -7 -7 -6 -6 -7 -6 -5 -5 -5 -5 -5 -4 -3 -3 -3 -2 -2 -3 -3 -2 -2 -3
1 -2 3 2 -0 -2 -2 -2 -2 -2 -3 -3 -2 -2 -2 -3 -4 -5 -5 -6 -7 -7 -7 -7 -7 -7 -7 -7 -7 -7 -7 -7 -5 -6 -6 -5 -4 -5 -5 -5 -4 -4 -5 -5
-1 -2 0 0 -1 -2 -3 -3 -3 -3 -3 -3 -3 -4 -4 -4 -5 -6 -7 -7 -7 -8 -7 -7 -7 -7 -8 -8 -9 -8 -7 -7 -7 -7 -8 -8 -8 -7 -7 -7 -8 -7 -7 -7
-2 -1 1 1 -1 -1 -3 -4 -4 -4 -4 -5 -5 -5 -6 -6 -6 -7 -7 -8 -8 -8 -8 -8 -8 -8 -9 -9 -8 -8 -8 -7 -7 -8 -8 -8 -8 -8 -9 -8 -8 -8 -8 -8

GFSCGP_850_dewp_102.txt.gz
Dewpoint
-7 -2 -3 -10 -9 -7 -5 -4 -3 -4 0 0 -0 -2 -4 -5 -5 -5 -5 -5 -5 -5 -5 -6 -8 -8 -8 -7 -4 5 9 8 6 10 8 13 10 9 7 7 11 12 10 8
-10 -0 -3 -11 -14 -12 -8 -3 -2 1 1 2 2 4 2 -4 -4 -5 -5 -5 -4 -4 -4 -4 -4 -5 -6 -6 -4 0 10 10 8 10 9 13 13 9 9 9 9 9 9 10
-12 -8 -3 -9 -11 -14 -9 -5 2 2 3 5 5 5 2 -1 -5 -5 -5 -5 -5 -4 -4 -3 -3 -2 -2 -2 -2 -3 2 11 10 10 13 13 13 12 12 11 11 11 11 10
-14 -15 -5 -8 -12 -14 -7 -7 -0 1 6 7 -1 6 0 -2 -3 -5 -5 -4 -4 -4 -0 -0 1 1 1 1 -1 1 -1 5 11 10 12 13 12 12 11 11 11 10 10 10
-12 -11 -5 -4 -14 -15 -9 -7 -1 -2 3 4 3 7 2 -3 -4 -5 -5 -3 1 2 3 3 3 3 3 4 3 1 2 2 9 10 11 12 12 13 12 12 11 11 9 9
-14 -11 0 -4 -9 -13 -9 -0 0 1 1 8 5 4 0 -1 -2 -4 -2 1 2 2 3 4 4 4 5 5 5 5 2 3 6 8 12 12 12 12 12 11 11 10 9 8
-8 -6 -3 -8 -7 -7 -4 1 3 5 7 5 -3 -2 -1 -2 -5 -0 1 1 2 3 3 3 4 4 5 6 6 7 5 5 7 9 12 12 13 12 11 11 10 9 6 8
-6 7 3 -3 -8 -5 -3 -2 4 1 2 -1 -5 6 4 0 0 0 1 3 3 3 3 3 4 5 6 7 8 9 7 7 9 11 12 12 13 11 11 10 9 9 7 9
6 7 -1 -5 -8 -5 -4 -2 -1 9 6 9 4 6 2 4 1 1 2 3 3 3 3 3 3 3 4 6 7 8 7 9 10 12 11 12 12 11 11 10 10 9 9 9
3 7 -2 -3 -5 -4 -3 -3 5 7 10 10 3 5 7 6 3 3 3 3 3 3 2 2 2 3 5 7 9 8 7 10 11 11 11 11 12 12 11 10 9 9 9 9
1 3 -1 1 6 1 -1 4 5 5 4 7 7 10 6 5 5 5 4 3 2 2 2 1 1 2 5 7 9 12 11 11 11 11 9 11 12 11 10 10 9 9 9 9
-4 1 1 -2 3 0 -0 2 2 7 1 6 8 9 5 5 4 4 3 2 2 2 1 1 0 1 4 6 9 10 11 11 11 10 10 11 12 11 10 10 10 9 9 9
3 1 6 2 -1 4 2 2 0 2 6 4 7 9 5 4 4 3 2 2 1 1 1 0 -0 -0 1 3 6 8 10 10 11 10 10 11 11 10 10 10 9 9 9 9
3 3 5 4 1 5 7 6 5 3 7 4 5 6 5 4 3 2 2 1 1 0 -0 -1 -1 -1 0 2 2 5 7 9 10 10 10 10 10 10 9 9 9 9 9 9
3 6 5 4 2 1 5 6 5 1 -1 7 3 7 5 4 3 3 2 1 0 -0 -1 -1 -1 -1 -1 1 1 1 3 6 8 9 10 10 10 10 9 9 9 8 8 9
2 6 4 5 1 3 1 -3 -3 -4 -2 -0 5 7 4 3 3 2 1 0 -1 -1 -2 -2 -1 -1 -0 -0 1 0 0 2 4 6 8 9 9 9 8 8 10 10 10 10
2 1 4 -1 -5 -3 1 -3 -1 -0 -1 2 6 5 3 2 0 -0 -0 -1 -2 -2 -2 -2 -2 -2 -1 -0 -1 1 -0 0 1 3 4 6 7 8 9 9 9 9 9 9
1 -1 -1 -2 -3 5 0 -1 1 1 0 -1 -1 2 1 -0 -2 -2 -3 -3 -3 -2 -2 -3 -2 -2 -2 -1 -0 -0 1 0 0 1 1 2 3 5 6 8 8 8 8 8
-4 -0 1 2 1 1 1 0 1 4 4 0 0 0 1 -1 -1 -3 -3 -3 -3 -3 -4 -4 -4 -4 -3 -2 -1 -0 -0 0 0 0 0 1 1 2 2 2 3 3 5 7
-5 -1 2 0 -1 5 2 -1 -2 -2 4 1 -1 -1 1 1 4 -2 -4 -4 -4 -4 -5 -5 -5 -5 -4 -4 -3 -1 -1 -1 -1 -1 -1 -0 0 1 1 0 0 0 1 0
1 2 3 1 1 2 -1 -2 -2 3 2 1 -1 -2 -2 -2 -3 -4 -4 -4 -4 -4 -6 -5 -5 -5 -6 -5 -4 -3 -4 -3 -4 -3 -1 -1 -0 0 0 0 -1 -1 0 0
1 3 2 2 3 3 -2 -2 0 -0 -1 -1 -0 -1 -2 -3 -4 -5 -5 -5 -5 -4 -6 -6 -6 -6 -6 -6 -6 -5 -5 -5 -4 -3 -2 -3 -2 -1 -2 -1 -2 -3 -2 -1
3 1 1 1 1 -0 -2 -1 -2 -1 -2 -2 -2 -2 -2 -3 -4 -5 -6 -6 -7 -7 -7 -7 -7 -6 -7 -7 -6 -6 -6 -6 -6 -5 -4 -3 -3 -3 -3 -3 -4 -4 -3 -2
0 -3 2 1 -1 -2 -2 -2 -2 -2 -2 -2 -3 -3 -2 -3 -4 -5 -6 -7 -7 -7 -7 -7 -7 -7 -8 -8 -7 -7 -6 -6 -6 -6 -6 -5 -4 -4 -4 -5 -5 -4 -5 -5
-1 -2 -0 -0 -2 -2 -3 -3 -3 -3 -3 -4 -4 -5 -5 -5 -6 -6 -7 -7 -7 -7 -7 -7 -7 -8 -9 -9 -8 -7 -7 -6 -7 -7 -7 -7 -8 -7 -6 -6 -6 -6 -7 -6
-2 -1 -0 -0 -1 -2 -2 -3 -3 -5 -5 -6 -6 -6 -7 -6 -6 -7 -7 -8 -8 -8 -8 -8 -9 -9 -10 -9 -8 -7 -7 -7 -8 -8 -8 -8 -8 -8 -8 -8 -8 -8 -8 -7

GFSCGP_850_dewp_108.txt.gz
Dewpoint
-5 -4 -6 -10 -9 -2 -3 -7 -8 -10 -11 -6 -5 -7 3 2 -4 -5 -3 -3 -4 -4 -4 -5 -6 -7 -7 -7 -8 -11 -11 -3 12 11 11 11 10 9 9 10 8 9 6 8
-3 -2 -3 -2 -3 -7 -6 -1 -1 -8 -11 -9 2 5 3 3 3 1 -1 -1 -1 -2 -4 -4 -4 -6 -6 -6 -6 -7 -11 -8 3 11 10 10 8 9 8 9 9 9 10 9
-1 -4 -6 -2 -1 -1 -10 -9 -1 -1 -9 -8 2 3 2 -0 1 1 1 1 -0 -1 0 1 1 1 0 2 1 2 2 -1 4 10 11 11 9 12 12 11 10 9 11 12
-4 -5 -5 -2 -1 -1 -2 -7 -0 1 -3 -4 3 4 4 2 2 1 0 0 3 4 4 4 4 4 5 7 10 12 13 11 13 14 12 10 7 8 8 7 8 10 11 11
-1 -3 -2 -0 -1 -2 -2 -6 -1 -2 -6 -3 2 7 5 3 4 3 1 4 4 4 3 3 3 2 2 4 6 9 13 15 14 13 12 11 9 9 9 8 9 10 12 12
-0 -2 -1 -2 -6 -6 -4 0 0 2 -1 -1 -3 7 4 4 3 6 5 4 3 2 2 2 2 2 2 2 2 4 7 10 11 14 13 11 10 10 9 9 9 9 10 10
-1 -0 -6 -4 -2 -4 -1 2 3 3 5 4 2 7 3 7 7 5 3 2 2 1 1 1 2 2 1 1 1 3 2 4 6 8 11 13 12 10 8 7 8 9 10 11
-0 0 -3 0 -1 -3 2 1 2 7 7 5 3 6 6 6 4 3 2 1 1 1 1 1 2 2 2 2 2 2 1 3 2 5 7 9 12 12 11 9 10 10 9 10
5 2 -3 -4 -4 -1 0 2 0 4 6 4 4 6 6 4 4 3 2 1 1 1 0 1 2 2 3 4 5 6 6 5 5 4 6 7 10 11 11 10 11 11 11 11
5 4 -0 1 1 1 1 1 2 4 3 4 6 7 8 6 4 3 2 1 1 0 -0 0 1 2 3 4 6 7 8 9 9 6 4 7 11 12 11 9 11 11 11 11
5 4 4 2 4 4 2 4 5 4 6 7 8 8 6 4 3 2 1 1 0 -0 -0 -0 -0 1 2 3 4 5 7 8 10 10 10 9 12 11 10 10 10 12 12 11
2 5 6 4 3 4 3 4 4 5 6 7 8 5 3 3 2 1 1 1 -0 -1 -1 -1 0 0 1 1 2 3 5 6 8 10 12 12 12 12 11 10 10 12 12 10
3 5 5 4 5 4 5 3 3 6 6 8 7 5 3 3 1 1 0 -0 -1 -1 -1 -1 -0 -0 0 0 1 2 3 5 6 10 11 11 11 11 10 10 10 11 11 10
3 4 4 5 4 3 6 6 6 6 8 7 6 5 4 2 2 1 0 -0 -1 -2 -2 -2 -1 -1 -1 -0 -0 1 2 3 5 7 9 10 11 11 11 11 11 11 10 10
3 5 4 6 5 6 5 6 6 7 6 6 5 4 3 2 1 0 -0 -1 -1 -2 -3 -3 -2 -2 -1 -1 -0 0 1 2 3 4 7 9 9 10 10 10 10 11 10 9
2 5 4 5 5 4 5 4 4 5 5 5 4 2 1 -1 -1 -1 -1 -2 -2 -3 -4 -4 -3 -3 -2 -2 -1 -0 0 1 1 2 3 4 7 8 8 10 10 10 10 10
2 3 5 6 4 4 3 3 3 3 3 3 4 2 -0 -2 -2 -3 -2 -2 -2 -4 -4 -5 -4 -4 -3 -3 -2 -1 -0 0 1 1 1 2 3 5 6 7 6 10 9 9
2 1 3 4 5 3 3 1 1 1 0 0 2 0 -2 -3 -3 -4 -3 -3 -4 -5 -5 -5 -4 -4 -3 -3 -2 -2 -1 -1 -0 -0 0 1 1 2 1 3 3 6 7 9
-0 1 5 6 5 4 1 -1 0 2 1 -0 -0 -0 -2 -3 -3 -4 -4 -3 -4 -5 -6 -6 -5 -5 -4 -4 -4 -3 -2 -2 -1 -1 -1 -1 0 1 1 0 0 1 1 3
-0 0 4 5 3 4 1 -2 -3 -2 1 -0 -2 -2 -3 -1 -2 -4 -4 -5 -5 -6 -6 -7 -6 -5 -5 -6 -5 -4 -4 -3 -2 -2 -2 -1 -1 -1 -1 -0 -0 0 0 0
1 2 2 3 2 1 -2 -2 -2 1 0 -1 -2 -3 -4 -4 -4 -5 -5 -6 -6 -6 -7 -7 -7 -6 -6 -6 -6 -6 -6 -5 -4 -3 -2 -2 -1 -2 -1 -1 -1 -0 -0 0
2 3 1 1 0 0 -2 -2 -1 -1 -1 -2 -2 -3 -4 -6 -6 -5 -6 -7 -7 -7 -7 -7 -7 -7 -6 -6 -6 -7 -7 -7 -6 -4 -4 -3 -3 -2 -2 -2 -2 -1 -1 -1
2 0 0 0 -0 -1 -1 -2 -2 -1 -2 -1 -2 -3 -5 -6 -7 -7 -7 -7 -7 -7 -8 -8 -8 -7 -7 -7 -7 -7 -7 -7 -7 -7 -5 -5 -4 -4 -3 -3 -3 -3 -3 -3
2 -1 -1 -1 -1 -2 -2 -2 -2 -2 -3 -4 -3 -3 -4 -5 -6 -7 -7 -7 -7 -8 -8 -8 -8 -8 -8 -7 -7 -7 -7 -8 -7 -7 -8 -8 -6 -6 -5 -5 -5 -5 -4 -5
-1 -1 -1 -1 -2 -2 -3 -3 -4 -5 -4 -6 -6 -5 -6 -6 -7 -7 -8 -8 -8 -9 -9 -9 -9 -9 -9 -9 -8 -8 -8 -8 -8 -8 -8 -8 -8 -8 -7 -7 -7 -7 -7 -7
-2 -1 0 -1 -1 -2 -3 -4 -5 -7 -7 -7 -7 -7 -7 -7 -7 -8 -8 -8 -9 -10 -10 -10 -10 -9 -9 -9 -9 -9 -9 -8 -8 -8 -8 -8 -9 -9 -9 -9 -8 -8 -8 -8

GFSCGP_850_dewp_114.txt.gz
Dewpoint
-8 -5 -4 -5 -7 -7 -7 -7 -6 -8 -9 -9 -8 -6 -6 -7 -7 -9 -10 -10 -8 -6 -7 -5 -6 -6 -5 8 11 10 9 10 10 12 12 11 7 5 5 5 5 5 5 5
-3 -1 -5 -7 -6 -3 -2 -1 -2 -5 -8 -4 -5 -4 -7 -6 -6 -6 -6 -10 -4 -5 -3 -2 -2 -4 -5 -2 8 12 11 11 11 12 12 12 11 9 7 7 7 8 7 5
-3 -4 -6 -5 -5 -5 -4 -3 -5 -4 -4 -3 -3 -4 -6 -7 -9 -7 -6 -6 0 1 3 3 3 2 -2 -3 -3 3 10 12 11 11 12 12 13 12 11 10 9 8 9 9
-2 -4 -4 -4 -4 -4 -2 -5 -4 -2 0 2 -3 1 -2 -7 -6 -5 2 2 2 2 3 4 5 6 5 3 -0 -3 -2 -1 5 10 12 13 12 11 10 10 10 10 10 10
-0 -1 -1 -0 -1 -4 -3 -3 -2 -2 1 1 -0 2 -0 -4 -2 4 3 2 1 1 2 2 3 4 6 9 9 9 6 1 5 13 12 15 14 11 12 11 11 10 10 10
-1 -2 -2 -1 -2 -3 -3 -1 -1 -0 1 3 -1 0 -1 6 6 4 3 2 1 1 1 1 2 3 4 6 10 11 11 11 11 12 13 13 13 13 11 13 12 10 9 8
0 -0 -1 -1 1 -3 -2 -0 2 2 4 3 -2 -0 3 4 3 3 2 2 1 0 -0 -0 1 2 4 4 5 8 9 11 12 12 12 13 13 13 12 12 11 6 8 8
4 2 -3 -3 -2 -4 -2 -1 3 5 5 5 2 4 4 3 1 1 1 1 0 -0 -1 -1 -1 -0 1 3 5 5 5 7 9 11 12 12 12 13 14 13 12 11 10 9
3 3 -1 -1 -2 -2 -1 2 2 5 4 6 7 5 3 1 1 0 -1 -1 -1 -1 -1 -2 -1 -0 1 2 4 5 6 6 5 5 6 9 12 13 13 13 13 10 9 10
2 5 1 -0 2 -2 -1 1 5 5 6 5 5 4 4 1 1 0 -1 -1 -2 -2 -2 -2 -2 -0 1 2 2 4 5 7 7 7 7 6 5 6 10 12 12 11 10 9
-2 4 2 1 3 3 4 4 4 5 5 6 5 4 3 1 0 -0 -1 -1 -2 -2 -3 -3 -2 -1 -0 1 1 3 5 7 8 8 8 9 9 6 4 7 11 12 12 11
0 5 4 2 -1 3 4 4 4 6 5 6 5 3 1 1 1 -1 -2 -2 -3 -3 -3 -3 -2 -1 0 0 -1 2 3 5 6 7 8 9 9 9 10 8 10 11 12 12
3 4 4 2 2 3 4 3 3 5 6 5 5 3 2 1 0 -1 -2 -3 -4 -4 -4 -4 -3 -3 -2 -1 0 1 1 3 3 5 7 8 9 9 10 10 11 11 11 12
2 5 5 4 4 4 3 5 6 6 5 4 3 2 1 -0 -1 -1 -3 -3 -4 -4 -4 -3 -3 -3 -2 -1 -1 0 0 1 2 3 5 6 7 8 9 9 10 10 10 10
3 5 4 3 3 2 2 4 4 3 3 2 2 0 -0 -1 -2 -2 -3 -5 -5 -5 -5 -5 -5 -4 -3 -2 -1 -1 -0 0 1 1 2 3 4 5 7 8 9 9 9 9
2 4 4 5 4 4 1 1 0 2 3 1 0 -1 -1 -2 -3 -3 -4 -5 -5 -5 -6 -6 -6 -5 -5 -4 -3 -2 -1 -1 -0 0 1 1 2 3 4 5 6 7 8 9
2 4 4 5 2 1 0 1 1 -0 1 2 0 -1 -2 -3 -4 -4 -4 -5 -6 -6 -6 -6 -6 -6 -6 -5 -4 -2 -2 -1 -1 -1 -0 0 0 1 1 2 3 4 5 5
2 4 4 5 4 3 1 -1 -1 -1 -1 -0 -2 -2 -4 -4 -4 -5 -5 -6 -7 -7 -7 -6 -6 -6 -6 -6 -5 -4 -3 -2 -2 -2 -1 -1 -0 0 0 1 1 1 2 3
1 3 5 5 3 2 1 -1 -1 0 -0 -2 -0 -1 -2 -3 -3 -5 -5 -6 -7 -7 -7 -7 -6 -6 -6 -6 -7 -6 -4 -4 -3 -2 -2 -2 -1 -1 -1 -0 -0 0 1 1
0 0 3 3 3 3 -1 -3 -1 -2 0 -3 -3 -4 -3 -2 -3 -6 -7 -7 -7 -8 -8 -7 -7 -7 -7 -7 -7 -7 -7 -6 -5 -4 -4 -3 -2 -2 -1 -1 -1 -1 -0 -0
1 2 2 3 2 1 -2 -2 -0 1 -0 -3 -4 -4 -5 -5 -5 -7 -7 -7 -8 -8 -8 -8 -7 -7 -7 -7 -7 -7 -7 -8 -8 -7 -5 -4 -4 -3 -3 -2 -2 -2 -1 -1
-0 1 1 2 1 1 -2 -1 -1 -1 -2 -3 -4 -4 -5 -6 -6 -7 -7 -8 -8 -9 -9 -8 -8 -8 -8 -8 -8 -8 -8 -7 -8 -8 -8 -7 -5 -5 -4 -4 -3 -3 -3 -3
1 -1 0 -0 -1 -2 -2 -2 -2 -2 -2 -3 -4 -4 -6 -7 -7 -7 -7 -8 -9 -9 -9 -9 -9 -9 -8 -8 -8 -8 -8 -8 -8 -8 -8 -9 -8 -7 -6 -5 -5 -5 -5 -5
1 -1 -1 -2 -2 -2 -3 -3 -3 -3 -2 -3 -4 -4 -5 -7 -7 -7 -8 -8 -9 -9 -9 -9 -9 -9 -9 -9 -9 -9 -9 -9 -9 -9 -9 -9 -9 -9 -8 -8 -7 -7 -7 -7
-1 -1 -1 -2 -2 -3 -4 -4 -4 -5 -5 -4 -4 -5 -6 -6 -7 -8 -8 -9 -10 -10 -10 -10 -10 -10 -10 -10 -10 -10 -10 -10 -10 -10 -9 -9 -9 -10 -9 -9 -8 -8 -8 -8
-1 -1 -0 -1 -3 -3 -4 -5 -4 -5 -6 -7 -7 -7 -7 -8 -8 -9 -9 -10 -10 -11 -11 -12 -12 -11 -10 -10 -10 -10 -11 -11 -11 -10 -10 -10 -10 -10 -10 -10 -10 -9 -9 -9

GFSCGP_850_dewp_117.txt.gz
Dewpoint
-7 -6 -5 -6 -7 -7 -7 -6 -6 -7 -8 -6 -6 -8 -8 -6 -6 -7 -9 -8 -8 -10 -11 -11 -10 -9 -8 -5 -5 6 6 10 10 9 7 8 7 5 4 4 3 3 2 1
-3 -2 -5 -6 -6 -5 -5 -4 -4 -5 -7 -7 -7 -5 -5 -5 -5 -6 -7 -9 -9 -8 -8 -8 -4 -3 -4 -4 -3 12 12 11 11 9 10 10 10 8 6 6 5 5 4 3
-1 -3 -6 -5 -4 -4 -4 -3 -4 -4 -6 -6 -4 -3 -6 -7 -8 -7 -8 -4 -4 -0 -1 2 3 3 2 -1 2 13 13 13 11 11 11 11 11 11 10 8 7 7 6 5
-1 -4 -4 -3 -1 -3 -1 -5 -5 -4 -2 -1 -3 2 -3 -3 -1 2 2 1 1 1 2 2 3 5 5 4 2 8 14 14 13 11 10 10 9 9 9 10 8 8 8 7
-2 -1 -1 0 -0 -4 -5 -5 -3 -2 -1 0 -2 2 -3 1 3 3 2 2 1 1 1 1 1 2 4 7 8 6 8 14 13 12 12 11 11 10 10 11 11 11 10 9
-1 -2 -2 -1 -2 -3 -4 -1 -1 -1 1 3 -1 1 -0 3 2 2 1 1 1 0 0 -0 -0 1 3 5 8 9 10 12 13 13 14 14 12 12 13 12 12 11 11 10
-1 -1 -2 -2 -1 -3 -1 -1 2 2 3 2 3 3 3 3 2 1 0 -1 -0 -0 -0 -1 -1 1 2 4 6 8 9 10 10 11 12 12 12 12 13 13 12 13 12 11
2 -1 -2 -3 -2 -0 -2 -1 3 5 3 4 4 5 3 2 -0 -0 -1 -2 -2 -1 -1 -1 -2 -1 1 2 4 7 8 9 10 10 11 11 12 12 13 12 13 13 13 10
2 2 -1 -2 -1 -2 -0 1 -1 5 3 5 5 4 3 -1 -1 -1 -1 -2 -2 -3 -2 -2 -3 -2 0 1 3 5 6 7 8 9 10 11 11 12 12 12 12 13 12 12
-1 4 -1 -1 -1 -0 -0 -1 6 5 6 4 5 3 2 0 0 -1 -2 -2 -3 -3 -3 -3 -3 -3 -2 0 2 4 5 6 6 7 7 8 9 11 11 12 12 12 12 12
-3 2 -0 0 1 1 1 3 5 6 5 6 6 3 2 1 -0 -1 -2 -3 -3 -4 -4 -4 -4 -4 -3 -1 1 3 4 5 6 6 7 8 8 8 7 7 11 12 12 11
-1 4 2 0 -2 1 2 3 5 5 5 6 4 2 1 1 -0 -2 -3 -4 -4 -4 -5 -5 -5 -4 -3 -1 0 1 3 4 5 5 6 7 7 8 9 9 7 7 11 11
2 3 4 -0 1 -3 1 2 4 5 6 6 5 3 1 -1 -1 -3 -4 -4 -5 -5 -5 -5 -6 -5 -3 -2 -1 -0 0 1 2 4 5 6 7 8 8 9 9 10 9 10
1 3 3 3 3 3 2 2 4 6 5 2 2 0 -1 -1 -2 -3 -4 -5 -5 -5 -6 -6 -6 -5 -3 -3 -1 -1 -0 -0 0 2 4 4 5 6 7 8 9 9 10 10
2 4 4 4 3 1 2 1 2 2 1 0 1 -1 -1 -2 -2 -4 -5 -5 -5 -6 -6 -6 -7 -6 -4 -3 -2 -1 -1 -1 -0 1 1 2 2 3 5 6 7 8 8 9
2 3 4 4 4 4 1 1 -1 2 0 0 -1 -1 -2 -3 -4 -4 -5 -6 -6 -6 -7 -7 -7 -7 -6 -4 -3 -2 -2 -1 -1 -0 -0 0 1 1 2 3 4 5 6 6
1 2 4 4 4 2 2 1 0 -0 -0 0 -1 -1 -3 -4 -4 -5 -6 -6 -7 -7 -7 -7 -7 -7 -7 -6 -5 -3 -3 -2 -1 -1 -1 -1 -0 -0 0 1 2 2 3 4
2 1 3 4 4 4 2 -0 -0 -2 -1 -1 -2 -3 -5 -5 -5 -6 -7 -7 -7 -8 -8 -8 -7 -7 -7 -7 -7 -5 -4 -4 -3 -2 -2 -1 -1 -1 -1 -0 -0 1 1 1
-1 2 3 5 3 3 1 -1 -1 -0 -1 -2 -2 -2 -4 -4 -4 -6 -8 -8 -8 -9 -8 -7 -7 -7 -7 -7 -7 -8 -7 -6 -5 -4 -3 -2 -2 -2 -1 -1 -1 -1 -0 0
1 1 3 4 4 4 -0 -1 -1 -1 -1 -3 -4 -4 -5 -2 -3 -6 -8 -8 -8 -9 -8 -8 -7 -7 -7 -7 -7 -7 -8 -8 -7 -6 -5 -4 -3 -3 -2 -2 -2 -2 -1 -2
-0 0 1 2 2 0 -2 -1 -0 1 -0 -3 -5 -5 -6 -6 -6 -7 -8 -8 -9 -9 -8 -8 -8 -8 -8 -8 -8 -8 -8 -8 -8 -8 -7 -6 -5 -5 -4 -4 -3 -3 -3 -3
-1 1 0 1 2 1 -2 -0 -1 -2 -2 -4 -4 -5 -6 -6 -7 -7 -8 -9 -9 -9 -9 -9 -9 -9 -9 -9 -9 -9 -8 -8 -9 -9 -9 -8 -7 -6 -6 -6 -5 -5 -5 -5
0 -1 -1 -1 -1 -2 -2 -2 -2 -2 -3 -3 -4 -6 -6 -7 -7 -8 -8 -9 -10 -10 -9 -9 -9 -9 -10 -10 -10 -9 -9 -9 -9 -9 -9 -9 -9 -9 -8 -8 -7 -7 -7 -6
-0 -1 -1 -1 -2 -2 -3 -3 -3 -3 -3 -4 -5 -6 -7 -7 -8 -8 -9 -10 -10 -10 -10 -10 -10 -10 -10 -10 -10 -10 -10 -10 -10 -10 -10 -10 -10 -10 -10 -9 -9 -9 -8 -8
-1 -1 -2 -2 -3 -3 -4 -4 -4 -4 -4 -4 -5 -6 -7 -7 -8 -9 -10 -10 -11 -12 -12 -12 -11 -11 -11 -11 -11 -12 -13 -14 -11 -12 -12 -12 -11 -11 -10 -10 -10 -10 -10 -9
-1 -1 -1 -1 -3 -3 -4 -4 -4 -6 -7 -7 -7 -8 -8 -9 -9 -10 -10 -10 -11 -12 -13 -14 -15 -16 -15 -14 -13 -13 -15 -16 -17 -17 -17 -17 -16 -14 -13 -12 -12 -12 -11 -11

GFSCGP_850_dewp_120.txt.gz
Dewpoint
-6 -6 -9 -9 -7 -7 -7 -7 -7 -8 -10 -8 -8 -9 -10 -10 -9 -8 -8 -8 -8 -8 -9 -11 -11 -10 -10 -9 0 -0 -2 7 13 13 12 11 11 9 10 12 12 4 3 5
-4 -4 -8 -7 -6 -5 -5 -5 -5 -8 -9 -8 -8 -7 -9 -8 -4 -1 0 -0 -1 -2 -5 -8 -10 -9 0 3 4 4 2 5 12 13 12 11 9 10 10 12 12 7 2 4
-3 -6 -6 -5 -4 -3 -4 -4 -5 -6 -7 -6 -6 -6 -7 -5 -3 -3 -1 0 1 1 1 1 1 2 3 3 5 5 7 5 11 12 13 12 12 12 12 12 11 3 3 4
-3 -5 -5 -3 -2 -3 -1 -8 -8 -7 -3 -1 -4 1 -4 -3 -3 -3 -2 -0 1 1 1 2 2 2 3 3 3 5 9 11 12 13 13 13 12 10 12 10 9 4 5 6
-3 -3 -2 -1 -3 -5 -4 -5 -5 -4 -1 -1 -3 0 -3 -2 -1 -1 -2 -1 -1 -1 -0 0 0 0 0 3 5 5 8 12 14 13 13 13 14 13 14 13 11 8 6 7
-2 -4 -2 -2 -3 -3 -4 -2 -2 -2 -1 2 -1 2 0 2 1 -1 -0 -2 -1 -2 -1 -1 -1 -1 -0 1 3 6 7 12 14 14 14 14 13 13 13 11 11 9 9 9
-4 -3 -3 -2 -2 -3 -2 0 2 2 4 -2 -0 3 3 2 1 1 -0 -1 -2 -3 -3 -2 -2 -2 -1 -1 2 5 6 9 11 13 13 13 11 10 13 13 13 13 10 10
-1 -1 -2 -3 -2 -1 -1 0 2 5 3 2 -0 4 3 -1 -1 -1 -2 -2 -2 -3 -4 -4 -3 -3 -2 -2 -0 5 5 8 9 10 11 12 12 13 13 12 14 13 13 13
1 2 -4 -4 -4 -1 -1 1 -1 4 3 5 4 4 3 -3 -2 -2 -2 -3 -3 -4 -4 -4 -4 -3 -3 -3 -1 4 4 6 8 10 11 12 12 12 12 12 12 12 12 12
-1 4 -3 -2 -2 -2 -0 -1 3 6 7 6 6 4 3 1 -1 -1 -2 -3 -4 -4 -5 -5 -5 -5 -4 -3 -2 2 2 5 6 8 8 10 11 11 11 11 12 12 12 12
-3 3 -1 -2 -1 -1 -0 2 3 4 3 6 5 5 2 1 -0 -2 -3 -3 -4 -4 -5 -6 -6 -5 -5 -4 -2 -1 1 4 5 6 7 7 8 9 9 10 10 11 11 11
-1 2 2 -1 -3 -4 -3 1 5 6 5 6 6 4 1 -1 -1 -3 -3 -4 -5 -5 -5 -6 -6 -5 -5 -4 -3 0 2 3 3 4 5 7 7 8 8 8 9 8 8 10
1 2 3 -1 1 -3 -1 -1 0 3 6 6 7 4 -1 -2 -2 -3 -4 -4 -5 -5 -6 -6 -6 -6 -5 -4 -3 -3 -1 1 2 4 5 5 6 7 7 7 8 9 9 9
0 1 4 3 2 1 2 0 1 6 8 4 3 1 -1 -2 -3 -4 -4 -5 -5 -6 -6 -6 -7 -7 -5 -5 -4 -3 -2 -2 -1 1 2 3 4 4 5 6 7 8 8 9
-1 3 3 2 3 3 1 2 2 2 3 4 2 -0 -1 -2 -3 -4 -4 -5 -5 -6 -6 -7 -7 -7 -7 -5 -4 -3 -2 -1 -1 -0 0 0 1 2 3 4 5 5 6 7
0 4 5 4 4 4 2 2 0 1 1 0 -1 -1 -2 -4 -4 -5 -5 -6 -7 -6 -6 -7 -7 -7 -7 -7 -7 -4 -3 -2 -1 -1 -1 -0 -0 0 1 1 2 3 3 4
1 2 3 3 4 2 3 2 1 0 -1 1 1 -1 -3 -3 -5 -6 -6 -6 -7 -6 -7 -8 -8 -8 -7 -7 -7 -5 -5 -4 -2 -2 -1 -1 -1 -0 -0 0 1 1 1 1
1 1 2 2 4 6 3 -1 -2 -2 -2 -3 -3 -3 -4 -5 -5 -6 -6 -6 -6 -7 -7 -8 -8 -8 -7 -7 -7 -7 -6 -5 -4 -3 -2 -2 -2 -1 -1 -1 -1 -1 -0 -0
-2 1 2 4 5 3 1 -0 -0 0 -1 -3 -2 -3 -4 -4 -4 -6 -7 -7 -7 -8 -8 -8 -8 -8 -8 -7 -8 -8 -8 -7 -6 -5 -5 -4 -3 -3 -3 -2 -2 -2 -2 -2
-1 0 2 2 4 4 0 -2 -1 -1 1 -4 -4 -3 -3 -3 -1 -5 -7 -8 -8 -8 -8 -8 -8 -8 -8 -8 -8 -8 -8 -9 -9 -8 -7 -6 -5 -5 -4 -4 -4 -4 -3 -3
2 0 1 2 2 1 -2 -1 -1 2 1 -4 -4 -5 -5 -4 -5 -7 -7 -8 -8 -9 -9 -9 -9 -9 -9 -8 -8 -8 -8 -8 -8 -9 -9 -8 -7 -6 -6 -6 -6 -5 -5 -5
-2 -0 1 1 2 3 -2 0 2 -1 -3 -4 -4 -5 -5 -5 -7 -8 -9 -9 -8 -9 -9 -9 -9 -9 -9 -9 -9 -9 -9 -8 -8 -8 -9 -9 -9 -9 -9 -8 -8 -7 -7 -7
0 -1 -1 -1 -0 -2 -2 -2 -2 -3 -3 -4 -5 -5 -5 -6 -7 -8 -9 -9 -9 -10 -10 -10 -10 -10 -10 -10 -10 -9 -10 -8 -8 -8 -8 -9 -9 -9 -9 -9 -9 -9 -9 -8
-1 -3 -1 -1 -1 -2 -3 -3 -3 -2 -3 -4 -5 -5 -5 -6 -7 -8 -8 -9 -11 -12 -12 -11 -11 -11 -11 -10 -11 -11 -10 -10 -10 -10 -10 -10 -10 -10 -10 -10 -10 -10 -10 -9
-2 -2 -2 -1 -2 -3 -3 -4 -4 -4 -4 -5 -6 -6 -7 -7 -8 -9 -10 -10 -12 -13 -13 -14 -14 -13 -13 -12 -14 -15 -13 -11 -12 -12 -11 -12 -11 -11 -12 -11 -15 -14 -13 -12
-2 -2 -0 1 -2 -1 -3 -4 -5 -5 -6 -6 -7 -8 -8 -9 -9 -9 -9 -10 -12 -14 -14 -15 -16 -17 -17 -19 -19 -19 -18 -15 -13 -12 -12 -12 -11 -11 -12 -12 -13 -13 -18 -17

GFSCGP_850_dewp_126.txt.gz
Dewpoint
-8 -6 -7 -9 -10 -9 -9 -11 -10 -10 -10 -10 -10 -11 -13 -12 -5 -3 -4 -4 -4 -4 -3 -3 -2 -1 -1 -2 2 1 1 -4 -2 -9 -3 5 7 11 13 13 12 10 8 7
-6 -5 -9 -10 -10 -10 -9 -7 -7 -8 -9 -10 -10 -10 -11 -10 -4 -4 -4 -3 -3 -4 -4 -3 -3 -2 -1 -2 -0 2 2 3 2 2 2 5 7 9 11 14 12 13 8 5
-6 -8 -8 -8 -8 -10 -8 -6 -6 -6 -9 -9 -9 -8 -11 -3 -3 -3 -3 -3 -3 -3 -3 -3 -3 -3 -2 -2 -3 -1 0 2 3 3 2 3 4 10 11 13 12 13 12 11
-8 -9 -8 -8 -7 -9 -6 -7 -7 -6 -4 -2 -6 1 -4 -4 -2 -2 -3 -3 -3 -3 -3 -3 -3 -3 -3 -2 -2 -2 -0 -0 1 1 1 2 5 7 11 13 12 12 12 11
-7 -6 -6 -7 -9 -8 -4 -6 -4 -4 -2 -2 -2 -0 1 -1 1 -2 -3 -3 -3 -4 -3 -3 -4 -4 -4 -3 -3 -2 -1 -0 0 1 -3 -3 -3 3 11 12 12 12 12 12
-5 -8 -7 -7 -7 -6 -5 -4 -3 -3 -2 3 -2 2 5 3 -0 -2 -3 -3 -4 -4 -4 -4 -5 -5 -5 -4 -4 -4 -2 0 2 3 2 1 -4 -9 6 12 11 12 13 13
-6 -6 -9 -8 -4 -5 -5 -1 1 0 3 1 -3 -2 3 -1 -2 -2 -2 -2 -4 -4 -4 -4 -6 -6 -6 -5 -4 -3 -2 -1 1 3 4 6 4 3 -2 11 11 11 13 13
-6 -3 -6 -6 -4 -5 -4 -3 0 1 3 3 -3 1 2 -2 -3 -3 -4 -3 -4 -4 -4 -5 -6 -6 -6 -5 -4 -3 -2 -1 1 2 4 7 7 3 9 12 12 12 13 14
1 -4 -7 -5 -5 -6 -2 -2 -3 2 0 5 2 5 1 -2 -2 -3 -3 -4 -4 -4 -4 -5 -6 -6 -5 -5 -4 -3 -2 -2 -1 1 2 7 9 9 11 10 8 10 13 13
-2 3 -4 -6 -6 -6 -4 -5 1 3 6 4 -0 7 6 1 -0 -1 -2 -3 -4 -4 -5 -5 -6 -6 -6 -5 -5 -4 -3 -2 -2 -1 1 7 8 8 9 10 8 8 8 8
-4 2 -2 -5 -3 -5 -1 0 1 2 3 5 7 6 1 1 -1 -2 -3 -3 -4 -5 -5 -6 -6 -6 -6 -5 -5 -5 -4 -3 -2 -2 1 7 7 8 9 9 9 9 10 10
-4 0 2 -1 -5 -5 -5 -3 -2 2 2 5 6 5 -1 -2 -3 -4 -4 -4 -4 -5 -5 -6 -6 -6 -6 -6 -6 -5 -4 -3 -3 -1 3 4 3 4 6 8 8 9 10 9
-1 1 3 1 -2 -3 -3 -2 -2 -1 1 3 4 4 -2 -3 -3 -4 -3 -4 -4 -5 -5 -6 -6 -7 -6 -6 -6 -6 -5 -5 -3 -0 1 3 3 2 5 6 8 8 8 9
-0 1 3 6 7 3 2 -0 -1 0 5 5 6 2 -1 -3 -3 -4 -4 -5 -5 -5 -5 -6 -6 -6 -6 -6 -6 -6 -5 -4 -4 -2 -1 2 0 0 0 3 4 6 7 7
-2 4 2 2 2 1 1 2 1 1 1 5 3 1 -2 -3 -3 -4 -5 -6 -6 -6 -6 -6 -6 -6 -6 -6 -6 -6 -4 -3 -3 -3 -2 -1 1 -0 0 2 3 3 5 5
-2 4 4 4 1 2 3 4 2 1 0 1 -0 0 -3 -4 -4 -5 -5 -6 -6 -6 -6 -6 -7 -7 -6 -6 -6 -6 -6 -4 -3 -3 -5 -4 -2 -2 -3 -2 -1 -1 0 1
1 2 3 3 1 1 5 4 3 0 -1 -0 2 0 -3 -4 -4 -5 -5 -6 -6 -6 -6 -7 -7 -6 -6 -6 -7 -7 -7 -7 -6 -5 -5 -4 -4 -4 -3 -3 -3 -3 -2 -2
0 2 3 2 4 6 3 -1 -2 -2 -3 -3 -3 -3 -4 -4 -4 -5 -6 -6 -6 -7 -7 -7 -8 -7 -7 -7 -6 -8 -8 -8 -8 -8 -8 -7 -6 -5 -5 -4 -4 -4 -4 -4
-7 1 3 2 2 3 1 -1 -1 -1 -1 -3 -3 -4 -5 -4 -4 -4 -6 -6 -7 -7 -8 -8 -8 -8 -8 -8 -7 -8 -8 -8 -8 -9 -9 -8 -8 -7 -6 -6 -6 -6 -6 -5
-7 0 2 2 2 1 2 -2 -2 -2 3 -3 -3 -4 -4 -4 -1 -3 -5 -6 -7 -8 -8 -9 -9 -9 -10 -9 -8 -9 -9 -9 -8 -8 -9 -9 -10 -10 -9 -9 -8 -8 -8 -7
2 3 3 3 1 1 -2 -2 -1 2 2 -3 -3 -3 -4 -3 -4 -5 -6 -7 -8 -9 -9 -9 -9 -10 -10 -10 -10 -10 -10 -10 -10 -9 -9 -10 -10 -11 -12 -12 -13 -11 -10 -10
2 1 3 2 2 3 -2 -1 2 -0 -3 -3 -3 -3 -4 -5 -5 -6 -7 -8 -9 -10 -10 -10 -10 -10 -11 -11 -11 -11 -11 -11 -11 -10 -9 -10 -11 -11 -10 -13 -17 -19 -18 -17
2 -1 4 1 1 -2 -1 1 -0 -2 -1 -2 -3 -4 -5 -5 -6 -6 -8 -9 -10 -11 -12 -12 -13 -12 -12 -13 -14 -13 -12 -11 -11 -11 -12 -10 -12 -11 -11 -13 -15 -18 -20 -21
-2 -3 1 -0 -2 -2 -1 -1 -1 -1 -2 -2 -3 -4 -5 -6 -6 -7 -8 -10 -12 -13 -14 -14 -15 -15 -15 -15 -18 -18 -17 -15 -11 -12 -11 -12 -11 -11 -11 -12 -12 -14 -16 -17
-2 -3 -1 0 -2 -3 -1 -2 -2 -2 -3 -3 -3 -5 -6 -6 -7 -9 -11 -12 -13 -14 -15 -15 -15 -15 -15 -18 -24 -26 -28 -25 -21 -11 -13 -13 -11 -11 -11 -11 -11 -11 -12 -13
-3 -1 -0 2 -2 -2 -2 -3 -3 -3 -4 -4 -5 -6 -7 -8 -9 -9 -12 -13 -14 -14 -15 -15 -14 -14 -16 -26 -30 -31 -32 -32 -30 -17 -13 -13 -11 -11 -12 -12 -11 -11 -12 -12

GFSCGP_850_dewp_129.txt.gz
Dewpoint
-8 -5 -5 -6 -7 -7 -8 -9 -10 -10 -11 -8 -8 -10 -11 -9 -4 -3 -3 -3 -3 -3 -4 -4 -4 -5 -5 -6 -6 -6 -4 -5 -1 -1 -1 -6 -7 2 8 7 11 14 13 13
-6 -4 -6 -7 -8 -9 -9 -7 -6 -7 -8 -8 -9 -9 -6 -3 -3 -3 -3 -3 -3 -3 -4 -4 -4 -4 -5 -6 -6 -5 -4 -4 -4 -1 2 3 2 -2 8 10 9 11 13 12
-4 -4 -6 -7 -7 -6 -8 -8 -6 -5 -7 -7 -6 -5 -1 -2 -3 -3 -3 -3 -3 -4 -3 -4 -4 -5 -6 -6 -6 -6 -5 -4 -4 -3 -1 2 3 3 2 7 10 11 13 13
-6 -8 -7 -7 -6 -7 -5 -8 -5 -4 -2 -0 -5 0 1 -0 -2 -2 -2 -3 -3 -4 -4 -4 -5 -6 -7 -7 -6 -5 -5 -5 -4 -3 -2 -1 1 1 -0 2 6 12 12 13
-4 -5 -6 -5 -5 -9 -8 -4 -4 -3 -2 -1 -1 2 2 1 2 -1 -2 -3 -3 -4 -4 -4 -5 -6 -7 -6 -6 -5 -5 -4 -4 -3 -2 0 1 1 0 -3 2 8 12 13
-4 -6 -6 -6 -6 -6 -5 -4 -3 -2 -1 3 -1 0 4 2 0 -1 -2 -3 -4 -4 -4 -5 -6 -7 -6 -6 -5 -4 -4 -3 -3 -2 -2 1 2 1 -1 -2 -3 1 6 12
-4 -6 -9 -8 -5 -6 -4 -2 3 3 3 3 -1 1 2 -0 -1 -2 -3 -3 -4 -4 -4 -5 -6 -6 -6 -6 -5 -4 -4 -3 -2 -1 0 1 3 4 2 -5 -6 -1 1 7
-2 -0 -4 -7 -7 -3 -3 -2 3 4 5 4 -0 3 2 -2 -2 -3 -4 -4 -4 -4 -5 -5 -6 -6 -6 -6 -5 -4 -4 -3 -2 -1 0 2 3 3 1 -1 4 8 6 6
1 2 -3 -5 -5 -4 -3 -2 -3 2 2 3 4 2 2 -2 -2 -3 -3 -4 -4 -4 -5 -6 -7 -6 -6 -6 -5 -4 -4 -4 -3 -2 -1 2 3 4 5 6 8 6 5 7
1 2 -3 -5 -5 -5 -4 -5 2 4 4 6 3 5 3 -0 -0 -2 -3 -3 -4 -4 -5 -6 -6 -6 -6 -6 -5 -3 -4 -4 -3 -3 -2 -0 3 5 7 7 8 7 9 9
-1 1 0 -2 -2 -3 -3 -2 3 5 4 4 2 3 1 -0 -2 -2 -3 -4 -4 -5 -5 -6 -6 -6 -6 -5 -4 -4 -4 -4 -4 -3 -3 -2 -1 5 6 8 9 9 9 8
-1 2 4 0 -3 -3 -3 -0 2 4 3 3 5 2 -0 -2 -3 -3 -4 -4 -5 -5 -6 -5 -6 -6 -6 -5 -5 -5 -4 -5 -4 -4 -4 -4 -2 3 5 7 8 8 8 9
0 2 4 3 0 0 1 -1 -1 0 1 2 1 -0 -2 -3 -3 -4 -4 -5 -5 -5 -7 -5 -5 -6 -6 -5 -6 -5 -5 -6 -5 -5 -5 -4 -1 3 3 3 6 6 6 6
-0 3 4 5 5 5 6 5 -1 1 1 2 3 2 0 -2 -3 -4 -5 -6 -6 -6 -7 -7 -7 -7 -6 -7 -6 -5 -5 -5 -5 -5 -4 -4 -3 -0 1 1 2 4 4 5
-2 3 3 3 2 1 2 5 1 2 1 3 3 1 -1 -2 -3 -4 -5 -6 -6 -6 -7 -8 -7 -7 -8 -7 -7 -8 -6 -5 -5 -3 -3 -3 -3 -2 -0 2 1 1 1 1
-3 2 3 3 0 2 3 3 1 2 1 1 1 -0 -3 -3 -4 -5 -5 -6 -6 -6 -7 -8 -7 -7 -7 -7 -7 -8 -9 -8 -7 -5 -4 -4 -3 -2 -1 -1 0 -0 -1 -0
-1 2 4 3 2 5 4 2 1 1 1 1 2 -0 -3 -3 -4 -5 -5 -6 -6 -7 -7 -8 -8 -7 -8 -7 -8 -8 -9 -9 -9 -9 -8 -6 -6 -5 -5 -4 -3 -4 -3 -3
0 3 3 4 1 4 2 1 1 0 -2 -2 -2 -3 -3 -4 -5 -5 -6 -6 -7 -8 -8 -9 -9 -8 -9 -9 -9 -9 -9 -9 -10 -11 -11 -10 -9 -8 -8 -8 -7 -6 -6 -6
-5 2 3 3 3 2 1 -1 -0 0 0 -3 -2 -4 -4 -4 -5 -5 -6 -7 -8 -8 -9 -9 -9 -10 -9 -10 -10 -10 -10 -9 -10 -10 -12 -13 -13 -12 -11 -9 -9 -9 -8 -9
-6 1 1 2 3 3 2 -1 -1 -2 3 -3 -4 -4 -4 -4 -1 -4 -7 -8 -9 -9 -9 -9 -10 -10 -10 -10 -11 -11 -10 -10 -9 -10 -10 -11 -15 -17 -19 -18 -14 -13 -12 -11
-3 -0 2 2 3 2 -1 -1 -2 2 1 -3 -3 -4 -4 -3 -4 -5 -8 -8 -9 -10 -10 -10 -11 -12 -12 -12 -12 -11 -11 -10 -10 -10 -11 -11 -14 -17 -18 -20 -22 -21 -20 -20
-2 3 3 3 3 2 -1 -1 1 -1 -3 -3 -3 -3 -4 -5 -5 -6 -8 -9 -10 -11 -11 -12 -12 -14 -15 -17 -17 -13 -11 -11 -12 -11 -11 -11 -11 -13 -17 -18 -20 -23 -24 -24
4 1 2 1 1 -1 0 0 -1 -2 -3 -3 -3 -4 -4 -5 -7 -8 -10 -11 -12 -13 -14 -14 -15 -16 -18 -21 -23 -22 -15 -11 -11 -14 -12 -11 -11 -11 -11 -13 -14 -17 -20 -22
-1 -1 0 -1 -1 -1 -1 -0 -1 -2 -2 -3 -4 -4 -5 -6 -9 -10 -11 -12 -13 -14 -15 -15 -16 -19 -23 -29 -31 -30 -29 -20 -15 -16 -13 -11 -12 -13 -12 -11 -12 -14 -15 -15
-1 -2 -0 -1 -1 -1 -1 -1 -2 -2 -3 -3 -4 -4 -5 -7 -8 -9 -12 -13 -14 -15 -15 -16 -17 -21 -28 -31 -32 -33 -33 -31 -24 -18 -19 -17 -14 -13 -14 -13 -13 -12 -12 -12
-1 -1 -1 -1 -3 -3 -2 -3 -3 -3 -3 -3 -4 -4 -5 -6 -9 -11 -13 -13 -14 -15 -15 -16 -20 -27 -29 -30 -31 -32 -32 -29 -24 -19 -17 -18 -14 -12 -13 -13 -13 -12 -12 -12

GFSCGP_850_dewp_132.txt.gz
Dewpoint
-8 -6 -4 -6 -7 -7 -6 -7 -9 -10 -10 -9 -8 -9 -5 -3 -3 -3 -3 -3 -4 -5 -5 -5 -6 -6 -6 -6 -6 -6 -6 -6 -6 -6 -6 -6 -5 -4 -4 -6 -10 -3 10 11
-6 -4 -6 -6 -6 -5 -6 -8 -8 -8 -8 -7 -8 -5 -2 -3 -3 -3 -3 -3 -4 -4 -5 -5 -5 -6 -6 -6 -6 -6 -6 -6 -6 -6 -5 -5 -5 -3 -4 -4 -9 -6 5 11
-5 -4 -7 -6 -5 -4 -6 -8 -8 -7 -5 -5 -5 -4 -0 -2 -3 -2 -3 -3 -4 -4 -4 -4 -5 -6 -6 -6 -6 -6 -6 -6 -6 -5 -5 -4 -4 -4 -1 -2 -3 -1 6 6
-6 -7 -6 -6 -5 -6 -4 -8 -7 -4 -2 -1 -4 -0 1 -1 -1 -2 -2 -3 -4 -4 -4 -5 -6 -6 -6 -6 -6 -6 -5 -5 -4 -4 -4 -3 -3 -3 -2 -0 -0 -2 5 7
-4 -6 -6 -4 -5 -7 -6 -5 -4 -3 -2 -2 -2 1 1 1 1 -1 -3 -3 -4 -4 -5 -6 -6 -6 -6 -6 -6 -5 -5 -4 -4 -3 -2 -2 -1 -1 1 -0 0 -0 -2 3
-4 -6 -5 -5 -6 -6 -6 -4 -3 -2 -1 2 -0 0 2 1 0 -1 -3 -3 -4 -5 -5 -6 -6 -6 -6 -6 -5 -5 -5 -4 -4 -4 -3 -2 -1 -0 1 1 -1 -0 -1 -3
-5 -5 -7 -8 -5 -6 -5 -2 2 3 4 4 -0 1 2 -0 -2 -3 -3 -4 -4 -5 -5 -6 -6 -6 -6 -6 -5 -5 -5 -4 -4 -3 -2 -2 -1 0 1 2 1 1 -1 -2
-2 0 -4 -4 -6 -5 -3 -2 2 4 3 4 -1 2 1 -2 -3 -3 -3 -4 -4 -5 -5 -6 -6 -6 -6 -6 -5 -5 -5 -5 -4 -4 -3 -2 -1 1 1 3 3 1 -1 -3
-0 -0 -3 -6 -5 -5 -3 -1 -3 1 2 3 3 2 -0 -2 -2 -3 -3 -4 -4 -4 -5 -5 -5 -5 -5 -6 -5 -5 -5 -4 -5 -4 -3 -2 -1 1 3 3 5 6 2 1
-0 1 -3 -3 -5 -5 -5 -5 0 2 3 6 5 5 2 1 -1 -2 -3 -3 -4 -5 -5 -5 -6 -5 -5 -5 -5 -5 -5 -5 -5 -4 -4 -3 -2 0 2 3 4 7 7 8
-0 -0 -1 -3 -2 -2 -2 -2 2 3 4 6 4 3 1 -0 -3 -3 -3 -4 -5 -6 -5 -5 -6 -6 -6 -5 -5 -5 -5 -5 -5 -5 -5 -4 -4 -1 0 2 5 6 7 8
-2 2 3 -0 -3 -3 -3 -0 1 5 4 3 3 2 -1 -2 -3 -3 -4 -5 -6 -7 -7 -7 -7 -6 -7 -7 -5 -5 -5 -4 -5 -5 -5 -5 -5 -4 -2 1 2 5 7 7
-1 3 3 -1 1 3 4 2 0 1 1 2 1 -1 -1 -3 -3 -3 -4 -5 -6 -7 -8 -8 -8 -7 -6 -7 -8 -6 -5 -5 -4 -5 -5 -6 -6 -6 -5 -2 1 3 5 6
-0 2 3 3 4 4 5 4 4 3 1 1 2 -0 0 -1 -2 -4 -5 -6 -6 -7 -8 -8 -8 -8 -8 -7 -9 -9 -8 -5 -5 -5 -6 -6 -6 -6 -6 -5 -1 2 4 6
-2 1 2 2 2 2 2 2 3 4 2 3 -1 2 -0 -1 -3 -4 -5 -6 -6 -7 -8 -8 -8 -8 -9 -9 -9 -9 -11 -9 -7 -6 -5 -5 -5 -6 -6 -5 -2 -1 2 2
-3 -1 1 -0 1 2 2 1 1 3 1 1 1 1 -2 -3 -4 -5 -6 -6 -7 -7 -8 -8 -8 -9 -9 -10 -10 -11 -10 -12 -13 -11 -8 -7 -6 -6 -6 -5 -4 -2 -1 0
-2 -0 2 1 -1 2 3 2 2 1 1 -0 2 -0 -3 -3 -4 -5 -5 -6 -7 -7 -9 -9 -9 -9 -9 -10 -10 -9 -11 -11 -13 -15 -17 -14 -10 -9 -8 -7 -8 -8 -6 -2
-1 -0 2 2 1 2 -2 1 1 1 0 -1 -2 -2 -3 -4 -5 -5 -6 -7 -8 -8 -9 -9 -9 -10 -10 -10 -11 -11 -10 -12 -14 -14 -18 -20 -20 -17 -14 -11 -10 -9 -10 -10
-3 1 4 3 2 0 1 0 1 2 1 -2 -2 -3 -4 -5 -5 -5 -6 -7 -8 -9 -9 -9 -10 -10 -11 -11 -11 -12 -11 -11 -12 -12 -13 -16 -17 -21 -21 -21 -19 -18 -16 -14
-4 -2 2 3 3 2 1 -1 -2 -1 2 -3 -3 -4 -4 -4 -2 -4 -7 -8 -9 -9 -9 -10 -11 -11 -12 -11 -12 -14 -12 -11 -12 -12 -12 -14 -16 -17 -20 -21 -22 -23 -23 -22
-2 0 1 2 2 1 -1 -1 -2 2 -0 -3 -4 -4 -4 -4 -4 -4 -8 -9 -9 -10 -10 -11 -14 -17 -17 -15 -13 -16 -16 -11 -11 -13 -14 -16 -17 -16 -18 -22 -23 -25 -27 -28
-2 -1 0 1 2 1 -1 -2 0 -2 -3 -3 -4 -4 -4 -4 -4 -6 -8 -9 -10 -11 -12 -14 -17 -22 -24 -23 -18 -16 -18 -15 -15 -17 -17 -17 -17 -17 -19 -21 -23 -25 -26 -28
1 -0 2 1 0 -1 -0 -0 -1 -3 -3 -3 -4 -4 -4 -4 -5 -7 -9 -11 -12 -13 -14 -15 -20 -26 -32 -32 -29 -22 -17 -20 -18 -18 -17 -16 -16 -17 -19 -19 -19 -22 -24 -25
3 -1 -0 -1 -1 -1 -0 -1 -2 -3 -3 -3 -3 -4 -4 -5 -6 -9 -11 -13 -14 -14 -15 -16 -20 -31 -32 -33 -33 -31 -24 -21 -20 -19 -19 -19 -20 -20 -20 -20 -19 -19 -19 -17
-0 -1 -1 -1 -1 -1 -1 -1 -1 -2 -3 -4 -4 -4 -5 -6 -6 -7 -10 -11 -14 -15 -15 -18 -25 -30 -30 -31 -32 -30 -27 -24 -21 -23 -22 -21 -20 -18 -17 -17 -17 -16 -16 -15
-1 -1 -2 -1 -2 -3 -2 -2 -2 -3 -3 -4 -5 -5 -6 -6 -6 -8 -9 -11 -15 -15 -17 -22 -27 -28 -28 -30 -31 -28 -23 -20 -19 -20 -22 -21 -20 -18 -17 -16 -15 -14 -14 -14

GFSCGP_850_dewp_138.txt.gz
Dewpoint
-7 -7 -5 -7 -8 -8 -7 -6 -5 -7 -8 -10 -9 -8 -2 -3 -3 -3 -4 -5 -5 -5 -5 -5 -5 -5 -5 -5 -4 -4 -4 -4 -5 -5 -5 -5 -5 -5 -5 -5 -5 -5 -6 -8
-7 -6 -7 -7 -6 -5 -5 -4 -3 -6 -8 -8 -7 -6 -2 -3 -3 -3 -4 -4 -5 -5 -5 -5 -4 -4 -4 -4 -4 -4 -4 -4 -4 -5 -5 -5 -4 -5 -5 -4 -5 -5 -5 -6
-7 -7 -9 -7 -6 -5 -4 -3 -3 -4 -7 -5 -5 -4 -1 -2 -2 -3 -3 -4 -4 -4 -4 -4 -4 -4 -3 -3 -4 -4 -4 -4 -4 -5 -5 -5 -5 -4 -4 -4 -3 -3 -4 -4
-8 -8 -6 -6 -5 -5 -3 -5 -5 -6 -3 -2 -5 -1 -2 -1 -1 -3 -3 -4 -4 -4 -4 -5 -4 -4 -3 -4 -4 -4 -4 -5 -5 -5 -5 -5 -5 -4 -5 -3 -3 -2 -2 -3
-6 -7 -8 -7 -7 -6 -4 -7 -5 -4 -3 -2 -2 -1 -1 -0 0 -1 -3 -4 -4 -5 -4 -5 -5 -5 -4 -4 -4 -4 -5 -5 -5 -6 -6 -5 -5 -4 -4 -3 -2 -2 -1 -1
-7 -8 -6 -6 -6 -6 -6 -5 -4 -1 -1 1 -3 -2 -2 1 0 -1 -3 -3 -4 -5 -4 -5 -6 -6 -6 -4 -4 -4 -5 -5 -6 -6 -5 -6 -6 -5 -4 -3 -2 -1 -1 -0
-5 -6 -7 -6 -6 -6 -5 -3 1 2 3 2 -1 -0 -2 -1 -2 -3 -3 -3 -5 -6 -5 -5 -6 -7 -8 -5 -4 -4 -5 -5 -6 -6 -6 -5 -6 -6 -5 -4 -3 -1 -0 -0
-3 -3 -4 -6 -6 -5 -5 -3 0 3 3 1 -1 2 -0 -1 -3 -3 -3 -4 -6 -7 -6 -7 -6 -7 -8 -7 -4 -4 -4 -5 -5 -6 -6 -6 -6 -6 -5 -4 -3 -2 -1 1
-1 -1 -5 -5 -5 -6 -5 -2 -3 2 1 2 1 0 -0 -2 -2 -3 -3 -4 -6 -8 -7 -8 -7 -7 -9 -9 -6 -5 -4 -4 -5 -6 -7 -7 -6 -6 -5 -3 -3 -2 -0 2
-4 -0 -4 -3 -5 -6 -4 -4 -0 2 6 6 3 2 1 0 -0 -3 -4 -4 -6 -8 -8 -8 -9 -8 -10 -11 -9 -8 -7 -4 -4 -5 -7 -7 -7 -6 -5 -4 -3 -2 -0 2
-2 -2 -2 -2 -3 -3 -2 -1 2 2 4 5 2 0 -0 -1 -3 -4 -4 -5 -6 -8 -8 -8 -9 -10 -11 -12 -13 -12 -9 -7 -4 -4 -6 -7 -7 -6 -6 -6 -5 -4 -2 1
-2 -0 2 -1 -3 0 -1 1 3 3 5 4 3 2 -1 -2 -3 -4 -3 -5 -6 -8 -8 -8 -9 -11 -12 -14 -15 -17 -16 -11 -8 -4 -4 -5 -6 -6 -6 -6 -5 -4 -3 -2
-2 -0 2 -1 -1 -1 2 3 3 3 2 2 3 1 -1 -2 -3 -3 -4 -6 -6 -8 -8 -9 -10 -11 -12 -15 -17 -19 -20 -19 -14 -9 -4 -4 -5 -4 -5 -5 -5 -4 -5 -4
-1 -0 0 2 -1 2 3 1 0 2 3 1 1 -1 0 -1 -2 -3 -4 -6 -6 -8 -8 -9 -10 -10 -12 -14 -16 -20 -21 -24 -23 -20 -14 -5 -5 -4 -4 -4 -4 -4 -5 -6
-0 1 2 1 1 2 1 1 0 0 1 3 0 0 -2 -1 -2 -3 -4 -6 -6 -8 -8 -9 -10 -10 -12 -13 -16 -18 -21 -23 -26 -27 -25 -22 -20 -10 -6 -3 -3 -3 -2 -3
-3 -2 -1 -1 -1 -1 -0 -2 -2 -2 -1 0 -1 -0 -1 -2 -2 -4 -5 -6 -7 -8 -9 -9 -10 -11 -11 -12 -14 -17 -20 -20 -23 -26 -27 -27 -26 -25 -24 -19 -13 -4 -3 -4
-1 -1 -0 1 -2 -1 -0 -3 -2 -1 -0 -0 1 -0 -2 -3 -4 -4 -5 -6 -7 -8 -9 -9 -10 -11 -11 -12 -13 -16 -18 -20 -21 -23 -25 -25 -26 -27 -26 -26 -25 -22 -18 -10
-1 -1 -0 1 0 1 -4 -2 -1 0 1 0 -1 -2 -3 -3 -4 -5 -5 -6 -7 -9 -9 -10 -10 -11 -11 -12 -14 -15 -17 -19 -20 -21 -22 -22 -23 -23 -25 -27 -28 -28 -27 -26
-2 -2 1 3 1 -2 -3 -3 1 2 1 -0 -1 -3 -4 -4 -5 -5 -6 -7 -8 -9 -9 -10 -11 -11 -12 -14 -16 -16 -18 -19 -20 -19 -20 -21 -22 -22 -23 -25 -26 -25 -27 -27
-3 -2 -1 1 2 2 -2 -1 -2 -1 1 -2 -3 -4 -5 -5 -3 -5 -6 -8 -8 -9 -10 -11 -14 -16 -15 -15 -17 -20 -20 -19 -19 -18 -18 -19 -20 -22 -22 -23 -24 -26 -28 -28
-1 0 1 1 2 1 -2 -2 -2 2 -1 -3 -3 -4 -5 -4 -5 -5 -7 -8 -9 -9 -11 -14 -19 -24 -23 -18 -18 -23 -21 -20 -19 -19 -20 -21 -21 -20 -20 -21 -23 -23 -26 -30
-2 1 2 2 3 2 -1 -2 0 -2 -3 -3 -3 -4 -4 -4 -4 -6 -7 -8 -9 -10 -13 -18 -25 -31 -30 -23 -21 -23 -25 -21 -20 -22 -22 -23 -24 -24 -25 -24 -22 -22 -25 -26
-1 -1 0 0 -0 -2 -2 -1 -1 -2 -3 -3 -3 -4 -4 -4 -6 -7 -8 -9 -6 -12 -15 -21 -31 -33 -32 -27 -22 -23 -24 -25 -23 -24 -24 -23 -23 -23 -23 -24 -22 -17 -19 -21
-0 -1 0 0 -1 -1 -1 -1 -1 -2 -3 -3 -4 -4 -4 -5 -6 -8 -9 -7 -8 -14 -16 -23 -32 -33 -31 -28 -26 -24 -24 -26 -25 -24 -25 -25 -25 -23 -24 -23 -18 -13 -14 -17
-2 1 1 0 -1 -2 -2 -1 -2 -3 -3 -4 -4 -4 -4 -5 -7 -7 -9 -6 -7 -11 -16 -25 -31 -32 -32 -29 -27 -26 -26 -26 -27 -26 -25 -25 -26 -27 -27 -25 -24 -21 -16 -14
0 1 1 0 -2 -2 -3 -1 -1 -3 -3 -4 -4 -4 -4 -4 -6 -8 -7 -6 -7 -14 -17 -27 -30 -31 -32 -31 -29 -28 -28 -28 -28 -29 -27 -27 -27 -27 -28 -28 -27 -25 -25 -24

GFSCGP_850_dewp_141.txt.gz
Dewpoint
-7 -5 -4 -6 -7 -8 -7 -5 -5 -6 -7 -6 -6 -8 -3 -3 -3 -3 -4 -4 -4 -5 -5 -5 -4 -4 -4 -4 -4 -4 -4 -4 -4 -4 -4 -4 -4 -4 -4 -5 -5 -4 -5 -5
-7 -4 -7 -7 -7 -6 -5 -4 -4 -5 -6 -7 -7 -7 -3 -3 -3 -3 -4 -4 -4 -4 -4 -4 -4 -4 -4 -4 -4 -4 -4 -4 -4 -5 -5 -5 -5 -5 -5 -4 -4 -4 -4 -4
-5 -6 -9 -8 -6 -5 -4 -4 -4 -4 -6 -6 -5 -5 -2 -2 -2 -3 -3 -4 -4 -4 -4 -4 -5 -6 -5 -5 -4 -4 -4 -4 -4 -5 -5 -5 -4 -4 -4 -4 -4 -3 -2 -2
-7 -8 -6 -5 -6 -7 -5 -6 -5 -4 -4 -3 -5 -2 -3 -2 -2 -3 -3 -4 -4 -4 -4 -5 -6 -7 -7 -6 -4 -4 -4 -4 -4 -5 -5 -5 -6 -5 -5 -5 -4 -2 -1 -1
-6 -7 -7 -7 -7 -7 -6 -6 -5 -4 -3 -2 -3 -1 -2 -1 -0 -1 -3 -3 -4 -5 -5 -5 -6 -7 -8 -6 -5 -4 -4 -3 -4 -5 -5 -6 -6 -6 -5 -5 -4 -2 -1 -0
-7 -8 -7 -6 -6 -6 -6 -5 -3 -1 -1 0 -3 -2 -3 0 1 -1 -3 -3 -4 -5 -5 -6 -6 -7 -9 -7 -6 -7 -5 -3 -4 -5 -6 -6 -6 -6 -6 -6 -5 -3 -2 -1
-6 -6 -7 -6 -5 -6 -5 -3 -0 0 2 0 -2 -1 -3 -1 -2 -2 -2 -3 -5 -6 -7 -7 -7 -8 -9 -9 -8 -8 -6 -4 -3 -5 -6 -6 -7 -6 -7 -6 -5 -5 -3 -2
-4 -4 -4 -6 -5 -5 -4 -3 -2 3 2 0 -2 0 1 -1 -2 -3 -3 -4 -6 -7 -7 -8 -8 -8 -11 -11 -9 -9 -8 -4 -3 -4 -5 -6 -7 -7 -7 -6 -5 -4 -3 -2
-2 -2 -5 -5 -5 -6 -4 -2 -3 -0 -1 3 0 -0 1 -2 -2 -3 -3 -4 -6 -8 -8 -9 -9 -10 -11 -13 -13 -11 -9 -5 -3 -3 -5 -6 -6 -7 -7 -6 -5 -5 -3 -2
-4 -0 -4 -3 -5 -6 -5 -5 -1 2 4 3 2 3 5 1 0 -1 -3 -4 -6 -8 -8 -9 -10 -11 -13 -15 -17 -15 -12 -8 -4 -3 -4 -5 -6 -7 -6 -6 -6 -5 -3 -2
-3 -0 -2 -3 -3 -3 -4 -1 1 1 2 4 4 3 1 2 1 0 -3 -4 -6 -8 -8 -9 -10 -11 -14 -17 -20 -21 -19 -15 -9 -4 -4 -4 -5 -6 -6 -6 -6 -6 -5 -4
-2 0 -0 -3 -4 -0 0 0 1 3 4 4 4 4 0 -1 -1 -2 -3 -5 -7 -8 -8 -9 -10 -12 -15 -19 -21 -24 -25 -23 -19 -12 -6 -4 -4 -5 -6 -6 -5 -5 -5 -4
-2 -1 -1 -5 1 -1 1 2 2 3 3 3 3 3 -1 -2 -2 -3 -3 -5 -7 -8 -9 -9 -10 -12 -15 -18 -21 -23 -27 -27 -25 -24 -23 -15 -6 -4 -5 -6 -5 -5 -4 -5
-2 0 -0 -1 -1 -1 0 -0 -0 1 3 2 2 2 -0 -0 -1 -2 -3 -5 -7 -8 -9 -9 -10 -12 -14 -17 -21 -23 -26 -29 -29 -29 -28 -26 -23 -15 -5 -4 -5 -4 -4 -4
0 2 1 1 0 0 0 1 -0 -0 0 2 0 -0 -1 -2 0 -1 -3 -5 -6 -8 -7 -9 -10 -11 -14 -17 -20 -22 -24 -27 -29 -30 -30 -29 -28 -26 -25 -15 -5 -4 -3 -4
-2 2 -0 0 -1 -1 -0 -0 -1 -1 -1 -1 -1 -1 -3 -2 -2 -2 -4 -5 -6 -7 -7 -9 -10 -11 -14 -16 -18 -20 -24 -26 -28 -28 -28 -28 -29 -30 -31 -31 -27 -25 -17 -9
-1 0 1 -0 -2 -1 -0 -1 -1 -3 -3 -2 -1 -2 -1 -1 -2 -3 -4 -5 -6 -8 -9 -10 -10 -11 -13 -15 -17 -20 -23 -25 -26 -27 -27 -27 -28 -31 -30 -30 -32 -31 -27 -24
-0 0 -0 -0 0 0 -2 -5 -3 -2 -2 -2 -1 -1 -2 -2 -3 -3 -4 -5 -6 -8 -9 -10 -10 -11 -12 -15 -17 -19 -23 -25 -25 -26 -27 -28 -27 -30 -32 -32 -31 -28 -25 -27
-2 -1 2 3 -0 -2 -3 -5 -2 1 -1 -3 -0 -2 -4 -4 -4 -5 -5 -6 -7 -9 -9 -10 -11 -12 -13 -16 -18 -19 -23 -23 -24 -24 -25 -25 -27 -26 -28 -30 -31 -29 -27 -28
-2 -2 1 2 1 -0 -3 -3 -1 -1 -0 -2 -2 -3 -4 -4 -1 -3 -6 -7 -8 -9 -10 -11 -14 -15 -14 -17 -18 -20 -22 -23 -22 -23 -24 -24 -25 -25 -24 -25 -27 -28 -30 -30
-0 -0 1 1 1 -2 -3 -2 -2 1 -0 -2 -3 -3 -4 -3 -4 -5 -6 -8 -8 -9 -11 -15 -19 -19 -18 -18 -20 -22 -22 -22 -21 -22 -24 -25 -26 -28 -24 -23 -24 -27 -29 -30
-4 -0 0 -0 1 0 -2 -1 1 -1 -2 -3 -3 -3 -4 -4 -5 -6 -7 -8 -9 -10 -13 -19 -26 -26 -22 -20 -22 -24 -24 -21 -22 -24 -26 -26 -27 -27 -22 -16 -15 -21 -25 -27
-1 -3 -1 -1 -1 -2 -3 -2 -3 -3 -2 -3 -3 -3 -4 -4 -5 -6 -8 -9 -10 -12 -16 -25 -31 -29 -24 -22 -23 -25 -24 -23 -23 -25 -26 -27 -29 -29 -26 -17 -13 -13 -14 -14
-3 -2 -0 -1 -1 -2 -2 -3 -2 -2 -2 -2 -3 -4 -4 -4 -6 -7 -9 -10 -8 -13 -18 -27 -31 -28 -25 -23 -24 -25 -26 -26 -26 -26 -26 -28 -29 -28 -27 -21 -15 -14 -14 -14
-4 -1 -0 1 -1 -1 -2 -2 -1 -1 -2 -3 -4 -4 -4 -5 -6 -7 -8 -7 -8 -14 -18 -28 -31 -29 -26 -25 -25 -26 -26 -27 -28 -28 -29 -29 -29 -28 -26 -26 -23 -18 -17 -16
-1 -1 1 0 -2 -2 -2 -2 -2 -2 -3 -4 -4 -4 -4 -5 -6 -6 -7 -6 -8 -12 -18 -28 -31 -30 -28 -26 -26 -26 -27 -28 -28 -29 -29 -29 -28 -28 -27 -25 -24 -24 -24 -24

GFSCGP_850_dewp_144.txt.gz
Dewpoint
-6 -4 -5 -4 -6 -7 -6 -5 -6 -7 -8 -6 -6 -7 -6 -4 -4 -3 -4 -4 -4 -4 -4 -4 -3 -4 -5 -4 -4 -3 -3 -3 -3 -3 -4 -4 -4 -3 -3 -2 -2 -2 -2 -2
-5 -5 -6 -8 -7 -7 -6 -5 -5 -6 -7 -6 -7 -7 -8 -5 -4 -4 -4 -4 -4 -4 -4 -4 -4 -4 -5 -4 -4 -3 -3 -3 -3 -4 -4 -3 -4 -4 -4 -4 -3 -4 -3 -2
-4 -5 -7 -8 -6 -5 -6 -5 -6 -6 -6 -7 -5 -6 -5 -4 -3 -3 -3 -3 -4 -4 -3 -4 -4 -5 -5 -4 -4 -4 -4 -4 -3 -3 -3 -4 -4 -4 -4 -4 -4 -4 -3 -2
-5 -8 -7 -6 -6 -8 -6 -8 -7 -6 -6 -4 -6 -6 -6 -3 -3 -3 -3 -3 -3 -4 -4 -4 -4 -5 -5 -5 -5 -6 -5 -4 -3 -3 -4 -4 -4 -5 -5 -5 -5 -5 -3 -3
-6 -7 -6 -6 -7 -7 -6 -6 -6 -5 -4 -3 -5 -2 -4 -3 -3 -2 -3 -3 -3 -4 -4 -4 -5 -5 -6 -6 -6 -7 -5 -3 -3 -3 -4 -5 -5 -5 -6 -6 -6 -5 -4 -3
-7 -8 -8 -7 -7 -6 -6 -5 -4 -3 -3 -2 -5 -4 -6 -4 -2 -2 -2 -2 -4 -4 -5 -5 -5 -5 -6 -6 -7 -7 -6 -4 -3 -3 -4 -5 -5 -6 -6 -7 -6 -6 -5 -3
-7 -7 -8 -7 -5 -6 -6 -4 -3 -2 1 -2 -3 -3 -4 -4 -1 -1 -1 -2 -4 -4 -5 -5 -5 -5 -6 -8 -12 -11 -7 -5 -4 -4 -4 -5 -6 -6 -7 -7 -7 -6 -5 -4
-8 -4 -6 -6 -7 -6 -5 -5 -3 -0 -1 -2 -5 -3 -1 -1 -2 -2 -2 -2 -4 -5 -5 -5 -9 -6 -7 -13 -15 -14 -11 -7 -5 -4 -4 -5 -6 -6 -7 -7 -7 -7 -5 -4
-5 -5 -6 -6 -7 -7 -6 -5 -4 -1 -3 0 -3 -5 1 -2 -2 -2 -2 -2 -3 -5 -5 -8 -10 -8 -12 -16 -19 -20 -16 -12 -11 -5 -4 -4 -5 -7 -7 -8 -7 -7 -7 -5
-4 -2 -5 -6 -5 -6 -6 -7 -4 -2 2 -1 -6 -2 4 4 2 1 0 -1 -3 -5 -6 -8 -10 -12 -14 -18 -22 -25 -22 -20 -19 -11 -5 -4 -4 -6 -6 -6 -7 -8 -7 -6
-5 -0 -5 -5 -5 -7 -6 -7 -4 -2 -3 1 2 1 2 5 3 3 1 -1 -4 -7 -8 -9 -10 -12 -16 -20 -24 -26 -27 -28 -26 -25 -15 -5 -4 -4 -5 -5 -7 -7 -7 -7
-4 -3 -4 -6 -8 -5 -4 -5 -2 1 0 2 5 5 1 1 0 0 1 -2 -5 -6 -8 -9 -10 -12 -16 -21 -24 -26 -29 -30 -29 -27 -26 -20 -8 -4 -5 -5 -5 -6 -7 -8
-3 -5 -6 -9 -4 -2 -2 -1 -2 -1 2 2 5 6 -1 -1 -1 -1 0 -2 -5 -7 -8 -9 -10 -13 -16 -20 -23 -25 -28 -29 -30 -30 -29 -27 -26 -17 -7 -5 -5 -4 -5 -8
-6 -7 -5 -6 -6 -5 -3 -4 -4 -3 4 2 2 2 -2 -3 -2 -1 -1 -2 -4 -6 -8 -9 -10 -13 -16 -19 -22 -17 -16 -21 -26 -26 -27 -28 -29 -27 -24 -19 -13 -10 -5 -6
-5 -3 -3 -4 -5 -4 -4 -4 -4 -5 -4 -1 1 -2 -5 -6 -4 -5 -1 -2 -4 -5 -6 -8 -10 -12 -16 -14 -13 -11 -11 -13 -12 -12 -12 -15 -23 -29 -29 -26 -24 -25 -23 -20
-2 -0 1 2 -3 -4 -2 1 -2 -2 -3 -3 -4 -3 -6 -5 -2 -1 -1 -3 -5 -5 -6 -8 -8 -8 -12 -10 -11 -11 -11 -13 -12 -13 -13 -13 -13 -14 -20 -21 -23 -28 -30 -30
-3 -3 -1 -3 -7 -5 -2 1 1 -3 -6 -5 -2 -4 -5 -3 -1 -1 -2 -4 -4 -6 -7 -8 -8 -9 -10 -11 -12 -12 -11 -12 -12 -12 -13 -13 -13 -13 -14 -12 -11 -12 -23 -34
-5 -4 -4 -3 -4 -0 -4 -7 -8 -6 -6 -6 -6 -6 -6 -2 -1 -1 -2 -3 -5 -7 -7 -8 -10 -11 -13 -12 -14 -14 -13 -12 -19 -17 -14 -15 -13 -13 -14 -13 -12 -11 -12 -20
-5 -4 -2 -0 -3 -5 -6 -7 -7 -5 -3 -5 -3 -3 -2 -2 -3 -3 -3 -4 -5 -7 -8 -8 -10 -13 -15 -17 -13 -20 -24 -17 -23 -26 -27 -22 -21 -18 -14 -16 -12 -11 -11 -12
-4 -2 0 -1 2 -1 -7 -8 -4 -4 -1 -3 -3 -2 -2 -3 1 -0 -4 -5 -6 -7 -9 -10 -10 -11 -11 -11 -12 -18 -25 -26 -24 -24 -27 -25 -21 -23 -23 -13 -14 -12 -11 -12
0 0 2 1 0 -3 -8 -4 -2 1 0 -2 -2 -2 -2 -2 -2 -2 -4 -5 -7 -9 -11 -12 -13 -13 -13 -12 -12 -12 -12 -21 -22 -16 -16 -25 -22 -14 -14 -16 -12 -13 -12 -12
-4 -3 -1 -2 -1 -0 -3 -1 -1 -1 -1 -2 -2 -2 -1 -2 -3 -4 -5 -7 -9 -11 -13 -15 -15 -14 -13 -14 -14 -14 -13 -14 -14 -15 -18 -19 -18 -13 -11 -11 -12 -12 -12 -12
-4 -7 -5 -4 -5 -4 -2 -4 -3 -2 -3 -2 -0 -2 -1 -2 -3 -5 -6 -8 -11 -13 -16 -18 -17 -14 -14 -14 -15 -14 -14 -15 -15 -17 -17 -18 -17 -16 -15 -14 -13 -13 -12 -13
-5 -6 -2 -2 -2 -6 -6 -4 -1 -1 -1 -1 -1 -1 -2 -2 -4 -5 -7 -9 -12 -16 -19 -20 -17 -15 -14 -15 -19 -16 -17 -15 -16 -17 -19 -19 -22 -18 -17 -16 -15 -14 -14 -14
-5 -4 -3 -1 -3 -3 -3 -2 -1 -0 -1 -2 -2 -3 -3 -3 -5 -7 -8 -10 -11 -15 -19 -20 -18 -15 -15 -17 -19 -23 -18 -16 -16 -17 -18 -18 -18 -18 -18 -18 -20 -15 -18 -17
-5 -4 -0 0 -4 -3 -2 -1 -2 -2 -2 -2 -3 -3 -4 -4 -6 -7 -8 -7 -11 -15 -19 -21 -18 -16 -17 -19 -22 -25 -26 -18 -17 -18 -18 -21 -16 -16 -17 -17 -16 -19 -23 -23

GFSCGP_850_dewp_147.txt.gz
Dewpoint
-7 -4 -6 -8 -5 -6 -8 -7 -7 -9 -11 -8 -7 -8 -9 -6 -6 -5 -4 -4 -4 -3 -3 -3 -3 -3 -2 -2 -2 -2 -2 -1 -1 -2 -2 -2 -2 -2 -2 -2 -2 -2 -2 -2
-6 -6 -8 -7 -8 -7 -8 -7 -7 -9 -9 -6 -8 -8 -9 -7 -6 -6 -4 -4 -4 -3 -3 -3 -3 -3 -3 -3 -2 -2 -2 -2 -2 -2 -2 -2 -2 -2 -3 -3 -3 -2 -2 -3
-6 -8 -7 -7 -8 -6 -7 -6 -7 -8 -10 -9 -8 -7 -8 -8 -6 -5 -4 -4 -4 -3 -3 -3 -3 -3 -3 -3 -3 -3 -3 -2 -2 -1 -2 -2 -2 -3 -3 -4 -3 -3 -4 -3
-6 -8 -6 -8 -7 -8 -7 -8 -7 -8 -7 -6 -7 -4 -9 -6 -4 -4 -4 -3 -3 -3 -3 -3 -3 -4 -4 -4 -3 -4 -3 -3 -2 -2 -2 -2 -3 -3 -4 -4 -4 -4 -4 -4
-6 -7 -7 -6 -8 -8 -9 -7 -7 -7 -6 -6 -7 -5 -8 -5 -4 -3 -3 -3 -2 -3 -3 -3 -4 -4 -5 -5 -4 -4 -4 -4 -2 -2 -2 -3 -3 -4 -4 -5 -5 -5 -5 -5
-7 -9 -9 -9 -9 -8 -8 -6 -6 -5 -4 -1 -6 -6 -7 -5 -4 -4 -3 -2 -2 -3 -3 -4 -4 -4 -5 -5 -5 -4 -5 -5 -3 -2 -3 -4 -4 -5 -5 -6 -6 -6 -6 -5
-8 -8 -10 -8 -6 -6 -6 -6 -3 -4 -0 -1 -5 -4 -6 -3 -1 -2 -1 -2 -2 -3 -3 -4 -4 -4 -5 -6 -9 -6 -6 -6 -4 -3 -3 -4 -5 -5 -5 -6 -6 -6 -6 -6
-7 -5 -8 -7 -8 -7 -7 -7 -5 -5 -3 -3 -7 -6 -3 -1 -2 -1 -0 -1 -3 -3 -3 -3 -8 -4 -5 -11 -18 -16 -7 -8 -6 -5 -4 -5 -4 -5 -5 -6 -7 -7 -7 -6
-9 -10 -7 -9 -9 -10 -8 -6 -5 -2 -4 -2 -4 -7 -0 -2 -1 -2 -2 -1 -2 -3 -3 -4 -9 -5 -5 -15 -22 -22 -13 -17 -13 -9 -5 -5 -4 -4 -5 -5 -7 -7 -7 -7
-6 -2 -8 -8 -7 -9 -8 -10 -4 -4 2 -1 -7 -5 2 5 1 0 3 -0 -0 -2 -4 -3 -9 -7 -6 -18 -24 -29 -26 -29 -29 -18 -7 -10 -9 -4 -4 -5 -6 -7 -7 -7
-8 -2 -8 -7 -7 -10 -7 -5 -6 -6 -4 -0 0 -0 -1 5 5 6 3 2 1 -1 -5 -3 -7 -10 -10 -16 -25 -29 -31 -31 -32 -29 -13 -24 -23 -10 -5 -5 -6 -6 -6 -7
-7 -5 -4 -8 -10 -10 -7 -6 -8 -3 -3 -1 4 6 1 -2 -2 1 3 1 0 -1 -4 -8 -8 -10 -13 -19 -24 -27 -30 -31 -30 -28 -30 -31 -30 -27 -21 -14 -6 -6 -6 -6
-6 -9 -6 -10 -9 -6 -4 -6 -4 -3 -1 2 5 6 -3 -3 -2 -2 -0 1 -0 -3 -5 -8 -9 -10 -15 -18 -24 -23 -18 -21 -24 -24 -26 -29 -29 -28 -25 -23 -21 -18 -10 -6
-11 -11 -8 -6 -9 -8 -5 -6 -6 -5 4 2 1 -1 -5 -7 -7 -8 -8 2 -1 -3 -4 -8 -9 -11 -15 -19 -11 -8 -8 -9 -10 -10 -12 -20 -23 -24 -26 -27 -25 -25 -22 -23
-7 -4 -6 -7 -8 -7 -8 -6 -6 -6 -5 -3 -1 -5 -7 -8 -7 -7 -3 0 -0 -2 -3 -4 -5 -9 -15 -7 -9 -10 -10 -10 -11 -11 -11 -10 -11 -12 -17 -15 -17 -25 -28 -26
-8 -2 -1 1 -4 -7 -5 -1 -5 -5 -5 -4 -5 -5 -8 -9 -3 -3 -0 0 -1 -3 -4 -5 -5 -6 -8 -10 -11 -10 -10 -10 -11 -11 -12 -11 -12 -11 -10 -9 -9 -11 -18 -27
-5 -2 -2 -2 -8 -8 -5 2 -0 -6 -7 -7 -5 -8 -9 -6 -5 -1 -0 -1 -2 -3 -4 -6 -7 -8 -8 -10 -10 -10 -10 -10 -10 -11 -12 -11 -11 -11 -11 -11 -10 -10 -11 -13
-5 -4 -4 -4 -6 -2 -4 -7 -9 -8 -9 -10 -9 -3 -4 -2 -2 -0 0 -1 -3 -4 -5 -6 -7 -7 -8 -9 -9 -10 -10 -10 -11 -12 -10 -10 -11 -11 -11 -10 -10 -10 -10 -11
-8 -6 -4 -2 -4 -6 -8 -9 -8 -7 -6 -8 -4 -5 -4 -2 -2 -1 -1 -2 -3 -5 -6 -5 -7 -12 -12 -9 -10 -10 -9 -10 -12 -24 -26 -11 -10 -10 -10 -10 -10 -10 -10 -10
-8 -6 -3 -2 -1 -2 -7 -10 -7 -6 -3 -4 -4 -3 -3 -3 0 3 -1 -3 -4 -6 -7 -7 -8 -9 -9 -10 -10 -10 -19 -24 -13 -16 -22 -26 -13 -13 -11 -10 -10 -10 -10 -10
-2 -3 -1 -1 -1 -3 -9 -7 -6 -2 1 -1 -2 -3 -3 -1 -0 -1 -3 -3 -5 -7 -9 -9 -11 -12 -12 -12 -12 -11 -10 -18 -14 -13 -13 -15 -12 -11 -10 -10 -10 -11 -10 -11
-4 -3 -1 -2 -1 -1 -9 -5 -4 -5 -4 -4 -3 -2 -0 -0 -0 -1 -3 -4 -7 -9 -10 -12 -13 -13 -14 -14 -14 -14 -13 -14 -14 -15 -15 -15 -14 -13 -12 -11 -11 -11 -11 -11
-4 -8 -6 -7 -4 -5 -4 -4 -5 -5 -4 -3 -2 -1 1 -1 -1 -2 -4 -6 -8 -11 -12 -14 -14 -14 -14 -15 -15 -15 -14 -14 -15 -17 -17 -17 -17 -17 -16 -15 -14 -12 -12 -12
-8 -10 -2 -4 -4 -6 -7 -6 -6 -5 -2 -1 -1 -1 0 1 -1 -3 -4 -7 -9 -12 -15 -16 -16 -15 -14 -14 -15 -15 -14 -15 -16 -18 -18 -18 -18 -18 -17 -17 -15 -15 -15 -13
-6 -4 -3 -3 -5 -6 -5 -5 -2 -2 -1 -0 -1 -2 -1 -1 -2 -4 -6 -7 -10 -13 -16 -17 -17 -16 -15 -15 -15 -15 -15 -16 -17 -18 -18 -17 -17 -17 -17 -16 -19 -15 -22 -25
-6 -5 -1 1 -4 -4 -4 -2 -1 -1 -1 -1 -2 -2 -2 -2 -3 -5 -6 -8 -10 -13 -16 -17 -17 -16 -16 -15 -15 -16 -16 -16 -17 -18 -17 -20 -15 -15 -15 -15 -15 -14 -14 -15

GFSCGP_850_dewp_150.txt.gz
Dewpoint
-4 -5 -3 -5 -8 -5 -5 -6 -9 -12 -12 -10 -8 -8 -9 -7 -6 -6 -6 -4 -4 -3 -3 -3 -2 -2 -2 -1 -2 -2 -2 -2 -2 -4 -4 -4 -4 -2 -3 -3 -3 -3 -3 -3
-4 -5 -7 -8 -7 -7 -7 -8 -8 -10 -11 -9 -7 -7 -11 -11 -5 -6 -5 -5 -4 -3 -3 -3 -3 -2 -2 -2 -2 -3 -3 -2 -2 -3 -2 -2 -3 -3 -3 -4 -4 -4 -4 -4
-3 -7 -8 -7 -7 -7 -7 -7 -7 -7 -9 -11 -11 -10 -10 -10 -6 -7 -6 -4 -3 -3 -3 -3 -3 -3 -3 -3 -2 -3 -3 -3 -2 -2 -4 -5 -4 -4 -4 -4 -4 -4 -4 -4
-6 -9 -8 -7 -6 -9 -7 -8 -8 -7 -7 -7 -11 -5 -10 -7 -5 -5 -4 -4 -3 -3 -3 -3 -3 -3 -4 -3 -3 -3 -4 -3 -2 -2 -5 -6 -4 -3 -4 -4 -5 -5 -5 -5
-6 -7 -6 -5 -8 -9 -8 -9 -7 -7 -9 -7 -8 -5 -8 -8 -4 -3 -4 -3 -2 -2 -2 -3 -3 -4 -4 -4 -5 -4 -5 -5 -3 -2 -4 -7 -4 -3 -4 -4 -5 -5 -5 -6
-6 -9 -9 -9 -10 -9 -9 -9 -8 -6 -4 0 -3 -3 -6 -4 -3 -2 -3 -2 -2 -3 -3 -3 -3 -4 -4 -5 -8 -6 -6 -6 -5 -4 -4 -6 -5 -4 -4 -4 -5 -5 -5 -6
-5 -7 -9 -11 -9 -10 -7 -5 -1 -1 1 1 -5 -4 -5 -1 -1 -1 -1 -2 -2 -3 -3 -3 -3 -3 -4 -6 -14 -10 -7 -8 -9 -8 -6 -8 -6 -5 -4 -5 -5 -5 -5 -6
-5 -3 -9 -9 -9 -9 -5 -6 -2 -4 -1 -2 -5 -5 -1 -1 -2 -1 -1 -1 -2 -2 -3 -2 -5 -3 -4 -9 -17 -20 -12 -16 -17 -16 -8 -9 -13 -6 -4 -5 -5 -5 -5 -7
-7 -8 -9 -8 -10 -11 -11 -8 -8 -3 -3 -0 -5 -7 -1 -2 -1 -1 -0 -0 -2 -2 -2 -2 -5 -3 -4 -10 -19 -26 -24 -30 -29 -23 -12 -11 -20 -13 -6 -5 -5 -5 -5 -6
-6 -3 -9 -8 -8 -9 -9 -12 -4 -1 1 -1 -5 -4 5 5 1 1 2 -0 -0 -1 -2 -3 -6 -5 -5 -11 -21 -28 -31 -32 -32 -29 -18 -25 -25 -21 -16 -10 -7 -5 -5 -6
-7 2 -7 -9 -6 -7 -11 -7 -5 -7 -4 0 2 2 3 4 5 6 3 0 1 -0 -2 -2 -4 -8 -7 -12 -21 -28 -31 -31 -31 -30 -29 -30 -28 -25 -23 -24 -23 -11 -5 -5
-8 -4 -3 -7 -10 -11 -11 -8 -6 1 -2 -0 4 4 0 -2 2 2 5 1 0 2 -0 -3 -4 -9 -8 -14 -22 -26 -26 -25 -27 -23 -25 -24 -25 -25 -27 -29 -27 -26 -25 -14
-5 -5 -4 -7 -10 -13 -9 -7 -8 -6 -2 1 5 6 -3 -4 -5 -5 -2 1 1 1 -0 -4 -7 -4 -9 -15 -22 -19 -14 -12 -15 -13 -13 -16 -18 -20 -23 -26 -28 -30 -30 -28
-8 -7 -8 -2 -6 -8 -4 -4 -8 -5 4 2 2 -0 -3 -5 -6 -7 -8 2 1 1 -2 -5 -8 -9 -11 -17 -14 -9 -8 -9 -10 -10 -10 -11 -12 -13 -14 -17 -22 -28 -29 -30
-10 -5 -8 -10 -10 -9 -9 -8 -7 -8 -6 -3 -2 -5 -6 -7 -6 -6 -2 1 0 -1 -2 -3 -5 -7 -13 -8 -9 -10 -9 -10 -10 -10 -11 -11 -11 -10 -10 -10 -11 -19 -24 -27
-8 -0 0 0 -5 -7 -6 -3 -8 -7 -6 -5 -5 -4 -7 -8 -4 -2 1 1 0 -1 -2 -3 -3 -4 -6 -9 -10 -10 -9 -9 -10 -11 -11 -10 -10 -10 -10 -10 -9 -11 -17 -23
-4 -4 -2 -1 -6 -8 -4 -0 -1 -7 -8 -7 -5 -6 -2 -1 -3 -1 0 1 -0 -2 -2 -3 -4 -6 -8 -10 -9 -9 -9 -10 -9 -10 -10 -10 -10 -10 -10 -10 -10 -9 -10 -16
-6 -4 -3 -1 -4 -1 -4 -10 -9 -8 -9 -10 -10 -10 -3 0 -2 -0 0 -0 -1 -2 -3 -5 -6 -7 -8 -9 -9 -9 -10 -9 -18 -16 -10 -10 -9 -9 -10 -10 -10 -9 -10 -11
-8 -5 -2 -0 -2 -6 -9 -10 -8 -7 -6 -8 -8 -5 -4 -4 -3 -0 -1 -1 -2 -4 -5 -5 -7 -7 -8 -9 -9 -9 -9 -9 -16 -27 -25 -13 -13 -13 -12 -12 -10 -10 -10 -10
-9 -5 -3 -2 -2 -2 -6 -9 -7 -7 -3 -4 -4 -3 -3 -4 0 2 0 -0 -3 -5 -5 -5 -6 -9 -8 -9 -9 -11 -23 -22 -12 -15 -21 -19 -15 -13 -13 -10 -12 -11 -11 -11
-4 -4 -1 -0 -1 -4 -9 -9 -6 -2 -1 -2 -3 -3 -2 -1 0 0 -1 -2 -4 -6 -6 -7 -8 -9 -10 -10 -10 -10 -13 -19 -13 -13 -12 -14 -12 -11 -11 -11 -11 -11 -11 -12
-3 -2 -0 -1 -0 0 -8 -6 -3 -4 -5 -6 -5 -3 -2 -0 0 -0 -1 -2 -5 -7 -8 -9 -11 -12 -12 -12 -12 -13 -13 -13 -13 -15 -14 -15 -15 -14 -13 -13 -11 -11 -11 -11
-4 -6 -2 -3 -2 -2 -3 -2 -3 -5 -6 -4 -2 -2 -1 0 1 -0 -2 -3 -6 -9 -10 -11 -12 -13 -14 -14 -14 -14 -14 -15 -16 -16 -16 -17 -17 -17 -16 -15 -17 -18 -13 -13
-7 -10 -4 -3 -4 -7 -6 -6 -6 -5 -3 -3 -1 -1 -1 1 -0 -1 -2 -4 -8 -10 -12 -13 -13 -14 -14 -15 -15 -14 -14 -15 -16 -17 -17 -17 -20 -17 -19 -20 -18 -24 -26 -23
-2 -3 -3 -2 -4 -6 -7 -5 -3 -1 -1 -2 -1 -1 -1 -1 1 -2 -3 -5 -8 -11 -13 -15 -14 -14 -14 -15 -14 -14 -15 -16 -17 -17 -16 -16 -15 -16 -16 -16 -15 -14 -14 -15
-6 -4 0 2 -2 -3 -3 -3 -2 -2 -2 -2 -1 -1 -2 -1 -1 -2 -4 -6 -8 -12 -14 -15 -16 -15 -15 -15 -15 -14 -15 -16 -17 -17 -17 -19 -14 -14 -15 -14 -13 -12 -13 -13